[[{"header":{"parameterUnit":"m.s-1","parameterCategory":1,"la1":30.6,"la2":29.2853,"lo1":-89.7004,"lo2":-87.6739,"dy":0.0162,"dx":0.0183,"nx":112,"ny":82,"refTime":"2024-12-05T18:00:00:Z","depth":0,"parameterNumber":2,"parameterNumberName":"U-component_of_WINDS"},"data":[0.0,0.0,0.0,0.0,0.0,0.0,0.0,0.0,0.0,0.0,0.0,0.0,0.0,0.0,0.0,0.0,0.0,0.0,0.0,0.0,0.0,0.0,0.0,0.0,0.0,0.0,0.0,0.0,0.0,0.0,0.0,0.0,0.0,0.0,0.0,0.0,0.0,0.0,0.0,0.0,0.0,0.0,0.0,0.0,0.0,0.0,0.0,0.0,0.0,0.0,0.0,0.0,0.0,0.0,0.0,0.0,0.0,0.0,0.0,0.0,0.0,0.0,0.0,0.0,0.0,0.0,0.0,0.0,0.0,0.0,0.0,0.0,0.0,0.0,0.0,0.0,0.0,0.0,0.0,0.0,0.0,0.0,0.0,0.0,0.0,0.0,0.0,0.0,0.0,0.0,-0.8457,-0.9691,-1.2757,-1.5269,-1.6718,-1.7202,-1.6411,-1.3991,0.0,0.0,0.0,0.0,0.0,0.0,0.0,0.0,0.0,0.0,0.0,0.0,0.0,0.0,0.0,0.0,0.0,0.0,0.0,0.0,0.0,0.0,0.0,0.0,0.0,0.0,0.0,0.0,0.0,0.0,0.0,0.0,0.0,0.0,0.0,0.0,0.0,0.0,0.0,0.0,0.0,0.0,0.0,0.0,0.0,0.0,0.0,0.0,0.0,0.0,0.0,0.0,0.0,0.0,0.0,0.0,0.0,0.0,0.0,0.0,0.0,0.0,0.0,0.0,0.0,0.0,0.0,0.0,0.0,0.0,0.0,0.0,0.0,0.0,0.0,0.0,0.0,0.0,0.0,0.0,0.0,0.0,0.0,0.0,0.0,0.0,0.0,0.0,0.0,0.0,0.0,0.0,0.0,0.0,0.0,0.0,0.0,0.0,0.0,0.0,0.0,0.0,0.0,0.0,-0.951,-1.3127,-1.4682,-1.5514,-1.5919,-1.6706,-1.5996,-1.3395,0.0,0.0,0.0,0.0,0.0,0.0,0.0,0.0,0.0,0.0,0.0,0.0,0.0,0.0,0.0,0.0,0.0,0.0,0.0,0.0,0.0,0.0,0.0,0.0,0.0,0.0,0.0,0.0,0.0,0.0,0.0,0.0,0.0,0.0,0.0,0.0,0.0,0.0,0.0,0.0,0.0,0.0,0.0,0.0,0.0,0.0,0.0,0.0,0.0,0.0,0.0,0.0,0.0,0.0,0.0,0.0,0.0,0.0,0.0,0.0,0.0,0.0,0.0,0.0,0.0,0.0,0.0,0.0,0.0,0.0,0.0,0.0,0.0,0.0,0.0,0.0,0.0,0.0,0.0,0.0,0.0,0.0,0.0,0.0,0.0,0.0,0.0,0.0,0.0,0.0,0.0,0.0,0.0,0.0,0.0,0.0,0.0,0.0,0.0,0.0,0.0,0.0,0.0,-0.8593,-1.0993,-1.4665,-1.5644,-1.6098,-1.628,-1.6794,-1.5909,-1.3061,-1.2551,0.0,0.0,0.0,0.0,0.0,0.0,0.0,0.0,0.0,0.0,0.0,0.0,0.0,0.0,0.0,0.0,0.0,0.0,0.0,0.0,0.0,0.0,0.0,0.0,0.0,0.0,0.0,0.0,0.0,0.0,0.0,0.0,0.0,0.0,0.0,0.0,0.0,0.0,0.0,0.0,0.0,0.0,0.0,0.0,0.0,0.0,0.0,0.0,0.0,0.0,0.0,0.0,0.0,0.0,0.0,0.0,0.0,0.0,0.0,0.0,0.0,0.0,0.0,0.0,0.0,0.0,0.0,0.0,0.0,0.0,0.0,0.0,0.0,0.0,0.0,0.0,0.0,0.0,0.0,0.0,0.0,0.0,0.0,0.0,0.0,0.0,0.0,0.0,0.0,0.0,0.0,0.0,0.0,0.0,0.0,0.0,0.0,0.0,0.0,0.0,0.0,0.0,-1.0409,-1.233,-1.5129,-1.6065,-1.6565,-1.6742,-1.6722,-1.5617,-1.2942,-1.1914,0.0,0.0,0.0,0.0,0.0,0.0,0.0,0.0,0.0,0.0,0.0,0.0,0.0,0.0,0.0,0.0,0.0,0.0,0.0,0.0,0.0,0.0,0.0,0.0,0.0,0.0,0.0,0.0,0.0,0.0,0.0,0.0,0.0,0.0,0.0,0.0,0.0,0.0,0.0,0.0,0.0,0.0,0.0,0.0,0.0,0.0,0.0,0.0,0.0,0.0,0.0,0.0,0.0,0.0,0.0,0.0,0.0,0.0,0.0,0.0,0.0,0.0,0.0,0.0,0.0,0.0,0.0,0.0,0.0,0.0,0.0,0.0,0.0,0.0,0.0,0.0,0.0,0.0,0.0,0.0,0.0,0.0,0.0,0.0,0.0,0.0,0.0,0.0,0.0,0.0,0.0,0.0,0.0,0.0,0.0,0.0,0.0,0.0,0.0,0.0,0.0,0.0,-1.0866,-1.3154,-1.4579,-1.5817,-1.6681,-1.7067,-1.6068,-1.4791,-1.3151,-1.1649,0.0,0.0,0.0,0.0,0.0,0.0,0.0,0.0,0.0,0.0,0.0,0.0,0.0,0.0,0.0,0.0,0.0,0.0,0.0,0.0,0.0,0.0,0.0,0.0,0.0,0.0,0.0,0.0,0.0,0.0,0.0,0.0,0.0,0.0,0.0,0.0,0.0,0.0,0.0,0.0,0.0,0.0,0.0,0.0,0.0,0.0,0.0,0.0,0.0,0.0,0.0,0.0,0.0,0.0,0.0,0.0,0.0,0.0,0.0,0.0,0.0,0.0,0.0,0.0,0.0,0.0,0.0,0.0,0.0,0.0,0.0,0.0,0.0,0.0,0.0,0.0,0.0,0.0,0.0,0.0,0.0,0.0,0.0,0.0,0.0,0.0,0.0,0.0,0.0,0.0,0.0,0.0,0.0,0.0,0.0,0.0,0.0,0.0,0.0,0.0,0.0,0.0,-0.9411,-1.1819,-1.4093,-1.512,-1.5977,-1.6808,-1.6298,-1.4883,-1.2493,0.0,0.0,0.0,0.0,0.0,0.0,0.0,0.0,0.0,0.0,0.0,0.0,0.0,0.0,0.0,0.0,0.0,0.0,0.0,0.0,0.0,0.0,0.0,0.0,0.0,0.0,0.0,0.0,0.0,0.0,0.0,0.0,0.0,0.0,0.0,0.0,0.0,0.0,0.0,0.0,0.0,0.0,0.0,0.0,0.0,0.0,0.0,0.0,0.0,0.0,0.0,0.0,0.0,0.0,0.0,0.0,0.0,0.0,0.0,0.0,0.0,0.0,0.0,0.0,0.0,0.0,0.0,0.0,0.0,0.0,0.0,0.0,0.0,0.0,0.0,0.0,0.0,0.0,0.0,0.0,0.0,0.0,0.0,0.0,0.0,0.0,0.0,0.0,0.0,0.0,0.0,0.0,0.0,0.0,0.0,0.0,0.0,0.0,0.0,0.0,0.0,0.0,-0.6627,-0.8716,-1.0883,-1.3138,-1.4093,-1.4938,-1.5777,-1.5106,-1.373,-1.1657,0.0,0.0,0.0,0.0,0.0,0.0,0.0,0.0,0.0,0.0,0.0,0.0,0.0,0.0,0.0,0.0,0.0,0.0,0.0,0.0,0.0,0.0,0.0,0.0,0.0,0.0,0.0,0.0,0.0,0.0,0.0,0.0,0.0,0.0,0.0,0.0,0.0,0.0,0.0,0.0,0.0,0.0,0.0,0.0,0.0,0.0,0.0,0.0,0.0,0.0,0.0,0.0,0.0,0.0,0.0,0.0,0.0,0.0,0.0,0.0,0.0,0.0,0.0,0.0,0.0,0.0,0.0,0.0,0.0,0.0,0.0,0.0,0.0,0.0,0.0,0.0,0.0,0.0,0.0,0.0,0.0,0.0,0.0,0.0,0.0,0.0,0.0,0.0,0.0,0.0,0.0,0.0,0.0,0.0,0.0,0.0,0.0,0.0,0.0,0.0,0.0,0.0,-0.7303,-0.9224,-1.0763,-1.1591,-1.264,-1.349,-1.3858,-1.222,-1.1059,0.0,0.0,0.0,0.0,0.0,0.0,0.0,0.0,0.0,0.0,0.0,0.0,0.0,0.0,0.0,0.0,0.0,0.0,0.0,0.0,0.0,0.0,0.0,0.0,0.0,0.0,0.0,0.0,0.0,0.0,0.0,0.0,0.0,0.0,0.0,0.0,0.0,0.0,0.0,0.0,0.0,0.0,0.0,0.0,0.0,0.0,0.0,0.0,0.0,0.0,0.0,0.0,0.0,0.0,0.0,0.0,0.0,0.0,0.0,0.0,0.0,0.0,0.0,0.0,0.0,0.0,0.0,0.0,0.0,0.0,0.0,0.0,0.0,0.0,0.0,0.0,0.0,0.0,0.0,0.0,0.0,0.0,0.0,0.0,0.0,0.0,0.0,0.0,0.0,0.0,0.0,0.0,0.0,0.0,0.0,0.0,0.0,0.0,0.0,0.0,0.0,0.0,0.0,-0.7839,-0.868,-0.9676,-1.1296,-1.1628,-1.225,-1.3282,-1.2362,-1.1056,-0.946,0.0,0.0,0.0,0.0,0.0,0.0,0.0,0.0,0.0,0.0,0.0,0.0,0.0,0.0,0.0,0.0,0.0,0.0,0.0,0.0,0.0,0.0,0.0,0.0,0.0,0.0,0.0,0.0,0.0,0.0,0.0,0.0,0.0,0.0,0.0,0.0,0.0,0.0,0.0,0.0,0.0,0.0,0.0,0.0,0.0,0.0,0.0,0.0,0.0,0.0,0.0,0.0,0.0,0.0,0.0,0.0,0.0,0.0,0.0,0.0,0.0,0.0,0.0,0.0,0.0,0.0,0.0,0.0,0.0,0.0,0.0,0.0,0.0,0.0,0.0,0.0,0.0,0.0,0.0,0.0,0.0,0.0,0.0,0.0,0.0,0.0,0.0,0.0,0.0,0.0,0.0,0.0,0.0,0.0,0.0,0.0,0.0,0.0,0.0,0.0,0.0,0.0,-0.8059,-0.8581,-0.9215,-1.0606,-1.0552,-1.0831,-1.1733,-1.1238,-1.0183,-0.8514,0.0,0.0,0.0,0.0,0.0,0.0,0.0,0.0,0.0,0.0,0.0,0.0,0.0,0.0,0.0,0.0,0.0,0.0,0.0,0.0,0.0,0.0,0.0,0.0,0.0,0.0,0.0,0.0,0.0,0.0,0.0,0.0,0.0,0.0,0.0,0.0,0.0,0.0,0.0,0.0,0.0,0.0,0.0,0.0,0.0,0.0,0.0,0.0,0.0,0.0,0.0,0.0,0.0,0.0,0.0,0.0,0.0,0.0,0.0,0.0,0.0,0.0,0.0,0.0,0.0,0.0,0.0,0.0,0.0,0.0,0.0,0.0,0.0,0.0,0.0,0.0,0.0,0.0,0.0,0.0,0.0,0.0,0.0,0.0,0.0,0.0,0.0,0.0,0.0,0.0,0.0,0.0,0.0,0.0,0.0,0.0,0.0,0.0,0.0,0.0,0.0,0.0,-0.8046,-0.8686,-0.9026,-0.9667,-0.9557,-0.9497,-0.9722,-0.9486,-0.8755,-0.7737,0.0,0.0,0.0,0.0,0.0,0.0,0.0,0.0,0.0,0.0,0.0,0.0,0.0,0.0,0.0,0.0,0.0,0.0,0.0,0.0,0.0,0.0,0.0,0.0,0.0,0.0,0.0,0.0,0.0,0.0,0.0,0.0,0.0,0.0,0.0,0.0,0.0,0.0,0.0,0.0,0.0,0.0,0.0,0.0,0.0,0.0,0.0,0.0,0.0,0.0,0.0,0.0,0.0,0.0,0.0,0.0,0.0,0.0,0.0,0.0,0.1411,0.1301,0.0,0.0,0.0,0.0,0.0,0.0,0.0,0.0,0.0,0.0,0.0,0.0,0.0,0.0,0.0,0.0,0.0,0.0,0.0,0.0,0.0,0.0,0.0,0.0,0.0,0.0,0.0,0.0,0.0,0.0,0.0,0.0,0.0,0.0,0.0,0.0,0.0,0.0,0.0,0.0,-0.8547,-0.8301,-0.8195,-0.9667,-0.9557,-0.9381,-0.9497,-0.9159,-0.8599,-0.7959,-0.7237,0.0,0.0,0.0,0.0,0.0,0.0,0.0,0.0,0.0,0.0,0.0,0.0,0.0,0.0,0.0,0.0,0.0,0.0,0.0,0.0,0.0,0.0,0.0,0.0,0.0,0.0,0.0,0.0,0.0,0.0,0.0,0.0,0.0,0.0,0.0,0.0,0.0,0.0,0.0,0.0,0.0,0.0,0.0,0.0,0.0,0.0,0.0,0.0,0.0,0.0,0.0,0.0,0.0,0.0,0.0,0.0,0.0,0.0,0.0,0.1595,0.1493,0.0,0.0,0.0,0.0,0.0,0.0,0.0,0.0,0.0,0.0,0.0,0.0,0.0,0.0,0.0,0.0,0.0,0.0,0.0,0.0,0.0,0.0,0.0,0.0,0.0,0.0,0.0,0.0,0.0,0.0,0.0,0.0,0.0,0.0,0.0,0.0,0.0,0.0,0.0,0.0,-0.5403,-0.6144,-0.7005,-0.869,-0.8598,-0.8678,-0.9381,-0.912,-0.8784,-0.8326,-0.7782,0.0,0.0,0.0,0.0,0.0,0.0,0.0,0.0,0.0,0.0,0.0,0.0,0.0,0.0,0.0,0.0,0.0,0.0,0.0,0.0,0.0,0.0,0.0,0.0,0.0,0.0,0.0,0.0,0.0,0.0,0.0,0.0,0.0,0.0,0.0,0.0,0.0,0.0,0.0,0.0,0.0,0.0,0.0,0.0,0.0,0.0,0.0,0.0,0.0,0.0,0.0,0.0,0.0,0.241,0.2458,0.4015,0.3845,0.2928,0.1635,0.1581,0.1628,0.1749,0.1055,0.0,0.0,0.0,0.0,0.0,0.0,0.0,0.0,0.0,0.0,0.0,0.0,0.0,0.0,0.0,0.0,0.0,0.0,0.0,0.0,0.0,0.0,0.4634,0.4496,0.4267,0.3927,0.3212,0.0,0.0,0.0,0.0,0.0,0.0,0.0,0.0,0.0,0.0,0.0,-0.184,-0.3913,-0.5814,-0.7438,-0.7277,-0.7497,-0.864,-0.8523,-0.8355,-0.8174,-0.7822,-0.7041,0.0,0.0,0.0,0.0,0.0,0.0,0.0,0.0,0.0,0.0,0.0,0.0,0.0,0.0,0.0,0.0,0.0,0.0,0.0,0.0,0.0,0.0,0.0,0.0,0.0,0.0,0.0,0.0,0.0,0.0,0.0,0.0,1.2734,1.1183,0.0,0.0,0.0,0.0,0.0,0.0,0.0,0.0,0.0,0.0,0.0,0.0,0.0,0.3731,0.4009,0.3946,0.3682,0.3357,0.1874,0.1366,0.1511,0.1507,0.1374,0.1241,0.1208,0.0,0.182,0.1707,0.0,0.0,0.0,0.0,0.0,0.0,0.0,0.0,0.0,0.0,0.0,0.0,0.0,0.0,0.0,0.0,0.0,0.0,0.0,0.0,0.0,0.0,0.552,0.5198,0.4789,0.4262,0.3626,0.2628,0.1768,0.1397,0.1189,0.1067,0.0,0.0,0.0,0.0,0.0,0.0,-0.177,-0.3153,-0.4614,-0.6017,-0.5932,-0.5951,-0.6093,-0.5971,-0.5845,-0.5934,-0.5741,-0.5489,-0.5218,-0.4168,0.0,0.0,0.0,0.0,0.0,0.0,0.0,0.0,0.0,0.0,0.0,0.0,0.0,0.0,0.0,0.0,0.0,0.0,0.0,0.0,0.0,0.0,0.0,0.0,0.0,0.0,0.0,0.0,0.0,1.3573,1.2102,1.2304,1.0886,0.9828,0.0,0.0,0.0,0.0,0.0,0.0,0.0,0.0,0.0,0.5264,0.5908,0.6458,0.677,0.6823,0.5858,0.3999,0.3369,0.3128,0.315,0.315,0.315,0.3149,0.3105,0.3265,0.3461,0.3669,0.3079,0.2262,0.0,0.0,0.0,0.0,0.6581,0.6551,0.6855,0.6817,0.6611,0.638,0.0,0.0,0.0,0.0,0.0,0.0,0.0,0.4818,0.4986,0.5292,0.5438,0.5088,0.4501,0.3894,0.324,0.2455,0.179,0.1505,0.1389,0.1254,0.0797,0.0797,0.0,0.0,0.0,-0.0765,-0.1811,-0.2387,-0.3315,-0.4684,-0.4624,-0.4784,-0.5504,-0.5527,-0.5456,-0.5638,-0.5465,-0.5093,-0.4649,-0.4007,-0.3228,0.0,0.0,0.0,0.0,0.0,0.0,0.0,0.0,0.0,0.0,0.0,0.0,0.0,0.0,0.0,0.0,0.0,0.0,0.0,0.0,0.0,0.0,0.0,0.0,0.0,0.0,0.0,0.0,1.3292,1.1906,1.2695,1.123,0.9832,0.0,0.0,0.0,0.0,0.0,0.0,0.8043,0.8105,0.6878,0.4291,0.6594,0.7864,0.8119,0.8911,0.813,0.5887,0.5887,0.5918,0.5829,0.5829,0.5829,0.5825,0.5911,0.5841,0.5876,0.5404,0.5083,0.5096,0.6785,0.7328,0.7133,0.7398,0.7372,0.7421,0.7888,0.7839,0.7535,0.7698,0.7683,0.7455,0.6696,0.0,0.0,0.0,0.0,0.5993,0.6228,0.6355,0.6313,0.5864,0.5029,0.4033,0.3384,0.2551,0.179,0.1579,0.1569,0.1428,0.0648,0.0572,0.0,0.0084,-0.0,-0.04,-0.1525,-0.1827,-0.2235,-0.321,-0.3298,-0.3598,-0.4562,-0.4504,-0.4582,-0.4808,-0.475,-0.4341,-0.3704,-0.3623,-0.3088,-0.2108,0.0,0.0,0.0,0.0,0.0,0.0,0.0,0.0,0.0,0.0,0.0,0.0,0.0,0.0,0.0,0.0,0.0,0.0,0.0,0.0,0.0,0.0,0.0,0.0,0.0,0.0,0.0,0.0,0.0,1.0992,1.098,0.0,0.0,0.0,0.0,0.9181,0.8561,0.8352,0.8716,0.8629,0.7772,0.594,0.5257,0.4869,0.4936,0.7865,0.9195,0.9055,0.9055,0.906,0.9066,0.9066,0.9066,0.9066,0.9055,0.9131,0.885,0.599,0.6308,0.8585,0.8432,0.8375,0.8499,0.8132,0.8149,0.8318,0.8122,0.8111,0.8314,0.9677,1.0612,1.1143,1.0461,0.9728,0.0,0.0,0.8684,0.8841,0.8883,0.9113,0.9087,0.8365,0.6798,0.538,0.4817,0.3208,0.1846,0.1718,0.1674,0.1525,0.0762,0.0,-0.0,-0.0,-0.0,-0.0207,-0.0888,-0.148,-0.1958,-0.196,-0.1843,-0.1944,-0.2024,-0.202,-0.2018,-0.2018,-0.2242,-0.2351,-0.2347,-0.2484,-0.2538,-0.2491,-0.2243,0.0,0.0,0.0,0.0,0.0,0.0,0.0,0.0,0.0,0.0,0.0,0.0,0.0,0.0,0.0,0.0,0.0,0.0,0.0,0.0,0.0,0.0,0.0,0.0,0.0,0.0,0.0,0.0,1.3527,1.3116,0.0,0.9845,1.013,1.0026,0.8765,0.8892,0.9109,0.9109,0.9052,0.8749,0.8193,0.7856,0.7693,0.772,0.8749,0.9334,0.9323,0.9323,0.9323,0.9323,0.9323,0.9323,0.9323,0.9323,0.9302,0.9247,0.8111,0.8218,0.8985,0.8795,0.8773,0.8773,0.8633,0.8687,0.8883,0.9722,1.0003,0.998,1.1203,1.18,1.1823,1.0823,1.0436,1.0098,0.9252,0.9167,0.9305,0.9317,0.9233,0.8822,0.8182,0.7326,0.6372,0.567,0.491,0.4372,0.411,0.2828,0.1545,0.092,0.0413,-0.0,-0.0,-0.0,-0.0108,-0.034,-0.1261,-0.184,-0.184,-0.184,-0.1828,-0.1797,-0.1795,-0.1795,-0.1795,-0.1908,-0.202,-0.2244,-0.239,-0.2581,-0.2599,-0.2593,-0.2452,0.0,0.0,0.0,0.0,0.0,0.0,0.0,0.0,0.0,0.0,0.0,0.0,0.0,0.0,0.0,0.0,0.0,0.0,0.0,0.0,0.0,0.0,0.0,0.0,0.0,1.5173,1.4014,1.4553,1.3465,1.175,0.9712,1.0019,0.9889,0.8789,0.9065,0.9433,0.9296,0.9329,0.9227,0.9145,0.9087,0.9044,0.8889,0.8889,0.8884,0.8874,0.8874,0.9018,0.9157,0.9157,0.9157,0.9302,0.9302,0.9302,0.9302,0.9302,0.9215,0.9225,0.9073,0.9068,0.9068,0.9068,0.9349,1.0034,1.1455,1.206,1.2297,1.2919,1.3528,1.3635,1.2391,1.2065,1.1901,1.077,1.0465,1.0561,1.0664,1.035,0.9993,0.913,0.8477,0.7696,0.6812,0.6176,0.5794,0.5376,0.3448,0.1631,0.0987,0.0444,-0.0112,-0.0644,-0.0328,-0.0112,-0.0574,-0.115,-0.1607,-0.1825,-0.1825,-0.1817,-0.1797,-0.1786,-0.1779,-0.1779,-0.1761,-0.186,-0.2077,-0.222,-0.2332,-0.2505,-0.231,-0.2097,-0.1943,0.0,0.0,0.0,0.0,0.0,0.0,0.0,0.0,0.0,0.0,0.0,0.0,0.0,0.0,0.0,0.0,0.0,0.0,0.0,0.0,0.0,0.0,0.0,1.7738,1.5529,1.377,1.3843,1.1745,0.9932,0.8893,0.9291,0.9575,0.915,0.9253,0.9318,0.9318,0.9318,0.9173,0.8739,0.8734,0.8444,0.815,0.8005,0.8005,0.8005,0.8005,0.8295,0.8584,0.8729,0.8874,0.9302,0.9302,0.9302,0.9302,0.9302,0.9302,0.9302,0.9302,0.9302,0.9302,0.9302,1.0449,1.1966,1.3043,1.4305,1.5319,1.5119,1.5964,1.6742,1.5323,1.4931,1.467,1.3227,1.284,1.284,1.284,1.284,1.2481,1.1502,1.039,0.9166,0.8156,0.7001,0.5896,0.5533,0.3767,0.1917,0.1061,0.0465,-0.0347,-0.1646,-0.0814,0.0,-0.1727,-0.1266,-0.1144,-0.1687,-0.1797,-0.1795,-0.1795,-0.1767,-0.1749,-0.1748,-0.1695,-0.1766,-0.1972,-0.1705,-0.1739,-0.2138,-0.1451,-0.114,-0.1302,0.0,0.0,0.0,0.0,0.0,0.0,0.0,0.0,0.0,0.0,0.0,0.0,0.0,0.0,0.0,0.0,0.0,0.0,0.0,0.0,0.0,1.8203,1.8252,1.807,1.7129,1.5749,1.4353,1.3758,1.2388,0.9757,0.959,0.9672,0.9525,0.9552,0.9606,0.9688,0.9612,0.942,0.8969,0.8892,0.8669,0.8155,0.6986,0.6402,0.6402,0.6688,0.6833,0.6688,0.8,0.8729,0.8874,0.8874,0.9013,0.9302,0.9302,0.9302,0.9302,0.9302,0.9302,0.9446,1.0587,1.2588,1.4973,1.4996,1.6021,1.7036,1.6817,1.6891,1.6742,1.5323,1.4931,1.467,1.3227,1.284,1.284,1.284,1.2576,1.2219,1.1502,1.0912,1.0188,0.9394,0.8958,0.8593,0.7989,0.723,0.5835,0.3114,0.2737,0.2723,0.2351,0.0117,-0.1403,-0.1286,-0.1521,-0.1745,-0.1831,-0.1828,-0.1819,-0.1797,-0.1767,-0.174,-0.1718,-0.105,-0.073,-0.0845,-0.0413,-0.0505,-0.1085,-0.0729,-0.026,0.0,0.0,0.0,0.0,0.0,0.0,0.0,0.0,0.0,0.0,0.0,0.0,0.0,0.0,0.0,0.0,0.0,0.0,0.0,0.0,0.0,0.0,1.9337,1.9271,1.8781,1.7328,1.5895,1.4508,1.3268,1.1797,0.981,0.9671,0.9671,0.9671,0.9671,0.9699,0.9764,0.9553,0.9195,0.884,0.8484,0.8108,0.757,0.6982,0.6547,0.6547,0.6982,0.7127,0.6982,0.8145,0.8729,0.9018,0.9018,0.9018,0.9302,0.9302,0.9735,1.0305,0.0,0.0,0.0,0.0,1.4725,1.6272,1.6619,1.7296,1.7819,1.7486,1.7139,1.6478,1.5221,1.467,1.4277,1.3095,1.284,1.284,1.284,1.2576,1.2111,1.1585,1.1089,1.0594,0.9971,0.9869,0.97,0.922,0.8854,0.0,0.5831,0.5557,0.529,0.4315,0.2741,0.1424,0.0594,0.0356,0.0118,-0.0232,-0.0232,-0.023,-0.0227,-0.0223,0.0,0.0,0.0,0.062,0.0618,0.0509,0.0,0.0,0.0,0.0,0.0,0.0,0.0,0.0,0.0179,-0.009,0.0,0.0,0.0,0.0,0.0,0.0,0.0,0.0,0.0,0.0,0.0,0.0,0.0,0.0,0.0,0.0,1.9745,1.9828,1.9611,1.6866,1.4677,1.4583,1.1824,0.9844,0.9709,0.9709,0.9709,0.9709,0.9709,0.9709,0.9709,0.9257,0.0,0.0,0.0,0.7538,0.7152,0.728,0.7421,0.7421,0.7711,0.8005,0.8435,0.8584,0.8874,0.9302,0.9302,0.9302,0.9302,0.9302,1.0305,1.1872,1.1872,1.2015,1.2445,1.5159,1.6301,1.6564,1.7781,0.0,0.0,1.7459,1.689,1.6155,1.5157,1.4435,1.3779,1.2972,1.284,1.284,1.284,1.2576,1.2134,1.1698,1.117,1.0637,1.0086,0.9944,0.9721,0.9342,0.9098,0.8732,0.8366,0.8049,0.7291,0.5284,0.5973,0.5682,0.3136,0.3015,0.2878,0.2124,0.2119,0.0,0.196,0.1928,0.2004,0.1857,0.2014,0.2156,0.2286,0.1598,0.141,0.1834,0.1453,0.1273,0.1523,0.1688,0.1804,0.175,0.0195,-0.0483,0.0,0.0,0.0,0.0,0.0,0.0,0.0,0.0,0.0,0.0,0.0,0.0,0.0,0.0,0.0,2.0499,2.0022,1.9769,1.9634,1.671,1.4583,1.4326,1.2728,1.1213,1.0098,0.9954,0.9954,0.9954,0.9954,0.9954,0.9954,0.949,0.9285,0.9167,0.8624,0.823,0.798,0.6724,0.6108,0.6108,0.6543,0.0,0.6398,0.8,0.8729,0.8874,0.8874,0.9018,0.9302,0.9302,1.0875,1.3452,1.3452,1.4164,1.5443,1.6018,1.7007,1.8002,1.8239,1.825,1.794,1.7275,1.6848,1.6261,1.4709,1.4112,0.0,1.3005,1.284,1.284,1.284,1.2576,1.2134,1.1698,1.1242,1.0763,1.0107,1.0025,0.9724,0.9117,0.8976,0.8732,0.8116,0.7978,0.7728,0.7378,0.6137,0.5021,0.4529,0.3185,0.2193,0.2038,0.2035,0.2022,0.2107,0.2075,0.203,0.1969,0.2927,0.3554,0.3852,0.4012,0.3827,0.3298,0.2756,0.2405,0.2356,0.1968,0.1774,0.1785,0.1417,0.1306,0.0,0.0,0.0,0.0,0.0,0.0,0.0,0.0,0.0,0.0,0.0,2.2638,2.1353,0.0,2.1866,2.059,2.0122,1.983,1.9669,1.6748,1.4496,1.4236,1.2319,1.065,1.0008,1.0019,1.0019,1.0019,1.0019,1.0019,1.0019,0.9553,0.932,0.9147,0.879,0.8383,0.8226,0.7588,0.7272,0.7272,0.7702,0.7702,0.7562,0.8579,0.9018,0.9018,0.9018,0.959,1.0587,1.2158,1.3587,1.5159,1.5877,1.6583,1.7298,1.7298,1.7721,1.8433,1.8433,1.8078,1.7544,1.7133,1.6333,1.5531,1.4503,1.3975,1.3478,1.312,1.2905,1.284,1.284,1.2437,1.2025,1.1803,1.12,1.0711,1.0304,1.0029,0.966,0.9341,0.8903,0.8488,0.8244,0.7994,0.7872,0.7627,0.6644,0.5782,0.5659,0.4677,0.3929,0.3899,0.3897,0.3993,0.3928,0.3869,0.3807,0.3856,0.4385,0.47,0.4923,0.4779,0.4445,0.4148,0.3188,0.2735,0.2692,0.2185,0.1872,0.1885,0.1885,0.1885,0.0,0.0,0.0,0.0,0.0,0.0,0.0,2.4593,2.3841,2.3698,2.4369,2.4462,2.2527,2.2928,2.2772,2.0675,2.0119,1.997,1.968,1.6852,1.4728,1.4179,1.1547,0.9883,1.0008,1.0019,1.0019,1.0019,1.0019,1.0019,1.0019,0.9553,0.9315,0.9283,0.8804,0.8552,0.8363,0.877,0.8894,0.8874,0.9163,0.9302,0.9302,0.9302,0.9302,0.9302,0.959,1.0587,1.2302,1.5017,1.616,1.6301,1.7861,1.8433,1.8433,1.8293,1.8153,1.8153,1.8012,1.759,1.6997,1.6668,1.5775,1.4771,1.4431,1.3696,1.3141,1.3108,1.3095,1.3227,1.3227,1.2955,1.2561,1.2561,1.1926,1.1301,1.1264,1.0686,1.0002,0.9975,0.9131,0.8436,0.8412,0.8156,0.7899,0.751,0.7266,0.6898,0.6648,0.6285,0.6039,0.6039,0.5916,0.5888,0.5814,0.5708,0.5643,0.5643,0.5557,0.5516,0.5533,0.5024,0.4658,0.4545,0.351,0.2964,0.2838,0.2307,0.1971,0.1977,0.1977,0.1977,3.5828,3.3241,3.088,2.9706,2.887,2.8519,0.0,2.7948,2.668,2.6667,2.697,2.6561,2.4104,2.4,2.3462,2.1121,2.0086,1.968,1.9541,1.759,1.5542,1.414,1.1489,0.9883,1.0008,1.0019,1.0019,1.0019,1.0019,1.0019,1.0019,0.9553,0.9542,0.9826,0.9413,0.9304,0.9478,0.9519,0.941,0.9302,0.9302,0.9302,0.9302,0.9302,0.9302,0.9446,1.0731,1.2158,1.3737,1.5443,1.616,1.6301,1.7861,1.8433,1.8293,1.759,1.7449,1.7308,1.6603,1.632,1.6178,1.5434,1.5141,1.4823,1.3941,1.3482,1.3303,1.3141,1.3883,1.4651,1.4651,1.5033,1.5424,1.5424,1.4884,1.4428,1.4244,1.302,1.1667,1.1262,0.9843,0.854,0.8176,0.816,0.7997,0.7888,0.7505,0.7388,0.7261,0.6771,0.6403,0.6403,0.6039,0.5912,0.5904,0.5745,0.5643,0.5643,0.5557,0.5545,0.5627,0.5578,0.5379,0.4783,0.4134,0.341,0.2765,0.2173,0.1949,0.1977,0.1977,0.1977,3.8986,3.7093,3.5214,3.3002,3.2549,3.2141,3.0207,2.9203,2.851,2.7869,2.8032,2.7482,2.5069,2.4701,2.377,2.078,1.9959,1.9541,1.9262,1.6715,1.4659,1.4115,1.1482,0.9709,0.9894,0.9911,0.9943,1.0014,1.0019,1.0019,1.0019,0.9864,0.9832,0.9916,0.9714,0.9596,0.9568,0.9514,0.9427,0.9302,0.9302,0.9302,0.9302,0.9302,0.9729,1.0731,1.3159,1.4583,1.5301,1.6866,1.7439,1.7439,1.7731,1.8012,1.8293,1.759,1.7308,1.7168,1.6461,1.5895,1.5603,1.616,1.6018,1.5717,1.6187,1.6292,1.6079,1.5586,1.5909,1.6236,1.5724,1.5684,1.5814,1.5694,1.5303,1.4884,1.4799,1.3904,1.29,1.2689,1.1703,1.0742,1.0671,1.0664,1.0635,1.0571,0.8628,0.719,0.7133,0.6846,0.6584,0.6399,0.6162,0.5896,0.5843,0.5814,0.5782,0.5729,0.5688,0.5566,0.5126,0.5163,0.4697,0.3615,0.3455,0.2979,0.2323,0.2097,0.1989,0.2001,0.2019,0.2027,4.056,3.9518,3.8542,3.5501,3.5248,3.493,3.1151,3.0294,3.0018,2.8737,2.8459,2.7671,2.5368,2.4738,2.3515,2.0527,1.982,1.9401,1.8982,1.6433,1.4357,1.405,1.1755,0.9957,0.972,0.9769,0.984,0.996,0.997,0.9987,1.0019,1.0019,0.9981,0.9889,0.9889,0.9775,0.9541,0.9536,0.9459,0.9302,0.9302,0.9302,0.9302,0.9729,1.1018,1.3016,1.5301,1.6442,1.6866,1.8012,1.8433,1.8293,1.759,1.759,1.8012,1.7017,1.6744,1.6885,1.632,1.5744,1.5593,1.7137,1.7278,1.6987,1.81,1.8218,1.8003,1.7423,1.7615,1.7774,1.688,1.6827,1.6936,1.6613,1.6343,1.6084,1.6084,1.5168,1.4281,1.4281,1.3268,1.2529,1.248,1.2471,1.2455,1.2406,1.0183,0.8436,0.7954,0.7255,0.6743,0.635,0.6068,0.5908,0.5892,0.5908,0.59,0.5859,0.5831,0.5589,0.4879,0.476,0.4157,0.2825,0.2888,0.2653,0.2001,0.2012,0.2023,0.2031,0.2045,0.206,3.9373,3.9188,3.9096,3.6001,3.6031,3.589,3.2422,3.1664,3.1188,2.957,2.8213,2.6753,2.5278,2.3774,2.2284,2.0388,1.9831,1.9401,1.9122,1.7288,1.5593,1.403,1.2452,1.0938,0.9634,0.9606,0.972,0.9835,0.9845,0.9894,1.0014,1.0019,1.0019,1.0014,1.0014,0.99,0.9666,0.9666,0.9541,0.9302,0.9302,0.9302,0.9302,1.0875,1.3159,1.6018,1.616,1.7017,1.8293,1.8433,1.8433,1.8293,1.759,1.7308,1.7168,1.5593,1.5603,1.6178,1.616,1.616,1.6291,1.7819,1.8379,1.8379,1.8379,1.8218,1.8046,1.7633,1.8417,1.9229,1.8456,1.9066,1.9788,1.9517,1.92,1.8944,1.8944,1.7367,1.5804,1.5804,1.4223,1.2726,1.2564,1.2532,1.2603,1.2422,1.2233,1.1673,1.0342,0.8357,0.6827,0.6289,0.6019,0.5986,0.6153,0.6014,0.5953,0.6039,0.5961,0.5579,0.5028,0.5032,0.4308,0.296,0.2964,0.2707,0.2061,0.2033,0.2034,0.2061,0.2033,0.2052,4.1284,4.1278,4.0958,3.7628,3.7336,3.6938,3.3008,3.2156,3.1503,2.9362,2.8567,2.741,2.451,2.3994,2.2795,1.9565,1.9438,1.8982,1.7429,1.5726,1.4164,1.2588,1.1018,0.9891,0.9362,0.9476,0.9595,0.9715,0.9796,0.9856,0.9894,0.9976,1.0019,1.0019,0.9943,0.9824,0.9671,0.959,0.9465,0.9302,1.0299,1.0875,1.0875,1.3444,1.5159,1.6301,1.7298,1.8002,1.8433,1.8433,1.8153,1.759,1.6885,1.6603,1.6461,1.5877,1.6301,1.6866,1.6301,1.6715,1.783,1.9367,1.9924,2.0063,2.1044,2.1121,2.0735,2.0303,2.0318,2.0466,1.9675,1.9747,1.998,1.9622,1.9334,1.9072,1.8828,1.8033,1.7249,1.7001,1.6213,1.5534,1.5465,1.5584,1.4909,1.2888,1.1479,1.0406,0.985,0.8138,0.6787,0.6567,0.6256,0.6092,0.6096,0.6092,0.608,0.6055,0.608,0.5597,0.4476,0.4391,0.3757,0.2451,0.2345,0.2334,0.2034,0.2044,0.2044,0.2034,0.2064,0.2101,4.3158,4.3011,4.2198,3.8925,3.8389,3.7606,3.3426,3.227,3.1537,2.9015,2.7832,2.6407,2.3833,2.2978,2.1857,1.9252,1.9175,1.8921,1.7409,1.5443,1.3729,1.2588,1.0593,0.9302,0.9302,0.9378,0.947,0.9595,0.9709,0.9796,0.9835,0.9954,1.0019,1.0019,0.99,0.978,0.9671,0.9546,0.9714,1.0161,1.1155,1.2158,1.3302,1.5301,1.6442,1.7017,1.8012,1.8433,1.8433,1.8153,1.7731,1.7168,1.6169,1.6169,1.6593,1.616,1.7137,1.8401,1.783,1.839,1.9367,2.0906,2.1471,2.1609,2.2585,2.2585,2.2134,2.1693,2.1356,2.1021,2.0221,2.0026,2.0001,1.9496,1.9352,1.9102,1.8711,1.8319,1.8046,1.7795,1.7456,1.7141,1.7141,1.7066,1.6343,1.4633,1.2208,1.0243,0.9009,0.7755,0.6895,0.6671,0.6352,0.6186,0.6194,0.6219,0.6219,0.6198,0.6247,0.5613,0.4288,0.4196,0.3535,0.2064,0.2072,0.2063,0.2035,0.2044,0.2054,0.2068,0.2108,0.2013,4.4733,4.4081,4.2963,3.9959,3.9216,3.7985,3.3446,3.2024,3.1108,2.8563,2.5999,2.3885,2.3083,2.1175,1.9562,1.9279,1.9323,1.9264,1.8916,1.6282,1.429,1.388,1.1162,0.9302,0.9302,0.9307,0.9362,0.9476,0.9601,0.9715,0.9824,0.9943,1.0014,1.0019,0.9894,0.9775,0.9671,0.9689,1.0286,1.1586,1.1729,1.3444,1.616,1.6301,1.7017,1.8433,1.8433,1.8433,1.8293,1.759,1.7308,1.7168,1.5735,1.6018,1.7137,1.6574,1.811,2.0629,2.0629,2.0768,2.0906,2.2435,2.2859,2.2859,2.2859,2.2585,2.2173,2.1897,2.1484,2.102,2.05,2.0291,2.0071,1.9405,1.9334,1.9201,1.8799,1.8541,1.8138,1.8138,1.7817,1.7389,1.7378,1.7184,1.6882,1.6872,1.4241,1.1219,0.8189,0.7568,0.7149,0.6577,0.63,0.6264,0.6439,0.6374,0.6362,0.6447,0.6451,0.5874,0.435,0.4347,0.3661,0.2063,0.2035,0.2035,0.2064,0.2038,0.2071,0.2157,0.2158,0.178,4.4858,4.4963,4.4547,4.0243,3.9216,3.7918,3.3093,3.1732,3.0512,2.7591,2.6185,2.4525,2.1524,2.1463,2.1074,1.8453,1.9142,1.9392,1.7959,1.5849,1.4006,1.2731,1.0587,0.9302,0.9302,0.9389,0.9454,0.9487,0.9601,0.9682,0.9709,0.9824,0.9927,1.0019,0.9818,0.9699,0.9671,1.062,1.1194,1.1586,1.3872,1.5443,1.6301,1.7298,1.8012,1.8433,1.8433,1.8433,1.8433,1.8153,1.7449,1.6603,1.7288,1.7137,1.6715,1.867,1.9935,2.0768,2.1885,2.2297,2.2448,2.2722,2.2859,2.2859,2.2585,2.2173,2.1897,2.1484,2.1081,2.0792,2.0581,2.0287,1.9847,1.964,1.9206,1.8799,1.8407,1.8272,1.8138,1.7857,1.7669,1.7583,1.741,1.6511,1.561,1.5453,1.3849,1.2274,1.1219,0.8817,0.7093,0.6849,0.6544,0.6402,0.6451,0.6431,0.6427,0.6451,0.639,0.5683,0.435,0.4174,0.3477,0.2031,0.2045,0.2056,0.2064,0.2102,0.2143,0.2189,0.2211,0.1822,4.499,4.4653,4.3888,4.0105,3.8326,3.634,3.207,3.0351,2.8763,2.5648,2.4488,2.3152,1.9968,2.0245,2.0346,1.8153,1.8829,1.9061,1.749,1.5694,1.3842,1.2114,1.039,0.9383,0.9383,0.9449,0.9508,0.9563,0.9677,0.9742,0.9742,0.9856,0.9949,1.0019,0.984,0.9988,1.0619,1.1273,1.2302,1.3587,1.5301,1.6583,1.7157,1.8012,1.8433,1.8433,1.8433,1.8433,1.8433,1.8422,1.7861,1.7298,1.8121,1.8261,1.825,1.9935,2.1044,2.1747,2.2448,2.2585,2.2585,2.2585,2.2585,2.231,2.2173,2.176,2.1484,2.1207,2.0804,2.0388,2.0388,2.0004,1.9623,1.9485,1.9095,1.872,1.8309,1.8309,1.815,1.7906,1.7884,1.7809,1.7572,1.684,1.6255,1.6135,1.4911,1.3811,1.3195,1.0199,0.7912,0.7512,0.6853,0.6455,0.6455,0.6455,0.6435,0.6394,0.6345,0.5777,0.4698,0.4299,0.363,0.2573,0.2218,0.211,0.2124,0.2158,0.2198,0.224,0.2258,0.1853,4.4838,4.35,4.1889,3.9405,3.6925,3.4093,3.0644,2.8459,2.6442,2.3531,2.2215,2.0897,1.8543,1.8603,1.8789,1.7921,1.8242,1.834,1.7572,1.5561,1.3688,1.2074,1.0498,0.9481,0.9465,0.9492,0.9557,0.9661,0.9791,0.9856,0.984,0.9938,0.9998,0.9998,1.0042,1.0637,1.1877,1.2156,1.3642,1.6197,1.651,1.7208,1.8433,1.8466,1.8466,1.8433,1.8433,1.8293,1.8293,1.8282,1.8272,1.8272,1.853,1.9367,2.0629,2.0768,2.1747,2.2859,2.2448,2.231,2.2173,2.2173,2.2035,2.176,2.176,2.1484,2.1207,2.1069,2.0527,2.011,2.011,1.9831,1.9401,1.9122,1.8982,1.8854,1.8433,1.8433,1.8379,1.8175,1.8142,1.8067,1.7809,1.7766,1.7755,1.7723,1.6631,1.5334,1.4486,1.1747,0.9522,0.8446,0.7383,0.6719,0.6719,0.6598,0.6439,0.6357,0.6353,0.6054,0.5328,0.4729,0.3963,0.3169,0.268,0.2312,0.2206,0.221,0.2241,0.2296,0.2297,0.2022,4.3271,4.2202,4.0473,3.7221,3.5359,3.3244,2.9329,2.6939,2.4945,2.265,2.1548,2.0351,1.7908,1.8426,1.8906,1.7769,1.7222,1.7191,1.7648,1.4888,1.2482,1.2065,1.0584,0.9449,0.9345,0.9519,0.965,0.9666,0.9867,0.9943,0.9845,0.9856,0.9867,0.9867,1.1213,1.1927,1.2182,1.4687,1.6131,1.6405,1.7908,1.8534,1.8444,1.8638,1.8616,1.8433,1.8433,1.8012,1.7449,1.7449,1.7439,1.7559,1.8809,1.9785,2.0768,2.2022,2.2722,2.2859,2.2448,2.2173,2.1897,2.1897,2.1897,2.176,2.1346,2.1207,2.1081,2.0527,2.0249,1.997,1.9831,1.9401,1.9122,1.8982,1.8714,1.8433,1.8433,1.8433,1.8422,1.8379,1.8379,1.8304,1.8067,1.8024,1.7959,1.7755,1.6902,1.6215,1.5362,1.2871,1.0833,0.9921,0.8579,0.7779,0.7779,0.7057,0.6562,0.6545,0.6541,0.6262,0.5566,0.5386,0.469,0.335,0.3261,0.2895,0.2237,0.2263,0.2293,0.2326,0.2327,0.2186,4.2202,4.0544,3.8535,3.6396,3.4039,3.1347,2.7937,2.5469,2.3191,2.0967,1.9861,1.871,1.6654,1.7077,1.7437,1.6549,1.6328,1.6188,1.5819,1.4073,1.2352,1.0932,1.0185,0.9622,0.9503,0.9601,0.9693,0.9753,0.9862,0.9927,0.9932,0.9932,0.9932,0.9932,1.0632,1.1802,1.3461,1.4935,1.6131,1.7214,1.8508,1.8528,1.7338,1.8001,1.7909,1.7319,1.7278,1.7126,1.6744,1.7157,1.771,1.853,1.9646,2.0768,2.1885,2.2448,2.2691,2.2684,2.2115,2.1837,2.1697,2.143,2.1331,2.122,2.0943,2.0804,2.0527,2.0249,1.9831,1.9552,1.9262,1.8982,1.8714,1.8714,1.8573,1.8433,1.8433,1.8433,1.8433,1.8433,1.8433,1.8401,1.8293,1.8272,1.809,1.7558,1.7123,1.653,1.5321,1.3976,1.2749,1.1233,0.9307,0.8224,0.8224,0.7319,0.6639,0.6594,0.659,0.6453,0.6176,0.5358,0.4549,0.3889,0.3237,0.2702,0.229,0.2305,0.2319,0.2333,0.2334,0.2043,4.0961,3.8839,3.6703,3.5581,3.2974,2.9732,2.694,2.4156,2.161,1.959,1.8324,1.7141,1.5826,1.5787,1.5897,1.572,1.5716,1.5515,1.46,1.3612,1.2273,1.0328,0.986,0.9726,0.9639,0.9628,0.9666,0.9758,0.9807,0.9889,1.0014,1.033,1.033,1.0019,1.0998,1.2457,1.4573,1.5043,1.6147,1.8047,1.8539,1.7966,1.6547,1.7351,1.7243,1.632,1.6481,1.629,1.6102,1.6651,1.7913,1.9447,1.9866,2.1306,2.2921,2.2493,2.251,2.2576,2.1845,2.1703,2.1562,2.129,2.0931,2.0665,2.0665,2.0388,2.011,1.997,1.9552,1.8993,1.8854,1.8573,1.8433,1.8433,1.8433,1.8433,1.8433,1.8433,1.8433,1.8433,1.8433,1.8433,1.8433,1.8433,1.8153,1.7449,1.7168,1.6545,1.4973,1.4675,1.3916,1.2109,0.9944,0.866,0.8526,0.7436,0.6721,0.6651,0.6664,0.6676,0.6676,0.5337,0.4684,0.4591,0.319,0.2478,0.2333,0.2333,0.2333,0.2333,0.2333,0.1896,3.9451,3.755,3.5294,3.4278,3.1836,2.9146,2.6811,2.3538,2.0686,1.9436,1.7928,1.6635,1.6242,1.5645,1.5544,1.6454,0.0,1.5084,1.6171,1.3768,1.1914,1.167,1.0387,0.9514,0.9503,0.9503,0.9508,0.9519,0.9715,0.9889,1.0014,1.1405,1.156,1.0019,1.4314,1.6142,1.4919,1.7037,1.816,1.8269,1.7718,1.7292,1.6627,1.6982,1.6953,1.6599,1.6618,1.6214,1.5443,1.5443,1.6865,1.8845,1.856,2.0425,2.3119,2.2678,2.2561,2.2586,2.2144,2.2001,2.1857,2.1582,2.1088,2.0665,2.0665,2.0388,1.997,1.968,1.9262,1.8854,1.8573,1.8433,1.8433,1.8433,1.8433,1.8433,1.8433,1.8433,1.8433,1.8433,1.8433,1.8433,1.8433,1.8433,1.8153,1.7449,1.6744,1.6028,1.515,1.4441,1.3587,1.228,1.0754,0.9486,0.8382,0.7495,0.6839,0.6831,0.6909,0.6954,0.6954,0.6091,0.5373,0.4657,0.3789,0.3063,0.2333,0.2333,0.2333,0.2333,0.2335,0.1898,3.8111,3.6724,3.5046,3.3398,3.1488,2.9125,2.6109,2.3236,2.0805,1.9453,1.7459,1.5944,1.5965,1.4807,1.4251,0.0,0.0,0.0,1.4348,1.3589,1.2523,1.1094,1.0887,1.0363,0.9634,0.9487,0.9519,0.959,0.9748,1.0349,1.1399,1.2179,1.2635,1.2944,1.4944,1.6015,1.633,1.694,1.736,1.7737,1.7521,1.6802,1.5501,1.6286,1.6055,1.5328,1.5449,1.524,1.4767,1.4482,1.5483,1.7214,1.7794,1.9448,2.1438,2.2038,2.2294,2.2431,2.1861,2.157,2.157,2.112,2.0729,2.0402,2.0533,2.0099,1.9413,1.9262,1.8993,1.8573,1.8433,1.8433,1.8433,1.8433,1.8433,1.8433,1.8433,1.8433,1.8433,1.8433,1.8433,1.8433,1.8433,1.8433,1.8153,1.7449,1.6603,1.5895,1.5168,1.4324,1.3182,1.1312,1.0637,0.9717,0.8581,0.763,0.6933,0.6933,0.697,0.699,0.699,0.5825,0.4956,0.4665,0.35,0.2624,0.2333,0.2333,0.2333,0.2333,0.2335,0.1898,3.6394,3.5516,3.4113,3.2612,3.0823,2.87,2.5763,2.3099,2.0857,1.9453,1.7207,1.5526,1.5849,1.4435,1.3519,0.0,0.0,1.4249,1.4106,1.4182,1.3483,1.1461,1.1369,1.0938,0.9573,0.9432,0.9497,0.9661,0.9742,1.0615,1.2783,1.2797,1.3406,1.4483,1.525,1.6024,1.6644,1.6339,1.6492,1.7102,1.6797,1.5963,1.4789,1.5514,1.543,1.4594,1.4581,1.4533,1.4215,1.3925,1.4654,1.6111,1.6849,1.835,2.0331,2.095,2.1666,2.2129,2.139,2.1254,2.1242,2.0946,2.0614,2.0229,2.0347,1.9776,1.9082,1.9005,1.8714,1.8293,1.7861,1.8012,1.8433,1.8433,1.8433,1.8433,1.8433,1.8433,1.8433,1.8433,1.8433,1.8433,1.8433,1.8433,1.8153,1.7449,1.6603,1.5895,1.5168,1.4039,1.261,1.0593,1.0161,0.9441,0.8285,0.7421,0.699,0.699,0.699,0.699,0.699,0.5538,0.4665,0.4665,0.3061,0.2333,0.2333,0.2333,0.2333,0.2333,0.2335,0.073,3.4295,3.3414,3.2289,3.1872,2.9907,2.7585,2.6118,2.3302,2.0566,1.9418,1.7207,1.5584,1.6126,1.4757,1.3857,1.4932,0.0,0.0,1.6355,1.5603,1.4454,1.3254,1.1971,1.0569,0.9424,0.9307,0.9405,0.965,0.9671,1.083,1.3553,1.3722,1.3722,1.3722,1.6024,1.6644,1.4968,1.588,1.6186,1.6186,1.542,1.4968,1.496,1.496,1.496,1.496,1.4507,1.4259,1.4096,1.3642,1.4374,1.5861,1.5419,1.734,2.0252,1.951,2.0285,2.166,2.121,2.106,2.106,2.106,2.059,2.0081,2.0081,1.9737,1.9315,1.906,1.8714,1.8012,1.6583,1.7298,1.8433,1.8433,1.8433,1.8433,1.8433,1.8433,1.8433,1.8433,1.8433,1.8433,1.8433,1.8433,1.8153,1.7449,1.6603,1.5895,1.5168,1.3317,1.1743,1.0593,0.9441,0.8285,0.7135,0.699,0.699,0.699,0.699,0.699,0.699,0.5538,0.4665,0.4665,0.3061,0.2333,0.2333,0.2333,0.2333,0.2333,0.2335,-0.1898,3.0797,3.0626,3.0268,2.9146,2.7893,2.6316,2.4386,2.2322,2.0365,1.8584,1.6769,1.5343,1.4984,1.418,1.393,1.5173,1.5386,0.0,1.616,1.5411,1.4208,1.2636,1.0862,0.9787,0.9296,0.9302,0.9372,0.9536,0.925,1.0053,1.2162,1.2182,1.3483,1.6168,1.694,1.7102,1.6644,1.6339,1.6186,1.6186,1.542,1.4968,1.4968,1.4968,1.4814,1.4515,1.4515,1.4176,1.3815,1.3355,1.3501,1.4107,1.5776,1.7028,1.8148,1.9833,2.0759,2.121,2.0759,2.0748,2.0597,2.0307,2.0102,1.9704,1.833,1.7673,1.7142,1.5923,1.6866,1.8012,1.6583,1.6583,1.7157,1.8153,1.758,1.7157,1.8153,1.8433,1.8433,1.8433,1.8433,1.8433,1.8433,1.8433,1.8293,1.8153,1.7026,1.6037,1.5895,1.3745,1.1749,1.0593,0.9441,0.8285,0.7135,0.699,0.699,0.699,0.6551,0.6119,0.6119,0.4665,0.3937,0.3937,0.277,0.2333,0.2333,0.2333,0.2333,0.2187,0.0146,-0.2773,2.7371,2.792,2.7985,2.6757,2.5913,2.4916,2.3049,2.1235,1.9555,1.8081,1.6244,1.4811,1.4416,1.385,1.3701,1.4727,1.4891,1.5128,1.5772,1.5052,1.387,1.201,1.0228,0.9242,0.9242,0.928,0.9356,0.9329,0.9045,0.9536,1.0685,1.1294,1.2721,1.5496,1.6188,1.642,1.6492,1.6033,1.5727,1.5727,1.5267,1.4968,1.4968,1.4814,1.4669,1.4361,1.4053,1.3744,0.0,1.2965,1.2811,1.2811,1.4952,1.6168,1.6779,1.9077,2.0307,2.0759,2.0447,2.0296,2.0145,1.9229,1.8471,1.7654,1.578,1.5354,1.5386,1.4397,1.5758,1.741,1.6558,1.6642,1.7298,1.8153,1.7721,1.7298,1.8153,1.8433,1.8433,1.8433,1.8433,1.8433,1.8433,1.8153,1.8012,1.8012,1.6734,1.5753,1.5753,1.3603,1.1749,1.0593,0.9441,0.8285,0.7135,0.699,0.699,0.699,0.6555,0.6261,0.6261,0.481,0.3937,0.3937,0.2915,0.2333,0.2333,0.2333,0.175,0.0874,-0.1312,-0.3791,0.0,2.5058,2.5218,2.4522,2.3793,2.2961,2.1909,1.9882,0.0,1.7692,1.5633,1.405,1.4282,1.3661,1.335,1.3954,1.4205,1.4595,1.5285,1.4606,1.3291,1.1221,0.9912,0.915,0.915,0.9242,0.9205,0.8877,0.8887,0.9076,0.9473,1.0673,1.1722,1.2473,1.3829,1.4597,1.4927,1.4944,1.4944,1.4952,1.496,1.4968,1.4968,1.4515,1.4361,1.4207,1.3436,1.312,1.2965,1.2656,1.2192,1.2037,1.3729,1.5105,1.6321,1.7711,1.9088,2.0447,1.9844,1.9693,1.939,1.7711,1.6015,1.4452,1.2768,1.3214,1.4268,1.412,1.5018,1.6183,1.6337,1.7196,1.8174,1.8314,1.8304,1.8293,1.8433,1.8433,1.8433,1.8433,1.8433,1.8433,1.8293,1.7731,1.7308,1.7168,1.5886,1.5026,1.5026,1.3317,1.1599,1.0449,0.9296,0.814,0.7135,0.699,0.699,0.699,0.6845,0.6845,0.6845,0.5389,0.4519,0.4519,0.3061,0.2333,0.2333,0.2333,0.102,-0.1458,-0.2042,-0.4805,1.7834,0.0,2.0271,1.9999,1.9645,1.9197,0.0,1.7675,1.6639,1.5604,1.4638,1.3946,1.3773,1.3501,1.3764,1.4891,1.5232,1.5523,1.6105,1.4392,1.2239,1.0013,0.9385,0.9264,0.9264,0.9291,0.9173,0.8765,0.8479,0.8198,0.8071,0.8941,0.9854,1.1129,1.2346,1.3481,1.4554,1.47,1.4765,1.4773,1.4605,1.4515,1.4515,1.4053,1.3744,1.3428,1.312,1.2965,1.2656,1.2192,1.2037,1.2192,1.4337,1.5412,1.6024,1.8471,1.9693,1.9844,1.8471,1.8016,1.7711,1.6015,1.433,1.2937,1.2594,1.3384,1.3979,1.1476,1.2755,1.4784,1.4784,1.4941,1.5659,1.8122,1.7703,1.7017,1.8153,1.8433,1.8433,1.8433,1.8433,1.8153,1.759,1.7449,1.7168,1.6603,1.5603,1.5026,1.5026,1.2602,1.0737,1.0449,0.8574,0.7276,0.699,0.699,0.699,0.699,0.5829,0.5247,0.5247,0.3644,0.2915,0.2915,0.2478,0.2333,0.2333,0.2333,0.102,-0.1457,-0.2613,-0.5509,1.377,1.6142,1.8429,1.8267,1.8104,1.7882,1.7478,1.6516,1.5472,1.4696,1.3999,1.342,1.3343,1.3532,1.392,1.4601,1.5279,1.5817,1.5897,1.4235,1.2481,1.0556,0.9735,0.9302,0.9302,0.9302,0.9018,0.844,0.815,0.786,0.7421,0.8719,0.9757,1.0553,1.2149,1.3582,1.4432,1.4529,1.4578,1.4586,1.4231,1.4127,1.4119,1.3521,1.3065,1.2906,1.2761,1.2491,1.2099,1.1946,1.2132,1.2649,1.4798,1.5871,1.6635,1.9077,1.9844,1.9693,1.8016,1.6483,1.4944,1.4022,1.2635,1.1256,1.1101,1.1811,1.2498,1.2119,1.3244,1.4819,1.6323,1.6618,1.6875,1.837,1.8112,1.7561,1.8314,1.8433,1.8293,1.8012,1.7872,1.759,1.6885,1.6461,1.6169,1.5744,1.5035,1.4466,1.4466,1.3031,1.1599,1.0449,0.9296,0.8145,0.7135,0.699,0.699,0.699,0.5829,0.5244,0.5244,0.3644,0.2624,0.2333,0.2333,0.2333,0.2333,0.1457,-0.0291,-0.2478,-0.4206,-0.6665,1.111,1.4276,1.7288,1.7049,1.7241,1.7213,1.664,1.5486,1.4388,1.4388,1.351,1.294,1.3213,1.3797,1.4172,1.4126,1.5128,1.5682,1.5067,1.4087,1.2935,1.1422,1.0161,0.9302,0.9302,0.9302,0.9018,0.815,0.8295,0.8005,0.7276,0.9296,1.0455,1.0743,1.261,1.3898,1.4343,1.4375,1.4391,1.4244,1.3972,1.3839,1.369,1.2955,1.2664,1.2657,1.221,1.1985,1.165,1.1821,1.2352,1.3223,1.5089,1.6483,1.7559,1.9239,1.9693,1.9229,1.7245,1.4637,1.2179,1.2179,1.1101,0.9864,0.9553,0.9558,1.048,1.3714,1.4525,1.501,1.834,1.8927,1.8706,1.8795,1.8688,1.8724,1.8248,1.8314,1.8153,1.7308,1.7168,1.7026,1.6178,1.5461,1.5026,1.4884,1.4324,1.3904,1.3904,1.3761,1.2753,1.0593,1.0305,0.9296,0.7135,0.699,0.699,0.699,0.6116,0.5535,0.5244,0.4083,0.3063,0.2333,0.2333,0.2333,0.2333,0.0291,-0.1603,-0.3787,-0.5706,-0.7778,0.9776,1.1067,1.2621,1.3065,1.4159,1.4863,1.3389,1.3401,1.3627,1.3357,1.3321,1.3525,1.4039,1.4695,1.5279,1.5447,1.5865,1.5638,1.4209,1.3593,1.2395,0.9988,0.9446,0.9302,0.9302,0.9302,0.9018,0.815,0.9013,0.9302,0.843,0.9729,1.0881,1.1893,1.2323,1.2919,1.3985,1.414,1.4067,1.3775,1.3481,1.3103,1.2806,1.2359,1.221,1.221,1.206,1.1925,1.1652,1.2821,1.3188,1.3217,1.5955,1.7255,1.7559,1.9239,1.8936,1.7398,1.433,1.2024,1.0325,1.0325,1.0019,0.9558,0.9402,0.9246,0.9553,1.2488,1.3084,1.3524,1.6894,1.749,1.7476,1.8198,1.8643,1.8481,1.7008,1.7572,1.8012,1.6603,1.6885,1.6885,1.5461,1.5026,1.475,1.4181,1.3904,1.3904,1.3904,1.3039,1.1886,1.0599,0.9585,0.843,0.7135,0.699,0.699,0.699,0.5683,0.4226,0.2915,0.2624,0.2478,0.2333,0.2333,0.2333,0.2333,0.0291,-0.1744,-0.3622,-0.5751,-0.7877,0.885,0.9757,1.0681,1.0697,1.2023,1.3091,1.2362,1.2253,1.2402,1.2802,1.2997,1.3478,1.4721,1.5577,1.6369,1.7086,1.7019,1.6426,1.5045,1.4198,1.2848,1.0718,0.9873,0.9302,0.9302,1.0017,1.0161,0.9157,1.0305,1.0731,0.9729,1.0737,1.1606,1.218,1.2753,1.3325,1.3611,1.3698,1.3594,1.345,1.2954,1.2554,1.2408,1.1969,1.1823,1.1823,1.1823,1.201,1.2227,1.2882,1.3847,1.5142,1.6542,1.7689,1.8611,1.8582,1.6931,1.4483,1.2944,1.2024,1.1405,1.1405,1.156,1.1714,1.1405,1.1101,1.1256,1.3252,1.3252,1.356,1.6635,1.7635,1.783,1.7722,1.8138,1.8102,1.6816,1.6913,1.7053,1.591,1.5969,1.5781,1.4745,1.4618,1.4508,1.4172,1.4188,1.4156,1.4066,1.3617,1.2561,1.0606,0.9873,0.8863,0.7135,0.699,0.67,0.5825,0.5101,0.3935,0.2333,0.2333,0.2333,0.2333,0.2333,0.2365,0.2431,-0.0759,-0.2727,-0.3767,-0.6949,-0.8915,0.8238,0.8973,0.945,0.9322,1.0732,1.2008,1.1863,1.1702,1.1773,1.2876,1.3118,1.3656,1.5344,1.624,1.719,1.8431,1.7697,1.6726,1.5649,1.4263,1.2731,1.1299,0.9873,0.9302,0.959,1.0593,1.0875,1.0167,1.1449,1.1879,1.0881,1.1893,1.261,1.261,1.3468,1.3753,1.3325,1.3182,1.3182,1.3039,1.2481,1.2194,1.2051,1.1763,1.1763,1.2187,1.2043,1.2532,1.3359,1.3688,1.495,1.6727,1.7279,1.817,1.8849,1.7341,1.525,1.2944,1.2635,1.279,1.3098,1.2797,1.3105,1.3414,1.2951,1.2494,1.2494,1.3714,1.356,1.3714,1.6635,1.7864,1.8128,1.7058,1.7433,1.7654,1.6462,1.6415,1.6257,1.525,1.5128,1.4932,1.4359,1.4237,1.4278,1.4416,1.4432,1.4383,1.4253,1.4205,1.3245,1.08,1.0468,0.9441,0.7135,0.7011,0.6428,0.4808,0.4662,0.3935,0.2333,0.2333,0.2333,0.2333,0.2361,0.227,0.2043,-0.1571,-0.3603,-0.4362,-0.7963,-0.9703,0.8337,0.8316,0.8275,0.8845,1.0502,1.1838,1.1134,1.1561,1.243,1.3929,1.452,1.4991,1.5966,1.6841,1.7703,1.865,1.7358,1.5812,1.4673,1.2851,1.1155,0.959,0.9013,0.9157,1.0311,1.0167,1.0311,1.0881,1.2036,1.261,1.2036,1.3182,1.3761,1.3761,1.3904,1.3753,1.3325,1.3039,1.2617,1.2338,1.2194,1.2051,1.1619,1.1619,1.233,1.3737,1.3317,1.3753,1.4901,1.6234,1.6616,1.6663,1.857,1.8571,1.7379,1.5701,1.4944,1.4483,1.2944,1.3406,1.4637,1.3876,1.3414,1.2951,1.2185,1.1721,1.1714,1.2797,1.3105,1.3714,1.6635,1.7407,1.7245,1.6474,1.6784,1.6805,1.5144,1.5886,1.6186,1.4712,1.4999,1.5294,1.4564,1.4416,1.4416,1.4432,1.4432,1.4424,1.4416,1.4278,1.329,1.0925,1.0523,0.9441,0.7135,0.7068,0.6341,0.4808,0.4657,0.4078,0.2478,0.2333,0.2333,0.2333,0.2444,0.1878,0.0785,-0.1571,-0.3603,-0.5456,-0.7808,-0.9231,0.7848,0.7916,0.8195,0.9338,1.0437,1.1101,1.0332,1.1871,1.3442,1.3955,1.5067,1.6323,1.7213,1.6937,1.6676,1.6985,1.5737,1.4307,1.2866,1.2008,1.1442,1.0731,1.0161,1.0305,1.1736,1.2166,1.2309,1.218,1.3317,1.3888,1.3325,1.3611,1.3904,1.3904,1.3904,1.3611,1.3039,1.2896,1.2896,1.3325,1.3325,1.3174,1.3031,1.3031,1.3745,1.4875,1.3745,1.4315,1.616,1.6671,1.7136,1.7755,1.8799,1.8458,1.7255,1.6635,1.5863,1.479,1.4176,1.5097,1.633,1.5565,1.5565,1.5565,1.4798,1.4184,1.3722,1.4191,1.4345,1.4499,1.5573,1.6339,1.6492,1.5573,1.5981,1.6232,1.5176,1.5177,1.5351,1.4752,1.4662,1.477,1.4586,1.4603,1.4643,1.4749,1.4765,1.4724,1.4619,1.4546,1.3565,1.1076,0.9398,0.8021,0.708,0.7121,0.6541,0.4881,0.473,0.4123,0.248,0.2478,0.2516,0.2444,0.2491,0.1886,0.0628,-0.1413,-0.3292,-0.4852,-0.7033,-0.8439,0.7678,0.7807,0.8322,0.9847,1.0551,1.0932,1.1217,1.2785,1.4413,1.4922,1.6156,1.7239,1.79,1.7166,1.6476,1.6476,1.5459,1.4164,1.2873,1.2302,1.1872,1.1592,1.1025,1.1168,1.2595,1.3167,1.3317,1.3182,1.4039,1.4466,1.3904,1.3904,1.3904,1.3904,1.3761,1.3611,1.3468,1.3317,1.3745,1.4583,1.515,1.5008,1.4583,1.4449,1.515,1.6282,1.4884,1.5593,1.7439,1.7298,1.7772,1.8584,1.8993,1.8346,1.7303,1.7379,1.6635,1.571,1.571,1.6788,1.8016,1.695,1.695,1.7255,1.6186,1.542,1.4968,1.4968,1.4968,1.4968,1.4968,1.542,1.5727,1.5122,1.542,1.5727,1.5122,1.4871,1.4789,1.4789,1.4684,1.4643,1.4765,1.4789,1.483,1.4952,1.4968,1.4919,1.4806,1.4741,1.3725,1.1164,0.9055,0.7677,0.7145,0.734,0.6742,0.5333,0.4957,0.4195,0.2481,0.2517,0.2429,0.2512,0.2043,0.1256,-0.0,-0.1881,-0.3448,-0.5019,-0.6733,-0.7825,0.7929,0.8031,0.8749,1.0428,1.0929,1.1695,1.3861,1.443,1.5091,1.6984,1.769,1.7895,1.7895,1.7828,1.7723,1.7723,1.6857,1.5877,1.5168,1.3737,1.2452,1.1743,1.1312,1.1462,1.2753,1.2466,1.2753,1.3753,1.3904,1.3904,1.3904,1.3904,1.3904,1.3896,1.3468,1.3896,1.5026,1.46,1.5008,1.6131,1.77,1.7549,1.6131,1.5717,1.6423,1.783,1.7007,1.758,1.8982,1.8573,1.8573,1.881,1.9058,1.8244,1.7105,1.7322,1.7398,1.7398,1.7398,1.8471,1.9693,1.8016,1.7407,1.7093,1.542,1.4968,1.4968,1.4968,1.4968,1.4968,1.4968,1.4968,1.4968,1.4968,1.4968,1.4968,1.4968,1.4968,1.4968,1.4968,1.4968,1.4968,1.4968,1.4968,1.4968,1.4968,1.4968,1.4968,1.4968,1.4814,1.3732,1.1164,0.981,0.8581,0.7472,0.7431,0.7093,0.6126,0.5334,0.4292,0.2632,0.245,0.2514,0.2514,0.1256,-0.0,-0.1257,-0.251,-0.4234,-0.6281,-0.7072,-0.7546,0.7597,0.7801,0.8477,1.0032,1.1005,1.2184,1.3731,1.5135,1.6612,1.8545,1.849,1.809,1.8173,1.7245,1.6245,1.6099,1.5181,1.4449,1.4307,1.388,1.3595,1.403,1.3452,1.3309,1.4315,1.3753,1.3468,1.3896,1.3904,1.3904,1.3904,1.3904,1.4324,1.5452,1.5035,1.5452,1.6564,1.6282,1.6564,1.77,1.8121,1.7981,1.7268,1.7127,1.77,1.8552,1.7288,1.7439,1.8573,1.8433,1.8573,1.881,1.9058,1.899,1.8767,1.8994,1.9239,1.9239,1.9239,1.9542,1.9693,1.8623,1.7854,1.7255,1.6186,1.542,1.4968,1.4968,1.4968,1.4968,1.4968,1.4968,1.4968,1.4968,1.4968,1.4968,1.4968,1.4968,1.4968,1.4968,1.4968,1.4968,1.4968,1.4968,1.4968,1.4968,1.4968,1.4968,1.4968,1.4145,1.2977,1.1157,1.0009,0.8779,0.7452,0.7403,0.6818,0.5367,0.5122,0.4515,0.3387,0.2808,0.2514,0.2514,0.1256,-0.0,-0.1254,-0.2508,-0.392,-0.5335,-0.5651,-0.6111,0.7773,0.814,0.8976,1.0556,1.1256,1.1849,1.3226,1.5217,1.7066,1.8175,1.8239,1.8215,1.8287,1.7485,1.6668,1.6619,1.6129,1.5452,1.4884,1.4742,1.4742,1.4608,1.4173,1.403,1.4466,1.4181,1.3904,1.3904,1.3904,1.3904,1.3904,1.4466,1.5168,1.6009,1.615,1.6856,1.811,1.7689,1.7981,1.9251,1.9251,1.9111,1.8681,1.8541,1.8692,1.8993,1.7861,1.7721,1.8433,1.8433,1.8519,1.867,1.8907,1.9155,1.9391,1.9628,1.9768,1.9844,1.9844,1.9844,1.9693,1.8926,1.8319,1.7711,1.6492,1.588,1.542,1.5122,1.4968,1.4968,1.4968,1.5267,1.542,1.5122,1.4968,1.4968,1.4968,1.4968,1.4968,1.4968,1.4968,1.4968,1.4968,1.4968,1.4968,1.4968,1.4968,1.4968,1.4968,1.4345,1.3223,1.1293,1.0583,0.9351,0.7577,0.7484,0.6896,0.5636,0.517,0.4709,0.3774,0.2987,0.2514,0.2514,0.0785,-0.0471,-0.1253,-0.2978,-0.4234,-0.5022,-0.5335,-0.5642,0.8228,0.8771,0.9799,1.1508,1.1305,1.0928,1.2186,1.4583,1.6423,1.6564,1.7416,1.8186,1.8401,1.8261,1.8196,1.8401,1.8433,1.7872,1.6461,1.632,1.5753,1.4181,1.4039,1.3904,1.3904,1.3904,1.3896,1.4039,1.4039,1.4181,1.4324,1.5584,1.6291,1.6433,1.7127,1.825,1.9669,1.8971,1.9251,2.0665,2.0665,2.0527,2.011,1.968,1.9401,1.8854,1.8573,1.8433,1.8433,1.8433,1.8433,1.8455,1.8692,1.8918,1.9144,1.9402,1.9628,1.9822,1.9844,1.9844,1.9844,1.8926,1.8623,1.8319,1.6797,1.6339,1.6033,1.5267,1.5122,1.4968,1.4968,1.5573,1.6033,1.5267,1.5122,1.5122,1.4968,1.4968,1.4968,1.4968,1.4968,1.4968,1.4968,1.4968,1.4968,1.4968,1.4968,1.4968,1.4968,1.4968,1.3876,1.1553,1.125,1.0164,0.7681,0.7525,0.7053,0.6264,0.5498,0.4562,0.3774,0.2987,0.2514,0.2357,-0.0,-0.1413,-0.141,-0.392,-0.5022,-0.5022,-0.5808,-0.5808,0.7882,0.8459,0.9198,1.0243,1.0386,1.0467,1.0836,1.2738,1.4875,1.6009,1.7398,1.8379,1.8422,1.839,1.8379,1.8422,1.8433,1.8153,1.7168,1.7026,1.6461,1.4884,1.4742,1.4608,1.3896,1.3904,1.4324,1.5593,1.5593,1.615,1.7409,1.7689,1.839,1.9239,1.91,1.9669,2.0792,2.0376,2.0388,2.0665,2.0665,2.0527,2.011,1.968,1.9262,1.8573,1.8433,1.8433,1.8433,1.8433,1.8433,1.8455,1.8692,1.881,1.8918,1.9338,1.9531,1.9596,1.9779,1.9844,1.9844,1.9693,1.9229,1.8471,1.8168,1.7255,1.6186,1.6033,1.542,1.4968,1.4968,1.5573,1.6186,1.6033,1.588,1.5727,1.5122,1.4968,1.4968,1.4968,1.4968,1.4968,1.4968,1.4968,1.4968,1.4968,1.4968,1.4968,1.4968,1.4191,1.2951,1.1399,1.0474,0.9231,0.7681,0.7525,0.6893,0.5321,0.5181,0.4405,0.2829,0.2671,0.2043,0.1099,-0.0471,-0.1727,-0.2664,-0.4234,-0.5022,-0.5022,-0.5179,-0.5179,0.7811,0.8308,0.9,0.9845,1.0085,1.0227,1.1155,1.2602,1.4307,1.5877,1.7439,1.8433,1.8433,1.8153,1.7872,1.7872,1.759,1.7026,1.631,1.6169,1.5744,1.4608,1.4466,1.4324,1.3904,1.4608,1.5168,1.5877,1.6715,1.7409,1.811,1.8949,1.9785,2.0352,2.0383,2.0796,2.1484,2.082,2.0545,2.0665,2.0665,2.0527,2.011,1.9552,1.9122,1.8714,1.8433,1.8433,1.8433,1.8433,1.8433,1.8444,1.8573,1.8681,1.881,1.9068,1.923,1.9348,1.9478,1.9585,1.9682,1.9682,1.9457,1.9077,1.8774,1.7711,1.6797,1.6797,1.6492,1.6186,1.6644,1.7692,1.8592,1.755,1.7102,1.6492,1.5727,1.5573,1.542,1.5122,1.4968,1.4968,1.4968,1.4968,1.4968,1.4968,1.4968,1.4968,1.4968,1.4345,1.3259,1.1553,1.0779,0.9542,0.7681,0.7525,0.6736,0.5165,0.5019,0.4243,0.2514,0.2514,0.1886,0.0628,-0.0628,-0.1882,-0.3135,-0.439,-0.5022,-0.5022,-0.5022,-0.5492,0.7583,0.8272,0.8983,0.9734,1.0168,1.0531,1.1844,1.327,1.4548,1.5726,1.7157,1.8153,1.8153,1.759,1.7168,1.7168,1.6603,1.5895,1.5168,1.5026,1.4742,1.4047,1.4181,1.4324,1.4324,1.5584,1.6423,1.6394,1.7778,1.8582,1.8411,1.9933,2.0634,2.0634,2.0984,2.1255,2.1483,2.0637,2.0388,2.0605,2.0641,2.0527,2.0121,1.9413,1.9133,1.8993,1.8573,1.8433,1.8433,1.8433,1.8433,1.8433,1.8433,1.8552,1.8724,1.8767,1.8918,1.909,1.9133,1.9273,1.9435,1.9435,1.9596,1.979,1.9166,1.8582,1.8006,1.8148,1.8148,1.8148,1.8764,2.023,2.1233,1.9457,1.8703,1.7957,1.6483,1.6339,1.6186,1.5113,1.4968,1.4968,1.4968,1.4968,1.4968,1.4968,1.4968,1.4968,1.4968,1.4653,1.3568,1.1553,1.0934,0.9853,0.7681,0.7525,0.6736,0.5165,0.5014,0.4236,0.2514,0.2357,0.1571,0.0314,-0.0784,-0.2037,-0.3448,-0.4549,-0.5022,-0.5022,-0.5335,-0.6125,0.6624,0.7799,0.8914,0.9386,1.0489,1.1518,1.1938,1.3784,1.5505,1.5274,1.6452,1.7449,1.7449,1.6885,1.632,1.632,1.632,1.5895,1.5168,1.5026,1.4742,1.4047,1.5026,1.5877,1.5877,1.7127,1.8443,1.9484,1.9882,2.033,2.0914,2.1301,2.1035,2.0513,2.0476,2.0355,2.0124,2.0318,2.0291,2.0327,2.0557,2.0527,2.011,1.9692,1.9262,1.8993,1.8573,1.8433,1.8433,1.8433,1.8433,1.8433,1.8433,1.8455,1.8509,1.8702,1.8799,1.8864,1.9079,1.9165,1.9198,1.9198,1.9348,1.9691,2.0717,2.0556,2.0252,2.1302,2.0991,2.053,2.023,2.098,2.1555,2.0966,2.142,2.1036,1.7046,1.6797,1.6797,1.5275,1.4968,1.4968,1.4968,1.4968,1.4968,1.4968,1.4968,1.4968,1.4968,1.3105,1.1708,1.1399,0.9387,0.7833,0.7525,0.7525,0.6736,0.5165,0.5008,0.4231,0.2514,0.1414,0.0314,-0.0942,-0.1254,-0.2507,-0.4706,-0.4863,-0.5022,-0.5022,-0.6441,-0.7232,0.6351,0.7328,0.8494,0.9767,1.0558,1.1496,1.2988,1.4156,1.5147,1.5238,1.5542,1.5895,1.6564,1.6028,1.5461,1.5461,1.5186,1.5035,1.5593,1.5593,1.5867,1.6423,1.6987,1.7409,1.7409,1.855,1.953,1.9835,2.065,2.1314,2.1463,2.1727,2.1595,2.1066,2.0649,2.0385,2.0148,2.0762,2.1541,2.266,2.2971,2.2969,2.2832,2.2009,2.078,1.8993,1.8573,1.8714,1.9401,1.9401,1.9401,1.9401,1.9401,1.8982,1.8444,1.9245,1.956,1.9571,2.038,2.0663,2.0793,2.0793,2.097,2.1317,2.1752,2.1388,2.102,2.2056,2.2044,2.1874,2.2177,2.2972,2.3601,2.2739,2.304,2.2671,1.9106,1.8361,1.7692,1.542,1.4968,1.4968,1.4968,1.4968,1.4968,1.4968,1.4968,1.4968,1.4968,1.4037,1.2797,1.1405,1.0319,0.9075,0.7681,0.7525,0.6736,0.5165,0.5011,0.4234,0.2514,0.1256,-0.0,-0.1255,-0.2038,-0.3135,-0.5022,-0.5022,-0.5022,-0.5022,-0.6755,-0.7989,0.6489,0.7376,0.8272,0.9781,1.0693,1.1841,1.3478,1.4305,1.4801,1.5255,1.4864,1.4817,1.5821,1.5167,1.4745,1.5017,1.4595,1.4736,1.6269,1.6409,1.6847,1.8143,1.8571,1.8849,1.8849,2.0066,2.0589,2.0184,2.1198,2.1713,2.1241,2.1503,2.1503,2.0979,2.0903,2.076,2.0585,2.159,2.2804,2.4247,2.4715,2.4742,2.4756,2.3746,2.2147,1.9947,1.939,1.9669,2.0503,2.0503,2.0503,2.0503,2.0503,1.9947,1.9401,2.0225,2.0503,2.0629,2.1446,2.1874,2.2052,2.2052,2.2243,2.2472,2.2756,2.251,2.2119,2.3145,2.3274,2.3403,2.3998,2.4806,2.5171,2.4172,2.4172,2.3701,2.0862,1.934,1.7834,1.6033,1.5267,1.4968,1.4968,1.4968,1.4968,1.4968,1.4968,1.4968,1.4968,1.4499,1.3259,1.156,1.0779,0.9542,0.7681,0.7525,0.6736,0.5165,0.5019,0.4084,0.2043,0.0785,-0.0471,-0.1724,-0.2978,-0.4077,-0.5022,-0.5022,-0.5179,-0.5651,-0.7389,-0.9071,0.6847,0.8051,0.8891,0.9133,1.1192,1.2995,1.2805,1.4041,1.5175,1.4692,1.4591,1.4728,1.5282,1.4344,1.3942,1.5155,1.5282,1.5827,1.7172,1.7442,1.7527,1.7876,1.9153,2.0119,2.0119,2.1475,2.2058,2.1514,2.1577,2.1328,2.0667,2.0654,2.04,1.9749,2.0856,2.1362,2.1122,2.2652,2.3592,2.3912,2.4247,2.4274,2.3876,2.3513,2.3092,2.2545,2.1859,2.1584,2.1584,2.1584,2.1584,2.1584,2.1584,2.1584,2.1584,2.1584,2.1584,2.1584,2.1721,2.1734,2.1747,2.1747,2.195,2.2333,2.3453,2.3923,2.4296,2.544,2.5877,2.5722,2.544,2.5365,2.5411,2.4996,2.5135,2.4596,2.1716,1.8601,1.6492,1.7102,1.6033,1.4968,1.4968,1.4968,1.4968,1.4968,1.4968,1.4968,1.4968,1.2951,1.1399,1.125,0.9075,0.7681,0.7525,0.7525,0.6736,0.5165,0.5025,0.3772,0.0785,-0.0471,-0.1727,-0.2978,-0.4234,-0.4863,-0.5022,-0.5022,-0.5808,-0.7389,-0.9453,-1.1131,0.6834,0.764,0.8689,0.997,1.1233,1.2267,1.2702,1.3501,1.4047,1.3215,1.4041,1.4874,1.4997,1.4809,1.5119,1.6466,1.6736,1.7276,1.8764,1.9032,1.9334,2.0367,2.106,2.134,2.134,2.2462,2.3035,2.2822,2.3369,2.3708,2.3464,2.3201,2.3076,2.2798,2.3062,2.3435,2.3915,2.4766,2.5502,2.6275,2.689,2.7166,2.7052,2.6213,2.5697,2.5562,2.4345,2.3529,2.2846,2.2846,2.2846,2.2846,2.2846,2.2284,2.1721,2.2559,2.2846,2.2846,2.3665,2.3938,2.3938,2.3938,2.3885,2.412,2.4531,2.4753,2.4839,2.5266,2.5403,2.5403,2.5266,2.5178,2.5227,2.5091,2.4275,2.3337,2.2256,1.9839,1.7559,1.6797,1.6186,1.5573,1.5122,1.4968,1.4968,1.4968,1.4968,1.4653,1.3883,1.2951,1.1863,1.0314,0.9231,0.8457,0.7525,0.7525,0.6736,0.5165,0.4234,0.2825,0.0628,-0.1412,-0.2667,-0.3135,-0.439,-0.5022,-0.5022,-0.5022,-0.5808,-0.7546,-0.9687,-1.1343,0.7181,0.7966,0.9145,1.0827,1.1397,1.169,1.2768,1.347,1.3633,1.3152,1.4317,1.5594,1.6183,1.6439,1.6911,1.784,1.7973,1.8502,1.9973,2.0235,2.0666,2.17,2.1844,2.1961,2.247,2.305,2.3515,2.4029,2.4564,2.4933,2.5056,2.4687,2.4687,2.4917,2.4671,2.504,2.6034,2.6404,2.6907,2.7432,2.8083,2.846,2.8597,2.7785,2.7354,2.7067,2.5996,2.4902,2.3952,2.3952,2.3952,2.3952,2.3952,2.3529,2.2969,2.3679,2.3952,2.4088,2.4781,2.5052,2.5052,2.5052,2.5052,2.5052,2.5052,2.5052,2.5052,2.5052,2.5052,2.5052,2.5052,2.5052,2.5081,2.4775,2.3507,2.2456,2.2125,2.0284,1.8168,1.6797,1.6339,1.588,1.5122,1.4968,1.4968,1.4968,1.4968,1.4499,1.3259,1.2797,1.1708,0.9698,0.9075,0.8457,0.7525,0.7525,0.6736,0.5165,0.376,0.2195,-0.0,-0.2038,-0.3292,-0.3764,-0.4549,-0.5335,-0.5808,-0.5808,-0.6755,-0.8655,-1.0744,-1.2699,0.0,0.0,0.0,1.1445,1.1517,1.1697,1.2736,1.3635,1.4249,1.4308,1.5533,1.7025,1.8709,1.9012,1.9152,1.9164,1.9036,1.9559,2.0982,2.1109,2.1343,2.1625,2.1666,2.2167,2.3403,2.3305,2.368,2.4964,2.481,2.481,2.5056,2.481,2.4949,2.57,2.5652,2.6034,2.7073,2.7418,2.7418,2.7073,2.7432,2.7809,2.8186,2.7794,2.7507,2.7185,2.6368,2.5712,2.5187,2.5052,2.5052,2.5052,2.5052,2.5052,2.5052,2.5052,2.5052,2.5052,2.5052,2.5052,2.5052,2.5052,2.5052,2.5052,2.5052,2.5052,2.5052,2.5052,2.5052,2.5052,2.5052,2.5066,2.4868,2.4053,2.309,2.2231,2.1337,1.981,1.8319,1.7559,1.6797,1.6033,1.5113,1.4968,1.4968,1.4968,1.4968,1.4499,1.3259,1.2017,1.0785,0.9542,0.8301,0.7525,0.7525,0.7525,0.6736,0.5008,0.376,0.1724,-0.1253,-0.2507,-0.3764,-0.5019,-0.5022,-0.5808,-0.7546,-0.7546,-0.8655,-1.0722,-1.2804,-1.525,0.8924,0.0,0.0,0.0,0.0,0.0,1.1847,1.2335,1.2853,1.376,1.5292,1.6879,1.8189,2.023,2.1672,2.1909,2.1209,2.0956,2.2341,2.2591,2.287,2.3958,2.4082,2.4082,2.4331,2.5075,2.5659,2.5823,2.6554,2.7039,2.7159,2.728,2.728,2.7039,2.7401,2.7521,2.7401,2.7401,2.7418,2.7073,2.7432,2.7655,2.7792,2.7677,2.7621,2.7475,2.6542,2.5965,2.5846,2.5322,2.5052,2.5052,2.5052,2.5052,2.5052,2.5052,2.5052,2.5052,2.5052,2.5052,2.5052,2.5052,2.5052,2.5052,2.5052,2.5052,2.5052,2.5052,2.5052,2.5052,2.5052,2.5227,2.5143,2.4108,2.3248,2.2468,2.1372,2.0269,1.9088,1.7711,1.7245,1.6644,1.5267,1.4968,1.4968,1.4968,1.4191,1.3105,1.2017,1.0624,0.9387,0.8145,0.7681,0.7525,0.7525,0.7525,0.6424,0.3756,0.2506,0.047,-0.2507,-0.3764,-0.4706,-0.5022,-0.5022,-0.5808,-0.7546,-0.7546,-0.9246,-1.2481,-1.4782,-1.6635,1.0071,1.0647,1.135,1.1452,0.0,0.0,1.2695,1.3369,1.3945,1.5013,1.7022,1.8677,1.9024,2.0948,2.2572,2.2795,2.2349,2.2537,2.3777,2.3946,2.4193,2.4933,2.5056,2.5178,2.5546,2.6156,2.6762,2.728,2.7779,2.79,2.7762,2.802,2.79,2.7297,2.7779,2.79,2.7521,2.7521,2.7642,2.7917,2.8008,2.8306,2.885,2.8598,2.8307,2.7831,2.729,2.6517,2.5712,2.5577,2.5322,2.5052,2.5052,2.5052,2.5052,2.5052,2.5052,2.5052,2.5052,2.5052,2.5052,2.5052,2.5052,2.5052,2.5052,2.5052,2.5052,2.5052,2.5052,2.5052,2.5052,2.5013,2.4581,2.3434,2.2675,2.186,2.0946,2.0197,1.9542,1.8168,1.7559,1.695,1.5727,1.5267,1.4806,1.4345,1.3568,1.2481,1.0785,0.9853,0.8925,0.7681,0.7525,0.7525,0.7525,0.7213,0.5955,0.3286,0.1565,-0.047,-0.2978,-0.439,-0.5022,-0.5022,-0.5022,-0.6264,-0.8745,-0.8745,-1.075,-1.4758,-1.6321,-1.7273,1.1439,1.1464,1.1606,1.2621,1.1864,0.0,1.4329,1.5446,1.614,1.6987,1.9273,2.0907,2.0208,2.141,2.2448,2.2487,2.3331,2.43,2.5019,2.5162,2.5301,2.5652,2.5652,2.6139,2.7486,2.7246,2.7486,2.8975,2.8379,2.8002,2.7744,2.7864,2.7762,2.7539,2.7762,2.7864,2.7864,2.7744,2.8241,2.9213,2.8838,2.926,3.0471,2.991,2.9153,2.8375,2.8538,2.7551,2.5712,2.6234,2.5965,2.5322,2.5322,2.5457,2.5592,2.5592,2.5457,2.5322,2.5322,2.5187,2.5052,2.5052,2.5052,2.5052,2.5052,2.5052,2.5052,2.5052,2.5052,2.5052,2.5052,2.4479,2.3674,2.2665,2.1801,2.1059,2.0102,1.9844,1.9542,1.8774,1.8016,1.7102,1.6186,1.542,1.4345,1.3259,1.2797,1.1863,0.9698,0.9231,0.8769,0.7681,0.7525,0.7369,0.7213,0.6584,0.517,0.2817,0.0782,-0.1096,-0.3292,-0.4393,-0.5022,-0.5335,-0.5651,-0.7501,-1.0992,-1.1146,-1.3166,-1.6779,-1.7264,-1.7588,1.2857,1.32,1.3722,1.367,1.3993,0.0,1.426,1.4847,1.5607,1.6042,1.6991,1.8116,1.9161,2.2166,2.4063,2.3126,2.5953,2.7715,2.5982,2.6231,2.7366,2.9375,2.963,3.0081,3.1129,3.0198,2.9493,2.9275,2.8701,2.8701,2.9275,3.01,3.0451,3.0081,3.0334,3.0451,3.0198,2.963,2.9747,3.0451,2.9884,2.9804,3.0016,3.0212,3.0382,3.0525,3.0284,2.9988,2.9639,2.923,2.8065,2.6753,2.6753,2.7419,2.8328,2.8328,2.7684,2.6753,2.6753,2.5965,2.5052,2.5052,2.5052,2.5052,2.5052,2.5052,2.5052,2.5052,2.5052,2.5052,2.5052,2.4649,2.3789,2.2704,2.1946,2.1268,2.0135,1.939,1.8774,1.8623,1.8016,1.695,1.542,1.4191,1.3414,1.3105,1.1399,1.0008,0.9387,0.8457,0.7838,0.7525,0.7525,0.6896,0.5642,0.5014,0.3288,-0.0157,-0.1096,-0.2507,-0.4549,-0.4863,-0.5651,-0.6915,-0.9933,-1.2096,-1.3048,-1.4428,-1.5667,-1.6779,-1.7426,-1.775,1.5141,1.518,1.5141,1.5614,1.5513,0.0,0.0,1.6156,1.6512,1.7848,1.817,1.8602,1.9626,2.1346,2.2732,2.3252,2.5567,2.7143,2.6606,2.7492,2.8784,3.0384,3.0339,3.0505,3.1584,3.1017,3.0682,3.0762,3.0568,3.0432,3.0762,3.1245,3.1245,3.0781,3.0897,3.1033,3.1033,3.0353,3.0568,3.1727,3.0937,3.082,3.1325,3.1171,3.1238,3.1275,3.1177,3.0937,3.0531,3.029,2.9882,2.9361,2.846,2.8592,2.9248,2.9248,2.8723,2.8065,2.7419,2.6635,2.5981,2.5322,2.5052,2.5052,2.5052,2.5052,2.5052,2.5052,2.5052,2.4916,2.4374,2.3735,2.2936,2.1672,2.0822,2.0262,1.9799,1.9062,1.8341,1.7996,1.6779,1.5557,1.4798,1.3722,1.2642,1.1399,1.0164,0.9231,0.8457,0.7838,0.7525,0.7525,0.674,0.5799,0.4857,0.329,0.1253,-0.141,-0.2195,-0.3294,-0.4863,-0.5022,-0.5789,-0.7472,-1.1262,-1.3281,-1.364,-1.5514,-1.6779,-1.7102,-1.7588,-1.8154,1.7636,1.729,1.6707,1.7576,1.7169,1.6834,0.0,0.0,0.0,1.965,1.9805,1.9805,2.0251,2.0449,2.1016,2.2562,2.4167,2.5482,2.6145,2.774,2.9245,3.012,2.987,3.0212,3.1377,3.1003,3.1064,3.1973,3.1707,3.1687,3.2096,3.2231,3.2044,3.1687,3.1707,3.1707,3.1862,3.1053,3.1401,3.2799,3.1998,3.1998,3.2747,3.2286,3.1979,3.1988,3.2092,3.1766,3.1157,3.1451,3.1835,3.2072,3.029,2.977,3.003,3.003,2.99,2.9509,2.8345,2.7816,2.7286,2.5981,2.5322,2.5052,2.5052,2.5052,2.5052,2.5052,2.5052,2.4781,2.3679,2.2836,2.1807,2.0639,1.9726,1.9273,1.9456,1.8746,1.7911,1.7208,1.5403,1.4014,1.4014,1.3098,1.1708,0.9698,0.9231,0.8613,0.7681,0.7525,0.7369,0.7053,0.5799,0.4544,0.3603,0.141,-0.047,-0.2195,-0.3137,-0.4079,-0.5489,-0.6115,-0.7174,-0.8487,-1.1932,-1.3961,-1.4228,-1.6133,-1.7102,-1.7426,-1.7922,-1.9209,1.9727,1.9555,1.9317,1.8548,1.9504,2.0123,1.7948,0.0,1.9605,1.8777,0.0,1.9253,1.9599,0.0,0.0,2.0424,2.3101,2.4681,2.3307,2.5201,2.7566,2.9655,3.0299,3.1236,3.2881,3.0624,2.9572,3.1148,2.9828,3.0328,3.3355,3.4032,3.4471,3.4891,3.4914,3.4692,3.4134,3.348,3.3275,3.3501,3.2841,3.2612,3.2727,3.2674,3.3032,3.3813,3.3875,3.4004,3.4403,3.4403,3.4153,3.3524,3.1707,3.1835,3.2892,3.2892,3.211,3.1065,3.0918,3.003,2.8723,2.7286,2.61,2.5052,2.5052,2.5052,2.5052,2.5052,2.5052,2.4781,2.3679,2.2981,2.2044,2.0675,1.9849,1.9467,1.9488,1.8299,1.7002,1.5972,1.4475,1.3259,1.3259,1.1399,0.9698,0.9387,0.8457,0.7681,0.7525,0.7525,0.6896,0.5483,0.517,0.3603,0.0314,-0.0627,-0.1881,-0.3925,-0.4552,-0.5486,-0.7197,-1.0019,-1.1863,-1.2386,-1.4766,-1.6024,-1.6456,-1.7102,-1.7426,-1.7426,-1.9385,-2.0565,2.1216,2.1251,2.1128,2.0688,2.1219,2.1305,1.9193,1.9036,1.9473,1.9635,0.0,0.0,0.0,0.0,0.0,0.0,2.179,2.2961,2.2774,2.4204,2.6184,2.8521,2.8477,2.9083,3.1247,3.0323,3.0363,3.2229,3.113,3.1451,3.3758,3.4396,3.4781,3.493,3.4952,3.4758,3.4469,3.3952,3.3636,3.3614,3.2955,3.2727,3.2727,3.2727,3.3223,3.4072,3.4072,3.4448,3.517,3.4797,3.4423,3.4047,3.3146,3.3146,3.367,3.3922,3.365,3.3,3.1944,3.066,2.9117,2.6753,2.5577,2.5052,2.5052,2.5052,2.5052,2.5052,2.4645,2.3816,2.2709,2.19,2.1042,1.9798,1.9337,1.918,1.8874,1.7394,1.5789,1.5056,1.2783,1.0934,1.0934,1.0164,0.9075,0.8457,0.7838,0.7525,0.7525,0.6584,0.5799,0.5014,0.2977,0.094,-0.0784,-0.2352,-0.3609,-0.4709,-0.5799,-0.7193,-0.8891,-1.1219,-1.2755,-1.3027,-1.5064,-1.6339,-1.6824,-1.7121,-1.8074,-1.9222,-2.0212,-2.1367,2.2853,2.3009,2.2717,2.1764,2.1786,2.1578,1.9733,1.965,2.0087,2.054,1.9937,0.0,0.0,0.0,0.0,0.0,0.0,2.1413,2.2016,2.3036,2.4515,2.6831,2.6916,2.7592,2.9619,2.9316,3.0015,3.2509,3.1483,3.167,3.3962,3.4449,3.4716,3.4832,3.4639,3.4558,3.4469,3.3952,3.3523,3.3409,3.2955,3.2727,3.2727,3.2727,3.3223,3.4072,3.4072,3.459,3.5294,3.4797,3.4548,3.4548,3.4298,3.4173,3.4173,3.4298,3.4423,3.4173,3.2854,3.1176,2.923,2.6886,2.5712,2.5052,2.5052,2.5052,2.5052,2.5052,2.4224,2.3147,2.2112,2.1224,2.0163,1.9173,1.8923,1.8696,1.7961,1.6178,1.4573,1.3516,1.1238,0.9231,0.892,0.892,0.8613,0.7681,0.7525,0.7369,0.6896,0.5799,0.4544,0.3603,0.1097,-0.1098,-0.2038,-0.3609,-0.4709,-0.5645,-0.7665,-0.9366,-1.0595,-1.244,-1.3516,-1.3976,-1.5531,-1.6779,-1.7569,-1.8064,-1.9222,-2.1041,-2.1368,-2.2553,2.5032,2.479,2.4144,2.1193,2.1135,2.1115,1.8946,2.0679,2.2353,2.1076,2.1919,2.2433,2.1232,0.0,0.0,0.0,0.0,0.0,0.0,2.0943,2.2418,2.4638,2.6724,2.8208,2.8761,2.709,2.7482,3.1113,2.9431,3.006,3.4074,3.4335,3.4668,3.5474,3.4854,3.4558,3.4469,3.3952,3.3296,3.2727,3.2727,3.2727,3.2727,3.2727,3.3223,3.4072,3.4072,3.459,3.5418,3.5046,3.4922,3.4922,3.4922,3.4922,3.4797,3.4548,3.4423,3.4298,3.3922,3.1854,2.9248,2.9117,2.7286,2.5052,2.5052,2.5052,2.5052,2.5052,2.4224,2.3201,2.2357,2.1375,2.0573,1.9424,1.8728,1.7981,1.6768,1.5119,1.3361,1.1207,0.9998,0.9075,0.7838,0.7525,0.7525,0.7525,0.7525,0.6896,0.5327,0.5014,0.3603,-0.0,-0.0471,-0.1569,-0.4084,-0.4397,-0.5335,-0.7361,-1.0463,-1.2326,-1.2481,-1.4345,-1.5735,-1.605,-1.6501,-1.7683,-1.9736,-2.0114,-2.1193,-2.2718,-2.3047,-2.4429,2.6486,2.6859,2.6542,2.4401,2.4255,2.3872,2.074,2.1543,2.2456,2.0519,2.1492,2.222,2.0823,0.0,0.0,0.0,0.0,0.0,0.0,2.0385,2.1674,2.3501,2.5661,2.6735,2.6213,2.6276,2.7311,2.9504,2.915,2.9983,3.2673,3.3791,3.4555,3.5105,3.5559,3.5594,3.5002,3.4803,3.4043,3.2727,3.2727,3.2727,3.2727,3.2727,3.3223,3.4072,3.4072,3.459,3.5294,3.4797,3.4673,3.4922,3.4673,3.4673,3.4922,3.5046,3.5046,3.4797,3.3359,3.1176,2.8986,2.8065,2.6635,2.5052,2.5052,2.5052,2.5052,2.5052,2.3818,2.2471,2.2141,2.109,1.9812,1.9528,1.834,1.6972,1.6054,1.3763,1.133,0.9992,0.892,0.7989,0.7525,0.6584,0.6268,0.7369,0.6584,0.5639,0.5014,0.3133,0.1098,-0.0471,-0.1882,-0.3139,-0.4241,-0.5645,-0.7669,-1.0618,-1.1863,-1.3105,-1.4499,-1.5275,-1.5888,-1.6501,-1.7854,-1.9025,-2.0164,-2.1405,-2.3053,-2.5116,-2.5277,-2.5777,2.7472,2.7902,2.7882,2.6284,2.6141,2.5564,2.222,2.2772,2.3486,2.1416,2.2045,2.2891,2.2674,0.0,0.0,0.0,0.0,0.0,0.0,2.0348,2.1329,2.2479,2.4416,2.5524,2.5192,2.5275,2.6521,2.9176,2.88,2.9766,3.2585,3.379,3.4676,3.5294,3.5819,3.6038,3.5991,3.5356,3.4469,3.3388,3.2955,3.2727,3.2727,3.2727,3.3223,3.4072,3.4072,3.459,3.5294,3.4797,3.4797,3.5046,3.4673,3.4797,3.5046,3.5294,3.5294,3.4797,3.3485,3.1304,2.8986,2.8196,2.6635,2.5052,2.5052,2.5052,2.5081,2.4775,2.3417,2.2064,2.1839,2.0712,1.9372,1.869,1.7435,1.5845,1.4153,1.1843,0.9842,0.892,0.7989,0.7369,0.674,0.5642,0.5327,0.6424,0.517,0.3916,0.3133,0.1098,-0.0628,-0.1882,-0.3139,-0.4395,-0.5492,-0.7825,-1.0153,-1.2326,-1.3105,-1.4037,-1.5582,-1.5744,-1.6348,-1.7702,-1.8754,-2.0369,-2.2114,-2.3286,-2.5007,-2.7137,-2.7266,-2.7425]},{"header":{"parameterUnit":"m.s-1","parameterCategory":1,"la1":30.6,"la2":29.2853,"lo1":-89.7004,"lo2":-87.6739,"dy":0.0162,"dx":0.0183,"nx":112,"ny":82,"refTime":"2024-12-05T18:00:00:Z","depth":0,"parameterNumber":3,"parameterNumberName":"V-component_of_WINDS"},"data":[0.0,0.0,0.0,0.0,0.0,0.0,0.0,0.0,0.0,0.0,0.0,0.0,0.0,0.0,0.0,0.0,0.0,0.0,0.0,0.0,0.0,0.0,0.0,0.0,0.0,0.0,0.0,0.0,0.0,0.0,0.0,0.0,0.0,0.0,0.0,0.0,0.0,0.0,0.0,0.0,0.0,0.0,0.0,0.0,0.0,0.0,0.0,0.0,0.0,0.0,0.0,0.0,0.0,0.0,0.0,0.0,0.0,0.0,0.0,0.0,0.0,0.0,0.0,0.0,0.0,0.0,0.0,0.0,0.0,0.0,0.0,0.0,0.0,0.0,0.0,0.0,0.0,0.0,0.0,0.0,0.0,0.0,0.0,0.0,0.0,0.0,0.0,0.0,0.0,0.0,-4.5629,-5.0445,-5.3138,-5.3691,-5.1454,-5.1788,-4.8345,-3.951,0.0,0.0,0.0,0.0,0.0,0.0,0.0,0.0,0.0,0.0,0.0,0.0,0.0,0.0,0.0,0.0,0.0,0.0,0.0,0.0,0.0,0.0,0.0,0.0,0.0,0.0,0.0,0.0,0.0,0.0,0.0,0.0,0.0,0.0,0.0,0.0,0.0,0.0,0.0,0.0,0.0,0.0,0.0,0.0,0.0,0.0,0.0,0.0,0.0,0.0,0.0,0.0,0.0,0.0,0.0,0.0,0.0,0.0,0.0,0.0,0.0,0.0,0.0,0.0,0.0,0.0,0.0,0.0,0.0,0.0,0.0,0.0,0.0,0.0,0.0,0.0,0.0,0.0,0.0,0.0,0.0,0.0,0.0,0.0,0.0,0.0,0.0,0.0,0.0,0.0,0.0,0.0,0.0,0.0,0.0,0.0,0.0,0.0,0.0,0.0,0.0,0.0,0.0,0.0,-4.4743,-5.2163,-5.3855,-5.3662,-5.1665,-5.1416,-4.8155,-4.0622,0.0,0.0,0.0,0.0,0.0,0.0,0.0,0.0,0.0,0.0,0.0,0.0,0.0,0.0,0.0,0.0,0.0,0.0,0.0,0.0,0.0,0.0,0.0,0.0,0.0,0.0,0.0,0.0,0.0,0.0,0.0,0.0,0.0,0.0,0.0,0.0,0.0,0.0,0.0,0.0,0.0,0.0,0.0,0.0,0.0,0.0,0.0,0.0,0.0,0.0,0.0,0.0,0.0,0.0,0.0,0.0,0.0,0.0,0.0,0.0,0.0,0.0,0.0,0.0,0.0,0.0,0.0,0.0,0.0,0.0,0.0,0.0,0.0,0.0,0.0,0.0,0.0,0.0,0.0,0.0,0.0,0.0,0.0,0.0,0.0,0.0,0.0,0.0,0.0,0.0,0.0,0.0,0.0,0.0,0.0,0.0,0.0,0.0,0.0,0.0,0.0,0.0,0.0,-4.4729,-4.7615,-5.3333,-5.4112,-5.3489,-5.1635,-5.1306,-4.7895,-4.0197,-3.8062,0.0,0.0,0.0,0.0,0.0,0.0,0.0,0.0,0.0,0.0,0.0,0.0,0.0,0.0,0.0,0.0,0.0,0.0,0.0,0.0,0.0,0.0,0.0,0.0,0.0,0.0,0.0,0.0,0.0,0.0,0.0,0.0,0.0,0.0,0.0,0.0,0.0,0.0,0.0,0.0,0.0,0.0,0.0,0.0,0.0,0.0,0.0,0.0,0.0,0.0,0.0,0.0,0.0,0.0,0.0,0.0,0.0,0.0,0.0,0.0,0.0,0.0,0.0,0.0,0.0,0.0,0.0,0.0,0.0,0.0,0.0,0.0,0.0,0.0,0.0,0.0,0.0,0.0,0.0,0.0,0.0,0.0,0.0,0.0,0.0,0.0,0.0,0.0,0.0,0.0,0.0,0.0,0.0,0.0,0.0,0.0,0.0,0.0,0.0,0.0,0.0,0.0,-4.9503,-5.0871,-5.4096,-5.4233,-5.3347,-5.1528,-5.0342,-4.6675,-3.9537,-3.6668,0.0,0.0,0.0,0.0,0.0,0.0,0.0,0.0,0.0,0.0,0.0,0.0,0.0,0.0,0.0,0.0,0.0,0.0,0.0,0.0,0.0,0.0,0.0,0.0,0.0,0.0,0.0,0.0,0.0,0.0,0.0,0.0,0.0,0.0,0.0,0.0,0.0,0.0,0.0,0.0,0.0,0.0,0.0,0.0,0.0,0.0,0.0,0.0,0.0,0.0,0.0,0.0,0.0,0.0,0.0,0.0,0.0,0.0,0.0,0.0,0.0,0.0,0.0,0.0,0.0,0.0,0.0,0.0,0.0,0.0,0.0,0.0,0.0,0.0,0.0,0.0,0.0,0.0,0.0,0.0,0.0,0.0,0.0,0.0,0.0,0.0,0.0,0.0,0.0,0.0,0.0,0.0,0.0,0.0,0.0,0.0,0.0,0.0,0.0,0.0,0.0,0.0,-4.9525,-5.276,-5.4409,-5.4265,-5.331,-5.138,-4.7677,-4.3573,-3.9303,-3.3832,0.0,0.0,0.0,0.0,0.0,0.0,0.0,0.0,0.0,0.0,0.0,0.0,0.0,0.0,0.0,0.0,0.0,0.0,0.0,0.0,0.0,0.0,0.0,0.0,0.0,0.0,0.0,0.0,0.0,0.0,0.0,0.0,0.0,0.0,0.0,0.0,0.0,0.0,0.0,0.0,0.0,0.0,0.0,0.0,0.0,0.0,0.0,0.0,0.0,0.0,0.0,0.0,0.0,0.0,0.0,0.0,0.0,0.0,0.0,0.0,0.0,0.0,0.0,0.0,0.0,0.0,0.0,0.0,0.0,0.0,0.0,0.0,0.0,0.0,0.0,0.0,0.0,0.0,0.0,0.0,0.0,0.0,0.0,0.0,0.0,0.0,0.0,0.0,0.0,0.0,0.0,0.0,0.0,0.0,0.0,0.0,0.0,0.0,0.0,0.0,0.0,0.0,-4.8987,-5.1192,-5.3527,-5.3612,-5.2669,-5.0602,-4.8012,-4.4161,-3.8738,0.0,0.0,0.0,0.0,0.0,0.0,0.0,0.0,0.0,0.0,0.0,0.0,0.0,0.0,0.0,0.0,0.0,0.0,0.0,0.0,0.0,0.0,0.0,0.0,0.0,0.0,0.0,0.0,0.0,0.0,0.0,0.0,0.0,0.0,0.0,0.0,0.0,0.0,0.0,0.0,0.0,0.0,0.0,0.0,0.0,0.0,0.0,0.0,0.0,0.0,0.0,0.0,0.0,0.0,0.0,0.0,0.0,0.0,0.0,0.0,0.0,0.0,0.0,0.0,0.0,0.0,0.0,0.0,0.0,0.0,0.0,0.0,0.0,0.0,0.0,0.0,0.0,0.0,0.0,0.0,0.0,0.0,0.0,0.0,0.0,0.0,0.0,0.0,0.0,0.0,0.0,0.0,0.0,0.0,0.0,0.0,0.0,0.0,0.0,0.0,0.0,0.0,-4.7154,-4.9433,-5.12,-5.3689,-5.3527,-5.2526,-5.081,-4.7909,-4.3879,-3.8427,0.0,0.0,0.0,0.0,0.0,0.0,0.0,0.0,0.0,0.0,0.0,0.0,0.0,0.0,0.0,0.0,0.0,0.0,0.0,0.0,0.0,0.0,0.0,0.0,0.0,0.0,0.0,0.0,0.0,0.0,0.0,0.0,0.0,0.0,0.0,0.0,0.0,0.0,0.0,0.0,0.0,0.0,0.0,0.0,0.0,0.0,0.0,0.0,0.0,0.0,0.0,0.0,0.0,0.0,0.0,0.0,0.0,0.0,0.0,0.0,0.0,0.0,0.0,0.0,0.0,0.0,0.0,0.0,0.0,0.0,0.0,0.0,0.0,0.0,0.0,0.0,0.0,0.0,0.0,0.0,0.0,0.0,0.0,0.0,0.0,0.0,0.0,0.0,0.0,0.0,0.0,0.0,0.0,0.0,0.0,0.0,0.0,0.0,0.0,0.0,0.0,0.0,-4.7449,-5.1009,-5.3498,-5.5123,-5.421,-5.3118,-5.2175,-4.683,-4.2006,0.0,0.0,0.0,0.0,0.0,0.0,0.0,0.0,0.0,0.0,0.0,0.0,0.0,0.0,0.0,0.0,0.0,0.0,0.0,0.0,0.0,0.0,0.0,0.0,0.0,0.0,0.0,0.0,0.0,0.0,0.0,0.0,0.0,0.0,0.0,0.0,0.0,0.0,0.0,0.0,0.0,0.0,0.0,0.0,0.0,0.0,0.0,0.0,0.0,0.0,0.0,0.0,0.0,0.0,0.0,0.0,0.0,0.0,0.0,0.0,0.0,0.0,0.0,0.0,0.0,0.0,0.0,0.0,0.0,0.0,0.0,0.0,0.0,0.0,0.0,0.0,0.0,0.0,0.0,0.0,0.0,0.0,0.0,0.0,0.0,0.0,0.0,0.0,0.0,0.0,0.0,0.0,0.0,0.0,0.0,0.0,0.0,0.0,0.0,0.0,0.0,0.0,0.0,-4.7482,-5.1183,-5.3507,-5.4306,-5.3557,-5.2536,-5.1357,-4.6955,-4.237,-3.794,0.0,0.0,0.0,0.0,0.0,0.0,0.0,0.0,0.0,0.0,0.0,0.0,0.0,0.0,0.0,0.0,0.0,0.0,0.0,0.0,0.0,0.0,0.0,0.0,0.0,0.0,0.0,0.0,0.0,0.0,0.0,0.0,0.0,0.0,0.0,0.0,0.0,0.0,0.0,0.0,0.0,0.0,0.0,0.0,0.0,0.0,0.0,0.0,0.0,0.0,0.0,0.0,0.0,0.0,0.0,0.0,0.0,0.0,0.0,0.0,0.0,0.0,0.0,0.0,0.0,0.0,0.0,0.0,0.0,0.0,0.0,0.0,0.0,0.0,0.0,0.0,0.0,0.0,0.0,0.0,0.0,0.0,0.0,0.0,0.0,0.0,0.0,0.0,0.0,0.0,0.0,0.0,0.0,0.0,0.0,0.0,0.0,0.0,0.0,0.0,0.0,0.0,-4.7524,-5.1279,-5.3628,-5.4565,-5.366,-5.2647,-5.1853,-4.8199,-4.3672,-3.8403,0.0,0.0,0.0,0.0,0.0,0.0,0.0,0.0,0.0,0.0,0.0,0.0,0.0,0.0,0.0,0.0,0.0,0.0,0.0,0.0,0.0,0.0,0.0,0.0,0.0,0.0,0.0,0.0,0.0,0.0,0.0,0.0,0.0,0.0,0.0,0.0,0.0,0.0,0.0,0.0,0.0,0.0,0.0,0.0,0.0,0.0,0.0,0.0,0.0,0.0,0.0,0.0,0.0,0.0,0.0,0.0,0.0,0.0,0.0,0.0,0.0,0.0,0.0,0.0,0.0,0.0,0.0,0.0,0.0,0.0,0.0,0.0,0.0,0.0,0.0,0.0,0.0,0.0,0.0,0.0,0.0,0.0,0.0,0.0,0.0,0.0,0.0,0.0,0.0,0.0,0.0,0.0,0.0,0.0,0.0,0.0,0.0,0.0,0.0,0.0,0.0,0.0,-4.7447,-5.1222,-5.3937,-5.5532,-5.4203,-5.3182,-5.3102,-4.9967,-4.5573,-3.9802,0.0,0.0,0.0,0.0,0.0,0.0,0.0,0.0,0.0,0.0,0.0,0.0,0.0,0.0,0.0,0.0,0.0,0.0,0.0,0.0,0.0,0.0,0.0,0.0,0.0,0.0,0.0,0.0,0.0,0.0,0.0,0.0,0.0,0.0,0.0,0.0,0.0,0.0,0.0,0.0,0.0,0.0,0.0,0.0,0.0,0.0,0.0,0.0,0.0,0.0,0.0,0.0,0.0,0.0,0.0,0.0,0.0,0.0,0.0,0.0,-4.0405,-3.7243,0.0,0.0,0.0,0.0,0.0,0.0,0.0,0.0,0.0,0.0,0.0,0.0,0.0,0.0,0.0,0.0,0.0,0.0,0.0,0.0,0.0,0.0,0.0,0.0,0.0,0.0,0.0,0.0,0.0,0.0,0.0,0.0,0.0,0.0,0.0,0.0,0.0,0.0,0.0,0.0,-4.6685,-5.0969,-5.403,-5.5532,-5.4203,-5.3203,-5.3182,-5.0028,-4.6397,-4.2424,-3.767,0.0,0.0,0.0,0.0,0.0,0.0,0.0,0.0,0.0,0.0,0.0,0.0,0.0,0.0,0.0,0.0,0.0,0.0,0.0,0.0,0.0,0.0,0.0,0.0,0.0,0.0,0.0,0.0,0.0,0.0,0.0,0.0,0.0,0.0,0.0,0.0,0.0,0.0,0.0,0.0,0.0,0.0,0.0,0.0,0.0,0.0,0.0,0.0,0.0,0.0,0.0,0.0,0.0,0.0,0.0,0.0,0.0,0.0,0.0,-4.5675,-4.2747,0.0,0.0,0.0,0.0,0.0,0.0,0.0,0.0,0.0,0.0,0.0,0.0,0.0,0.0,0.0,0.0,0.0,0.0,0.0,0.0,0.0,0.0,0.0,0.0,0.0,0.0,0.0,0.0,0.0,0.0,0.0,0.0,0.0,0.0,0.0,0.0,0.0,0.0,0.0,0.0,-4.6523,-5.0959,-5.4119,-5.5654,-5.4284,-5.3282,-5.3203,-5.0432,-4.7396,-4.4382,-4.0509,0.0,0.0,0.0,0.0,0.0,0.0,0.0,0.0,0.0,0.0,0.0,0.0,0.0,0.0,0.0,0.0,0.0,0.0,0.0,0.0,0.0,0.0,0.0,0.0,0.0,0.0,0.0,0.0,0.0,0.0,0.0,0.0,0.0,0.0,0.0,0.0,0.0,0.0,0.0,0.0,0.0,0.0,0.0,0.0,0.0,0.0,0.0,0.0,0.0,0.0,0.0,0.0,0.0,-5.2562,-5.3615,-5.5676,-5.4983,-5.5861,-5.7633,-5.1734,-4.9739,-5.0087,-4.3972,0.0,0.0,0.0,0.0,0.0,0.0,0.0,0.0,0.0,0.0,0.0,0.0,0.0,0.0,0.0,0.0,0.0,0.0,0.0,0.0,0.0,0.0,-4.4093,-4.2772,-4.5346,-4.6044,-3.8656,0.0,0.0,0.0,0.0,0.0,0.0,0.0,0.0,0.0,0.0,0.0,-4.6839,-5.1139,-5.4181,-5.5559,-5.4359,-5.3343,-5.3051,-5.0932,-4.8623,-4.6355,-4.3799,-4.0446,0.0,0.0,0.0,0.0,0.0,0.0,0.0,0.0,0.0,0.0,0.0,0.0,0.0,0.0,0.0,0.0,0.0,0.0,0.0,0.0,0.0,0.0,0.0,0.0,0.0,0.0,0.0,0.0,0.0,0.0,0.0,0.0,-4.1651,-4.4032,0.0,0.0,0.0,0.0,0.0,0.0,0.0,0.0,0.0,0.0,0.0,0.0,0.0,-5.174,-5.3953,-5.6425,-5.8126,-5.9123,-6.1338,-6.2602,-6.295,-6.2794,-6.2954,-6.3191,-6.1511,0.0,-5.2117,-4.8876,0.0,0.0,0.0,0.0,0.0,0.0,0.0,0.0,0.0,0.0,0.0,0.0,0.0,0.0,0.0,0.0,0.0,0.0,0.0,0.0,0.0,0.0,-5.2523,-4.9454,-4.9731,-4.9975,-4.74,-4.2966,-3.8553,-3.5558,-3.4042,-3.26,0.0,0.0,0.0,0.0,0.0,0.0,-4.7701,-5.1544,-5.41,-5.4945,-5.4168,-5.3262,-5.246,-5.1412,-5.0326,-4.9214,-4.6758,-4.4703,-4.328,-3.8839,0.0,0.0,0.0,0.0,0.0,0.0,0.0,0.0,0.0,0.0,0.0,0.0,0.0,0.0,0.0,0.0,0.0,0.0,0.0,0.0,0.0,0.0,0.0,0.0,0.0,0.0,0.0,0.0,0.0,-4.2084,-4.5164,-4.5919,-4.491,-4.3433,0.0,0.0,0.0,0.0,0.0,0.0,0.0,0.0,0.0,-5.4669,-5.6214,-5.7804,-5.942,-6.1065,-6.2264,-6.3116,-6.4287,-6.512,-6.5588,-6.5588,-6.5588,-6.5549,-6.4652,-6.2297,-5.8687,-5.4173,-5.0336,-4.7094,0.0,0.0,0.0,0.0,-4.6095,-4.6612,-4.8778,-4.8508,-4.7038,-4.6123,0.0,0.0,0.0,0.0,0.0,0.0,0.0,-4.5841,-4.7434,-5.0348,-5.2846,-5.2841,-5.2777,-5.2394,-5.1147,-4.8884,-4.5551,-4.0558,-3.978,-3.83,-3.3193,-3.3193,0.0,0.0,0.0,-4.3821,-4.8794,-5.2055,-5.4195,-5.4918,-5.4217,-5.334,-5.2368,-5.1501,-5.0841,-5.0467,-4.8914,-4.7462,-4.6173,-4.2585,-3.885,0.0,0.0,0.0,0.0,0.0,0.0,0.0,0.0,0.0,0.0,0.0,0.0,0.0,0.0,0.0,0.0,0.0,0.0,0.0,0.0,0.0,0.0,0.0,0.0,0.0,0.0,0.0,0.0,-4.5236,-4.82,-4.7796,-4.8161,-4.7269,0.0,0.0,0.0,0.0,0.0,0.0,-5.3026,-5.59,-5.811,-5.9494,-6.1444,-6.2909,-6.3821,-6.4426,-6.5041,-6.5635,-6.5635,-6.5985,-6.662,-6.662,-6.662,-6.6581,-6.5907,-6.5129,-6.3949,-5.8815,-5.5314,-5.2919,-5.0681,-4.9776,-4.9962,-5.1818,-5.2453,-5.2801,-5.6128,-5.578,-5.3614,-5.2288,-4.992,-4.7069,-4.4143,0.0,0.0,0.0,0.0,-4.8813,-5.1657,-5.2704,-5.3339,-5.4647,-5.473,-5.4264,-5.3408,-5.3103,-5.1258,-4.5207,-4.4933,-4.3609,-3.7143,-3.7456,0.0,-3.832,-4.1758,-4.5818,-4.9898,-5.2312,-5.3899,-5.4437,-5.3923,-5.312,-5.2144,-5.1483,-5.1084,-5.1102,-5.048,-4.9615,-4.8413,-4.6029,-4.2818,-3.8614,0.0,0.0,0.0,0.0,0.0,0.0,0.0,0.0,0.0,0.0,0.0,0.0,0.0,0.0,0.0,0.0,0.0,0.0,0.0,0.0,0.0,0.0,0.0,0.0,0.0,0.0,0.0,0.0,0.0,-5.0097,-5.2217,0.0,0.0,0.0,0.0,-5.1413,-5.4053,-5.6732,-5.9205,-6.0442,-6.2172,-6.4649,-6.4983,-6.5522,-6.6418,-6.645,-6.6476,-6.6535,-6.6535,-6.6574,-6.6612,-6.6612,-6.6612,-6.6612,-6.6535,-6.6012,-6.5025,-6.2212,-6.0021,-5.8317,-5.7273,-5.6887,-5.6868,-5.6961,-5.7985,-5.9184,-5.7791,-5.7714,-5.8237,-5.7829,-5.524,-5.2422,-5.32,-5.0636,0.0,0.0,-5.3321,-5.4285,-5.5307,-5.6734,-5.7371,-5.515,-5.5365,-5.5874,-5.5063,-5.4398,-5.2858,-4.9189,-4.7939,-4.6577,-4.3665,0.0,-4.2695,-4.4297,-4.5469,-4.7421,-5.0891,-5.2166,-5.2776,-5.2815,-5.278,-5.2386,-5.1523,-5.1406,-5.1367,-5.1367,-5.1357,-5.1274,-5.1196,-4.9469,-4.6493,-4.2231,-3.9507,0.0,0.0,0.0,0.0,0.0,0.0,0.0,0.0,0.0,0.0,0.0,0.0,0.0,0.0,0.0,0.0,0.0,0.0,0.0,0.0,0.0,0.0,0.0,0.0,0.0,0.0,0.0,0.0,-5.3754,-5.5703,0.0,-5.3119,-5.4655,-5.6143,-5.6946,-5.9495,-6.1872,-6.3806,-6.4406,-6.5354,-6.6725,-6.6373,-6.6234,-6.6467,-6.6458,-6.6417,-6.634,-6.634,-6.634,-6.634,-6.634,-6.634,-6.634,-6.634,-6.6185,-6.5799,-6.4886,-6.3494,-6.1969,-6.1602,-6.1447,-6.1447,-6.1427,-6.1814,-6.2221,-6.1383,-6.0586,-5.9639,-5.7632,-5.6116,-5.5033,-5.504,-5.4319,-5.3827,-5.5286,-5.629,-5.7138,-5.8006,-5.8297,-5.8163,-5.7309,-5.6598,-5.5927,-5.51,-5.4741,-5.4042,-5.2221,-5.1798,-5.0562,-4.6866,-4.7303,-4.7656,-4.6055,-4.7539,-4.9648,-5.1952,-5.2524,-5.2702,-5.2702,-5.2702,-5.2351,-5.1453,-5.1414,-5.1414,-5.1414,-5.141,-5.1406,-5.1396,-4.9747,-4.7273,-4.4064,-4.0933,-3.6206,0.0,0.0,0.0,0.0,0.0,0.0,0.0,0.0,0.0,0.0,0.0,0.0,0.0,0.0,0.0,0.0,0.0,0.0,0.0,0.0,0.0,0.0,0.0,0.0,0.0,-5.3353,-5.6732,-5.6273,-5.891,-5.9754,-5.7268,-5.9078,-6.0723,-6.1563,-6.3497,-6.5062,-6.6147,-6.6379,-6.6709,-6.7193,-6.6767,-6.6458,-6.64,-6.64,-6.6361,-6.6284,-6.6284,-6.6264,-6.6205,-6.6205,-6.6205,-6.6185,-6.6185,-6.6185,-6.6185,-6.6185,-6.5566,-6.4618,-6.4561,-6.4522,-6.4522,-6.4522,-6.4482,-6.426,-6.3347,-6.2042,-6.0441,-5.8273,-5.7452,-5.7346,-5.7069,-5.7378,-5.7851,-5.8112,-5.8604,-5.9142,-5.9719,-5.9457,-5.8924,-5.8471,-5.7582,-5.6549,-5.5482,-5.5281,-5.5126,-5.458,-5.4422,-5.3373,-5.0264,-5.0896,-5.1172,-4.9175,-5.0116,-5.1445,-5.2575,-5.2683,-5.2593,-5.2273,-5.2273,-5.2038,-5.1453,-5.1141,-5.0945,-5.0945,-5.0438,-5.0122,-5.0074,-4.8426,-4.6426,-4.4109,-4.0677,-3.6933,-3.295,0.0,0.0,0.0,0.0,0.0,0.0,0.0,0.0,0.0,0.0,0.0,0.0,0.0,0.0,0.0,0.0,0.0,0.0,0.0,0.0,0.0,0.0,0.0,-5.1152,-5.5525,-5.8479,-5.7658,-6.1864,-6.3604,-6.0403,-6.3109,-6.5041,-6.5102,-6.5837,-6.6301,-6.6301,-6.6301,-6.6322,-6.638,-6.6341,-6.6379,-6.6376,-6.6394,-6.6394,-6.6394,-6.6394,-6.6358,-6.6322,-6.6303,-6.6284,-6.6185,-6.6185,-6.6185,-6.6185,-6.6185,-6.6185,-6.6185,-6.6185,-6.6185,-6.6185,-6.6185,-6.5974,-6.5359,-6.3399,-6.1964,-6.0875,-6.008,-5.9578,-5.9364,-5.9786,-5.9885,-5.995,-6.0285,-6.0408,-6.0408,-6.0408,-6.0408,-6.0005,-5.8489,-5.8181,-5.7872,-5.6248,-5.6009,-5.6097,-5.6173,-5.5615,-5.4888,-5.4052,-5.3279,-5.3046,-5.3881,-5.3275,0.0,-5.2745,-5.2758,-5.2409,-5.1535,-5.1453,-5.1414,-5.1414,-5.0594,-5.0087,-5.0048,-4.8525,-4.7584,-4.7537,-4.5945,-4.4263,-4.2563,-3.9114,-3.7326,-3.7282,0.0,0.0,0.0,0.0,0.0,0.0,0.0,0.0,0.0,0.0,0.0,0.0,0.0,0.0,0.0,0.0,0.0,0.0,0.0,0.0,0.0,-5.0698,-5.4155,-5.5614,-5.8765,-6.1451,-6.2794,-6.4726,-6.6035,-6.6278,-6.717,-6.775,-6.7771,-6.7965,-6.8352,-6.8932,-6.839,-6.8101,-6.8123,-6.7542,-6.698,-6.6415,-6.647,-6.6489,-6.6489,-6.6422,-6.6407,-6.6422,-6.6355,-6.6303,-6.6284,-6.6284,-6.6225,-6.6185,-6.6185,-6.6185,-6.6185,-6.6185,-6.6185,-6.6165,-6.5913,-6.552,-6.4856,-6.3688,-6.2511,-6.1431,-6.0641,-5.989,-5.9364,-5.9786,-5.9885,-5.995,-6.0285,-6.0408,-6.0408,-6.0408,-6.0464,-6.0059,-5.8489,-5.8165,-5.778,-5.6133,-5.5769,-5.5827,-5.5956,-5.5862,-5.5514,-5.4833,-5.4501,-5.4228,-5.3855,-5.3672,-5.3575,-5.3578,-5.3611,-5.3292,-5.2429,-5.2351,-5.2078,-5.1453,-5.0594,-4.9813,-4.9189,-4.8113,-4.7807,-4.843,-4.7381,-4.6286,-4.5182,-4.179,-3.9726,0.0,0.0,0.0,0.0,0.0,0.0,0.0,0.0,0.0,0.0,0.0,0.0,0.0,0.0,0.0,0.0,0.0,0.0,0.0,0.0,0.0,0.0,-5.4607,-5.8016,-6.0021,-6.1958,-6.3751,-6.5442,-6.6701,-6.777,-6.8717,-6.8816,-6.8816,-6.8816,-6.8816,-6.9009,-6.9473,-6.9069,-6.8684,-6.8297,-6.787,-6.7247,-6.6445,-6.6431,-6.6475,-6.6475,-6.6431,-6.6415,-6.6431,-6.6338,-6.6303,-6.6264,-6.6264,-6.6264,-6.6185,-6.6185,-6.6123,-6.5997,0.0,0.0,0.0,0.0,-6.5073,-6.4664,-6.3688,-6.29,-6.2144,-6.098,-6.0266,-5.9924,-5.9933,-5.995,-6.0045,-6.0313,-6.0408,-6.0408,-6.0408,-6.0464,-6.02,-5.8911,-5.841,-5.7866,-5.6549,-5.5972,-5.5724,-5.5845,-5.5905,0.0,-5.5476,-5.519,-5.4941,-5.483,-5.458,-5.4395,-5.4411,-5.4452,-5.414,-5.3242,-5.3163,-5.2812,-5.1953,-5.1093,0.0,0.0,0.0,-4.7379,-4.7183,-4.6677,0.0,0.0,0.0,0.0,0.0,0.0,0.0,0.0,-4.1132,-4.1211,0.0,0.0,0.0,0.0,0.0,0.0,0.0,0.0,0.0,0.0,0.0,0.0,0.0,0.0,0.0,0.0,-5.9011,-6.1943,-6.3649,-6.4632,-6.5525,-6.6466,-6.7924,-6.8949,-6.9087,-6.9087,-6.9087,-6.9087,-6.9087,-6.9087,-6.9087,-6.9149,0.0,0.0,0.0,-6.7471,-6.6648,-6.6477,-6.6422,-6.6422,-6.6389,-6.6394,-6.6301,-6.6322,-6.6284,-6.6185,-6.6185,-6.6185,-6.6185,-6.6185,-6.5997,-6.5654,-6.5654,-6.5628,-6.5548,-6.5014,-6.4777,-6.463,-6.3576,0.0,0.0,-6.1394,-6.0904,-6.0821,-6.0231,-6.0127,-6.0281,-6.038,-6.0408,-6.0408,-6.0408,-6.0464,-6.0315,-5.9486,-5.8832,-5.8097,-5.7203,-5.6395,-5.584,-5.5825,-5.5865,-5.5924,-5.598,-5.5513,-5.5381,-5.6158,-5.5657,-5.5216,-5.5223,-5.523,-5.4924,-5.406,-5.3943,0.0,-5.2815,-5.1956,-5.1015,-5.0044,-4.8552,-4.7021,-4.5528,-4.5753,-4.615,-4.6683,-4.7556,-4.8616,-4.9859,-5.1574,-5.1648,-5.0126,-4.4765,-4.4255,0.0,0.0,0.0,0.0,0.0,0.0,0.0,0.0,0.0,0.0,0.0,0.0,0.0,0.0,0.0,-5.7095,-6.0277,-6.2699,-6.3723,-6.5197,-6.6466,-6.74,-6.8674,-6.9808,-7.0728,-7.0827,-7.0827,-7.0827,-7.0827,-7.0827,-7.0827,-7.0891,-7.0524,-6.9633,-6.8994,-6.8256,-6.742,-6.6772,-6.6478,-6.6478,-6.6436,0.0,-6.645,-6.6355,-6.6303,-6.6284,-6.6284,-6.6264,-6.6185,-6.6185,-6.5866,-6.5388,-6.5388,-6.5238,-6.4947,-6.4848,-6.4595,-6.4366,-6.4136,-6.3646,-6.3084,-6.2824,-6.2333,-6.1762,-6.1267,-6.1126,0.0,-6.0533,-6.0408,-6.0408,-6.0408,-6.0464,-6.0315,-5.9486,-5.9216,-5.8788,-5.7319,-5.6857,-5.6592,-5.5981,-5.5885,-5.5924,-5.5977,-5.5879,-5.5874,-5.604,-5.6032,-5.5986,-5.5989,-5.6081,-5.5816,-5.4923,-5.4845,-5.4494,-5.363,-5.2811,-5.1679,-5.0117,-4.964,-4.9286,-4.895,-5.0975,-5.1499,-5.0322,-5.0472,-5.0059,-4.9045,-5.0078,-5.0789,-5.1102,-4.9941,-4.9866,0.0,0.0,0.0,0.0,0.0,0.0,0.0,0.0,0.0,0.0,0.0,-4.6414,-5.0304,0.0,-5.6963,-5.9797,-6.193,-6.3376,-6.3835,-6.5349,-6.6765,-6.7699,-6.8987,-7.0212,-7.1214,-7.1291,-7.1291,-7.1291,-7.1291,-7.1291,-7.1291,-7.1355,-7.0795,-6.9478,-6.9091,-6.8276,-6.6997,-6.66,-6.64,-6.64,-6.6312,-6.6312,-6.6367,-6.6283,-6.6264,-6.6264,-6.6264,-6.6144,-6.5913,-6.5601,-6.5321,-6.5014,-6.4882,-6.4705,-6.4558,-6.4558,-6.4444,-6.4284,-6.4284,-6.4101,-6.3804,-6.3389,-6.3156,-6.2876,-6.2199,-6.1759,-6.1429,-6.1067,-6.0714,-6.0408,-6.0408,-6.0453,-6.0456,-6.0022,-5.9701,-5.9235,-5.8434,-5.761,-5.696,-5.6578,-5.6213,-5.5961,-5.5998,-5.5995,-5.6012,-5.6046,-5.6132,-5.6188,-5.62,-5.629,-5.6191,-5.5762,-5.5723,-5.5364,-5.4468,-5.365,-5.2792,-5.1888,-5.1415,-5.1152,-5.1131,-5.2007,-5.2115,-5.1278,-5.2129,-5.2194,-5.1375,-5.2689,-5.36,-5.399,-5.399,-5.399,0.0,0.0,0.0,0.0,0.0,0.0,0.0,-4.0729,-4.2791,-4.6013,-4.8346,-5.0999,-5.5062,-5.747,-5.9711,-6.2242,-6.3326,-6.3823,-6.3873,-6.5161,-6.6434,-6.7431,-6.9001,-7.0324,-7.1214,-7.1291,-7.1291,-7.1291,-7.1291,-7.1291,-7.1291,-7.1355,-7.0756,-6.9342,-6.9208,-6.8413,-6.6901,-6.6613,-6.6438,-6.6284,-6.6244,-6.6185,-6.6185,-6.6185,-6.6185,-6.6185,-6.6144,-6.5913,-6.5575,-6.5047,-6.4813,-6.4777,-6.4405,-6.4284,-6.4284,-6.4324,-6.4364,-6.4364,-6.4403,-6.452,-6.4558,-6.3877,-6.3862,-6.3981,-6.3137,-6.2421,-6.1822,-6.1669,-6.0953,-6.0285,-6.0285,-6.0304,-6.0387,-6.0387,-5.9958,-5.9523,-5.9331,-5.8366,-5.7456,-5.7302,-5.6849,-5.6443,-5.6289,-5.6248,-5.6205,-5.6101,-5.6133,-5.618,-5.617,-5.6251,-5.6278,-5.6278,-5.6291,-5.6019,-5.532,-5.431,-5.3689,-5.3689,-5.2873,-5.2484,-5.264,-5.218,-5.194,-5.195,-5.3557,-5.4294,-5.4144,-5.5616,-5.645,-5.6606,-5.6606,-5.6606,-3.1008,-3.2382,-3.5058,-3.9781,-4.0103,-4.1496,0.0,-5.0161,-4.9653,-5.3486,-5.4992,-5.6316,-5.8553,-5.9776,-6.112,-6.3123,-6.3705,-6.3873,-6.3915,-6.452,-6.5365,-6.6522,-6.8655,-7.0324,-7.1214,-7.1291,-7.1291,-7.1291,-7.1291,-7.1291,-7.1291,-7.1355,-7.1278,-7.1042,-7.031,-6.9497,-6.8527,-6.7733,-6.6959,-6.6185,-6.6185,-6.6185,-6.6185,-6.6185,-6.6185,-6.6165,-6.589,-6.5601,-6.5329,-6.4947,-6.4813,-6.4777,-6.4405,-6.4284,-6.4324,-6.452,-6.4558,-6.4596,-6.4781,-6.4853,-6.4888,-6.4909,-6.4938,-6.4851,-6.4207,-6.3427,-6.2586,-6.1822,-6.0738,-5.9874,-5.9874,-5.9739,-5.9639,-5.9639,-5.9696,-5.9526,-5.8767,-5.873,-5.8655,-5.7939,-5.8038,-5.8007,-5.7271,-5.7155,-5.6902,-5.6128,-5.6062,-5.6117,-5.6094,-5.6156,-5.6199,-5.6199,-5.6278,-5.6253,-5.6175,-5.466,-5.3689,-5.3689,-5.2873,-5.2756,-5.3533,-5.4206,-5.4618,-5.4674,-5.5628,-5.5755,-5.5048,-5.5309,-5.5825,-5.6606,-5.6606,-5.6606,-3.5103,-3.6932,-3.8938,-4.2623,-4.4189,-4.6115,-5.1026,-5.2145,-5.306,-5.6204,-5.7474,-5.8602,-6.0521,-6.1136,-6.1922,-6.3482,-6.3786,-6.3915,-6.4,-6.4631,-6.5449,-6.6407,-6.7705,-6.9087,-7.0402,-7.0518,-7.075,-7.1253,-7.1291,-7.1291,-7.1291,-7.1313,-7.1081,-7.0556,-7.023,-6.9378,-6.8081,-6.7694,-6.7075,-6.6185,-6.6185,-6.6185,-6.6185,-6.6185,-6.6084,-6.589,-6.5408,-6.5105,-6.4981,-6.4632,-6.4521,-6.4521,-6.4481,-6.4403,-6.4324,-6.452,-6.4596,-6.4634,-6.4817,-6.4958,-6.4989,-6.4813,-6.4848,-6.4841,-6.4323,-6.357,-6.2738,-6.1936,-6.0966,-6.0071,-5.9723,-5.9571,-5.9537,-5.9609,-5.9711,-5.9696,-5.9355,-5.9049,-5.8797,-5.8443,-5.817,-5.7958,-5.7574,-5.7536,-5.7382,-5.7036,-5.6058,-5.5552,-5.6071,-5.5753,-5.5627,-5.616,-5.6265,-5.6097,-5.5592,-5.532,-5.5009,-5.4504,-5.4116,-5.4089,-5.4486,-5.4875,-5.5073,-5.5155,-5.6496,-5.6836,-5.6006,-5.6523,-5.6957,-5.7309,-5.7816,-5.805,-3.7493,-3.9865,-4.1877,-4.5033,-4.7635,-4.9885,-5.2101,-5.3817,-5.5575,-5.7954,-5.9003,-6.0022,-6.1623,-6.2005,-6.2479,-6.3647,-6.383,-6.3958,-6.4083,-6.4704,-6.5436,-6.6101,-6.6667,-6.763,-6.9164,-6.9512,-7.0015,-7.0866,-7.0943,-7.1059,-7.1291,-7.1291,-7.1021,-7.0363,-7.0363,-6.9551,-6.7887,-6.7849,-6.7307,-6.6185,-6.6185,-6.6185,-6.6185,-6.6084,-6.5842,-6.5437,-6.4981,-6.4741,-6.4632,-6.4403,-6.4284,-6.4324,-6.452,-6.452,-6.4403,-6.4633,-6.4745,-6.4708,-6.4853,-6.4955,-6.4951,-6.452,-6.4483,-6.452,-6.4176,-6.3533,-6.2782,-6.2297,-6.143,-6.0489,-5.9853,-5.9665,-5.9553,-5.94,-5.9434,-5.9505,-5.9505,-5.9181,-5.8919,-5.8919,-5.8635,-5.8318,-5.8088,-5.805,-5.7974,-5.7745,-5.6313,-5.5614,-5.6592,-5.6056,-5.5923,-5.6834,-5.655,-5.6214,-5.6058,-5.6214,-5.6136,-5.5747,-5.5476,-5.55,-5.5763,-5.5813,-5.5939,-5.6257,-5.7506,-5.7869,-5.7309,-5.7621,-5.7933,-5.8168,-5.8558,-5.8987,-3.6877,-3.9532,-4.2853,-4.7559,-4.9821,-5.1977,-5.6156,-5.7123,-5.774,-5.9634,-6.0503,-6.1163,-6.1787,-6.2339,-6.2929,-6.3691,-6.3867,-6.3958,-6.4042,-6.4521,-6.4951,-6.5307,-6.5586,-6.6251,-6.748,-6.8352,-6.9164,-6.9976,-7.0054,-7.0402,-7.1253,-7.1291,-7.1291,-7.1253,-7.1253,-7.044,-6.8777,-6.8777,-6.7887,-6.6185,-6.6185,-6.6185,-6.6185,-6.5866,-6.5408,-6.4848,-6.4813,-6.4633,-6.4324,-6.4284,-6.4284,-6.4324,-6.452,-6.4596,-6.4634,-6.4951,-6.4989,-6.4888,-6.4813,-6.4813,-6.4739,-6.4254,-6.4096,-6.4096,-6.4096,-6.3533,-6.2932,-6.3049,-6.2173,-6.0986,-6.0367,-6.0013,-5.9573,-5.8757,-5.8656,-5.8739,-5.8739,-5.9103,-5.9499,-5.9499,-5.9817,-5.9873,-5.9109,-5.8956,-5.8661,-5.7821,-5.6943,-5.6741,-5.7912,-5.7639,-5.7683,-5.8609,-5.7263,-5.6952,-5.8545,-5.7224,-5.6641,-5.7457,-5.6719,-5.664,-5.7476,-5.7515,-5.7965,-5.8949,-5.9027,-5.9039,-5.9026,-5.8207,-5.8246,-5.9026,-5.8207,-5.8753,-3.8836,-4.164,-4.4697,-4.9708,-5.1625,-5.3246,-5.7171,-5.8012,-5.8325,-5.9214,-5.9558,-5.9799,-6.0286,-6.0913,-6.1789,-6.3009,-6.3579,-6.4083,-6.4483,-6.4879,-6.5238,-6.552,-6.5842,-6.6179,-6.6611,-6.7423,-6.8274,-6.9125,-6.9705,-7.0131,-7.0402,-7.0982,-7.1291,-7.1291,-7.075,-6.9899,-6.8816,-6.8236,-6.7346,-6.6185,-6.5958,-6.5866,-6.5866,-6.535,-6.5014,-6.4777,-6.4558,-6.4366,-6.4284,-6.4284,-6.4364,-6.452,-6.4708,-6.4781,-6.4817,-6.4882,-6.4777,-6.4632,-6.4777,-6.4631,-6.4292,-6.3846,-6.3674,-6.3631,-6.3354,-6.3123,-6.288,-6.2487,-6.2072,-6.1612,-6.1007,-6.0327,-5.9715,-5.9504,-5.9064,-5.8698,-5.8818,-5.8984,-5.9178,-5.929,-5.947,-5.953,-5.9265,-5.9194,-5.9246,-5.9359,-5.8374,-5.7543,-5.7324,-5.7907,-5.8435,-5.8775,-5.8298,-5.7962,-5.8001,-5.7962,-5.7845,-5.7612,-5.7845,-5.8129,-5.8501,-5.9095,-5.9295,-5.909,-5.968,-5.9407,-5.8246,-5.8519,-5.8519,-5.8246,-5.9104,-6.0159,-4.0777,-4.3388,-4.6051,-5.1421,-5.3081,-5.4209,-5.7606,-5.8217,-5.8084,-5.8514,-5.8351,-5.8281,-5.8621,-5.9088,-6.0052,-6.2002,-6.272,-6.3368,-6.4407,-6.4947,-6.5291,-6.552,-6.5951,-6.6185,-6.6185,-6.6727,-6.7384,-6.8274,-6.9087,-6.9705,-6.9976,-7.0827,-7.1291,-7.1291,-7.044,-6.9589,-6.8816,-6.7926,-6.6995,-6.6019,-6.5779,-6.5601,-6.5379,-6.4981,-6.4741,-6.4633,-6.4403,-6.4284,-6.4284,-6.4364,-6.4481,-6.4634,-6.485,-6.485,-6.4743,-6.4813,-6.452,-6.4172,-6.4292,-6.4134,-6.3846,-6.34,-6.3252,-6.3205,-6.2904,-6.2904,-6.294,-6.2556,-6.2466,-6.2373,-6.1775,-6.1181,-6.0654,-6.0449,-6.0003,-5.9673,-5.9797,-5.9918,-5.996,-6.0076,-5.989,-5.9778,-5.9778,-5.9515,-5.9434,-5.9798,-5.9343,-5.8842,-5.8529,-5.8906,-5.9366,-5.9706,-5.9191,-5.8855,-5.8933,-5.9166,-5.9166,-5.8972,-5.9438,-5.9658,-5.9455,-6.001,-5.9935,-5.9104,-5.9339,-5.9065,-5.8285,-5.8519,-5.8831,-5.9222,-6.0354,-6.149,-4.2636,-4.4857,-4.6886,-5.2548,-5.3976,-5.4755,-5.764,-5.7773,-5.7295,-5.7604,-5.705,-5.6613,-5.6776,-5.7015,-5.8042,-6.0683,-6.1284,-6.2039,-6.3859,-6.4701,-6.513,-6.5299,-6.5818,-6.6185,-6.6185,-6.6224,-6.6611,-6.7423,-6.8313,-6.9125,-6.9899,-7.075,-7.1253,-7.1291,-7.0402,-6.9551,-6.8816,-6.7866,-6.683,-6.5705,-6.568,-6.535,-6.4813,-6.4777,-6.4633,-6.4284,-6.4284,-6.4284,-6.4324,-6.452,-6.4596,-6.4634,-6.4917,-6.4848,-6.452,-6.4668,-6.4214,-6.349,-6.349,-6.3445,-6.34,-6.2917,-6.2805,-6.2805,-6.2805,-6.2904,-6.3051,-6.3147,-6.3289,-6.328,-6.2628,-6.245,-6.2234,-6.1544,-6.1321,-6.1363,-6.1487,-6.1606,-6.1726,-6.1726,-6.1128,-6.0642,-6.0604,-5.9929,-5.9365,-5.9327,-5.9893,-6.0531,-6.1173,-6.0544,-6.0399,-6.1289,-5.9943,-5.9593,-6.1264,-6.0642,-6.0526,-6.1342,-6.1381,-6.1007,-6.0312,-6.0273,-5.9849,-5.9065,-5.8285,-5.8285,-5.9104,-5.8363,-5.93,-6.1759,-6.1798,-6.2748,-4.4468,-4.656,-4.8402,-5.2922,-5.3976,-5.4659,-5.7031,-5.6952,-5.6196,-5.5339,-5.4592,-5.3816,-5.294,-5.5192,-5.751,-5.8527,-6.1177,-6.343,-6.4215,-6.4769,-6.5192,-6.5493,-6.5913,-6.6185,-6.6185,-6.6804,-6.7268,-6.7501,-6.8313,-6.8893,-6.9087,-6.9899,-7.0634,-7.1291,-6.986,-6.9009,-6.8816,-6.7055,-6.601,-6.5705,-6.5261,-6.4947,-6.4777,-6.4558,-6.4403,-6.4284,-6.4284,-6.4284,-6.4284,-6.4364,-6.4558,-6.4781,-6.4521,-6.452,-6.4631,-6.4053,-6.3712,-6.3445,-6.311,-6.2965,-6.2953,-6.2855,-6.2805,-6.2805,-6.2904,-6.3051,-6.3147,-6.3289,-6.3465,-6.3519,-6.3342,-6.2903,-6.247,-6.2289,-6.1852,-6.1487,-6.1646,-6.1686,-6.1726,-6.1767,-6.1618,-6.1318,-6.0717,-6.0563,-6.0358,-5.9753,-5.9985,-6.0326,-6.0531,-6.0809,-6.1074,-6.1298,-6.0978,-6.0914,-6.1381,-6.1186,-6.1147,-6.1381,-6.0798,-6.0397,-6.0312,-5.9698,-5.896,-5.8168,-5.8558,-5.887,-5.9104,-6.0198,-6.1369,-6.2696,-6.3321,-6.4232,-4.6588,-4.8517,-5.0044,-5.3221,-5.423,-5.4644,-5.5547,-5.5037,-5.3811,-5.1724,-5.077,-4.9933,-4.8808,-5.1726,-5.4781,-5.6286,-5.9719,-6.2836,-6.4709,-6.5369,-6.5826,-6.6166,-6.6537,-6.6766,-6.6766,-6.723,-6.7655,-6.8042,-6.8854,-6.9319,-6.9319,-7.0131,-7.0789,-7.1291,-7.0015,-6.8889,-6.8004,-6.6473,-6.5575,-6.5321,-6.4981,-6.4705,-6.4596,-6.4403,-6.4284,-6.4284,-6.4284,-6.4284,-6.4284,-6.4247,-6.4405,-6.4558,-6.4251,-6.4212,-6.4174,-6.3712,-6.3354,-6.3158,-6.2953,-6.2904,-6.2904,-6.2904,-6.2904,-6.3002,-6.3051,-6.3194,-6.3289,-6.3382,-6.3557,-6.3691,-6.3691,-6.3444,-6.3195,-6.3238,-6.2949,-6.2694,-6.2816,-6.2816,-6.278,-6.2444,-6.2369,-6.2106,-6.128,-6.1242,-6.1198,-6.0745,-6.0936,-6.1035,-6.0771,-6.0949,-6.1131,-6.1181,-6.1337,-6.1419,-6.1419,-6.1419,-6.1225,-6.0837,-6.037,-5.9996,-5.9698,-5.9611,-5.9342,-5.8928,-5.9763,-6.0432,-6.0822,-6.1798,-6.293,-6.414,-6.4648,-6.5325,-4.8718,-5.0484,-5.1729,-5.3742,-5.4487,-5.456,-5.3888,-5.2688,-5.0795,-4.7716,-4.6575,-4.5853,-4.5043,-4.7838,-5.1275,-5.4348,-5.7856,-6.1422,-6.5011,-6.6083,-6.6536,-6.6769,-6.7232,-6.7462,-6.7346,-6.7539,-6.8003,-6.8738,-6.9667,-7.0131,-7.0015,-7.0711,-7.1137,-7.1137,-7.0341,-6.9108,-6.7359,-6.6396,-6.5588,-6.4964,-6.5006,-6.4785,-6.4284,-6.4397,-6.4397,-6.4284,-6.4284,-6.4324,-6.4324,-6.4287,-6.4249,-6.4249,-6.4094,-6.3846,-6.349,-6.3445,-6.3158,-6.2805,-6.2953,-6.3002,-6.3051,-6.3051,-6.3099,-6.3194,-6.3194,-6.3289,-6.3382,-6.3428,-6.3647,-6.378,-6.378,-6.3867,-6.3958,-6.4042,-6.4083,-6.4162,-6.4284,-6.4284,-6.4096,-6.3383,-6.327,-6.3008,-6.2106,-6.1956,-6.1919,-6.1806,-6.2068,-6.2079,-6.152,-6.1147,-6.098,-6.1059,-6.1236,-6.1352,-6.1352,-6.1483,-6.1264,-6.0487,-6.0448,-6.0125,-5.941,-6.0087,-6.0456,-6.0464,-6.1387,-6.2301,-6.3164,-6.3282,-6.4179,-6.5741,-6.578,-6.618,-5.0218,-5.1423,-5.2745,-5.5183,-5.4448,-5.3202,-5.346,-5.0932,-4.7919,-4.593,-4.4425,-4.3395,-4.3235,-4.6481,-5.0232,-5.3493,-5.7679,-6.1469,-6.418,-6.5797,-6.6535,-6.5897,-6.6823,-6.723,-6.6495,-6.7733,-6.8661,-6.8777,-7.0208,-7.075,-7.0054,-7.0131,-7.0208,-7.0208,-6.9808,-6.9412,-6.909,-6.7643,-6.6549,-6.5798,-6.6255,-6.5717,-6.4322,-6.4998,-6.4923,-6.4284,-6.4284,-6.4403,-6.4558,-6.4558,-6.4521,-6.4407,-6.4012,-6.3718,-6.3445,-6.3062,-6.2855,-6.2805,-6.2953,-6.3051,-6.3147,-6.3147,-6.3147,-6.3194,-6.3336,-6.3382,-6.3465,-6.3647,-6.3736,-6.3823,-6.3867,-6.3958,-6.4042,-6.4083,-6.4203,-6.4284,-6.4284,-6.4284,-6.4247,-6.4096,-6.4096,-6.3834,-6.3008,-6.2857,-6.2632,-6.1919,-6.1995,-6.2138,-6.2193,-6.1879,-6.1435,-6.0916,-6.1041,-6.1148,-6.1148,-6.1943,-6.2429,-6.2274,-6.2235,-6.2185,-6.2055,-6.1562,-6.1305,-6.1354,-6.2219,-6.3137,-6.4062,-6.4804,-6.5663,-6.66,-6.6639,-6.6761,-5.1423,-5.2838,-5.4274,-5.5777,-5.5007,-5.3483,-5.1993,-4.9188,-4.6009,-4.2752,-4.1639,-4.1055,-4.0456,-4.4198,-4.8234,-5.0933,-5.4685,-5.8869,-6.3448,-6.4818,-6.5843,-6.7123,-6.8149,-6.8468,-6.7617,-6.8313,-6.897,-6.9396,-7.017,-7.0634,-7.0672,-7.0672,-7.0672,-7.0672,-7.0096,-6.9592,-6.9251,-6.8068,-6.7192,-6.656,-6.6739,-6.6247,-6.5276,-6.6027,-6.5688,-6.4634,-6.5049,-6.5049,-6.4745,-6.4596,-6.4406,-6.4094,-6.3761,-6.3445,-6.311,-6.2953,-6.3198,-6.3616,-6.3774,-6.387,-6.3918,-6.4049,-6.3752,-6.3419,-6.3511,-6.3557,-6.3647,-6.3736,-6.3867,-6.3953,-6.4,-6.4083,-6.4203,-6.4203,-6.4244,-6.4284,-6.4284,-6.4284,-6.4284,-6.4284,-6.4284,-6.4172,-6.3796,-6.3721,-6.361,-6.3313,-6.3352,-6.3347,-6.3209,-6.304,-6.2661,-6.2117,-6.2277,-6.2469,-6.2469,-6.3014,-6.3168,-6.274,-6.2701,-6.2716,-6.2704,-6.2819,-6.3078,-6.3592,-6.445,-6.5139,-6.5585,-6.6014,-6.6405,-6.6795,-6.6834,-6.6883,-5.2664,-5.42,-5.5716,-5.6393,-5.5425,-5.3639,-5.0666,-4.7666,-4.4308,-4.0165,-3.9297,-3.9188,-3.8685,-4.2223,-4.6168,-4.9108,-5.2217,-5.6421,-6.2617,-6.4038,-6.5421,-6.8088,-6.9065,-6.9203,-6.8584,-6.8506,-6.8777,-6.9435,-6.9783,-7.0363,-7.1253,-7.1247,-7.1247,-7.1291,-7.0435,-6.9756,-6.9305,-6.8564,-6.7911,-6.7351,-6.7419,-6.7049,-6.6367,-6.7089,-6.6673,-6.5457,-6.6101,-6.5947,-6.5189,-6.497,-6.4593,-6.4107,-6.3979,-6.3678,-6.3406,-6.3518,-6.4009,-6.4648,-6.4816,-6.4864,-6.4911,-6.5041,-6.4419,-6.3602,-6.3602,-6.3691,-6.378,-6.3823,-6.3953,-6.4121,-6.4162,-6.4244,-6.4284,-6.4284,-6.4284,-6.4284,-6.4284,-6.4284,-6.4284,-6.4284,-6.4284,-6.4284,-6.4284,-6.4284,-6.4364,-6.4558,-6.4634,-6.4554,-6.4215,-6.4203,-6.4092,-6.3782,-6.3681,-6.3632,-6.3689,-6.4023,-6.3945,-6.3284,-6.3401,-6.3517,-6.3517,-6.4232,-6.4948,-6.566,-6.6408,-6.679,-6.6795,-6.6795,-6.6795,-6.6795,-6.6795,-6.6848,-5.3805,-5.5149,-5.6757,-5.7331,-5.5141,-5.2311,-5.0424,-4.6446,-4.2412,-3.9849,-3.8447,-3.8259,-3.9949,-4.1567,-4.4512,-5.0266,0.0,-5.6295,-6.1422,-6.4084,-6.5884,-6.7039,-6.7486,-6.7694,-6.7617,-6.7617,-6.7655,-6.7733,-6.9125,-7.0363,-7.1253,-7.1004,-7.0979,-7.1291,-7.0355,-6.9918,-7.019,-6.9625,-6.8977,-6.8181,-6.9133,-6.8717,-6.7313,-6.811,-6.7996,-6.7199,-6.7275,-6.6891,-6.6231,-6.6231,-6.5803,-6.5182,-6.5264,-6.5277,-6.5285,-6.5398,-6.5521,-6.5595,-6.5705,-6.5753,-6.5801,-6.5932,-6.4902,-6.3602,-6.3602,-6.3691,-6.3823,-6.3873,-6.4,-6.4162,-6.4244,-6.4284,-6.4284,-6.4284,-6.4284,-6.4284,-6.4284,-6.4284,-6.4284,-6.4284,-6.4284,-6.4284,-6.4284,-6.4284,-6.4364,-6.4558,-6.4745,-6.4886,-6.4976,-6.5137,-6.5321,-6.546,-6.4263,-6.3475,-6.3669,-6.4527,-6.5071,-6.4993,-6.5732,-6.6159,-6.6159,-6.6283,-6.6423,-6.6595,-6.6728,-6.6805,-6.6795,-6.6795,-6.6795,-6.6795,-6.6873,-6.6887,-5.4429,-5.5749,-5.6911,-5.7848,-5.5655,-5.2814,-5.0967,-4.686,-4.2658,-3.9884,-3.8534,-3.8256,-3.9514,-4.096,-4.3219,0.0,0.0,0.0,-5.5479,-5.828,-6.0873,-6.3729,-6.5943,-6.7332,-6.748,-6.7501,-6.7733,-6.8236,-6.9357,-7.0297,-7.0965,-7.0875,-7.0755,-7.07,-7.0304,-7.0068,-7.0035,-6.989,-6.9626,-6.9208,-6.9626,-6.9321,-6.8502,-6.9163,-6.8856,-6.774,-6.8274,-6.8041,-6.7305,-6.7407,-6.7064,-6.656,-6.6407,-6.6186,-6.5979,-6.5864,-6.6149,-6.6556,-6.6786,-6.6881,-6.6881,-6.6984,-6.6247,-6.5203,-6.4629,-6.4233,-6.3995,-6.4,-6.4121,-6.4244,-6.4284,-6.4284,-6.4284,-6.4284,-6.4284,-6.4284,-6.4284,-6.4284,-6.4284,-6.4284,-6.4284,-6.4284,-6.4284,-6.4284,-6.4364,-6.4558,-6.4781,-6.4958,-6.5052,-6.5283,-6.5523,-6.5832,-6.5311,-6.502,-6.518,-6.5691,-6.5965,-6.5965,-6.6314,-6.6508,-6.6508,-6.6581,-6.6691,-6.6712,-6.6783,-6.6784,-6.6795,-6.6795,-6.6795,-6.6795,-6.6873,-6.6887,-5.4468,-5.6018,-5.7338,-5.7936,-5.5893,-5.3135,-5.0837,-4.684,-4.2763,-3.9884,-3.8647,-3.8427,-3.9476,-4.0762,-4.2552,0.0,0.0,-4.7723,-5.219,-5.4836,-5.7824,-6.1837,-6.4474,-6.6251,-6.7054,-6.7114,-6.7578,-6.8738,-6.9319,-6.9981,-7.0689,-7.0766,-7.0613,-7.04,-7.0238,-7.0106,-7.0001,-7.0073,-7.0038,-6.9891,-6.9965,-6.9839,-6.9578,-6.998,-6.9599,-6.8661,-6.9343,-6.9113,-6.8342,-6.8441,-6.8209,-6.7759,-6.7579,-6.7309,-6.7023,-6.6955,-6.7178,-6.7603,-6.784,-6.7924,-6.7887,-6.7979,-6.7427,-6.6687,-6.6038,-6.5191,-6.4421,-6.4158,-6.4203,-6.4324,-6.4405,-6.4403,-6.4284,-6.4284,-6.4284,-6.4284,-6.4284,-6.4284,-6.4284,-6.4284,-6.4284,-6.4284,-6.4284,-6.4284,-6.4364,-6.4558,-6.4781,-6.4958,-6.5052,-6.5345,-6.5635,-6.5951,-6.6019,-6.6126,-6.6281,-6.6422,-6.6508,-6.6508,-6.6508,-6.6508,-6.6508,-6.6645,-6.6712,-6.6712,-6.6766,-6.6795,-6.6795,-6.6795,-6.6795,-6.6795,-6.6873,-6.691,-5.3832,-5.6163,-5.8251,-5.7499,-5.5369,-5.271,-4.9642,-4.5734,-4.2166,-3.9814,-3.8647,-3.8572,-4.0165,-4.1103,-4.2649,-4.5955,0.0,0.0,-5.3493,-5.5789,-5.8515,-6.2357,-6.3053,-6.4016,-6.601,-6.6224,-6.692,-6.8661,-6.8816,-6.9355,-7.0546,-7.0593,-7.0593,-7.0593,-7.0106,-7.0001,-7.0419,-7.0179,-7.0109,-7.0109,-7.0281,-7.0419,-7.0381,-7.0381,-7.0381,-7.0381,-7.0515,-7.0087,-6.9284,-6.9374,-6.9107,-6.8701,-6.8841,-6.8906,-6.8922,-6.9176,-6.9034,-6.8697,-6.8838,-6.8884,-6.8884,-6.8884,-6.8414,-6.7791,-6.7791,-6.663,-6.5207,-6.4346,-6.4203,-6.4403,-6.4705,-6.4558,-6.4284,-6.4284,-6.4284,-6.4284,-6.4284,-6.4284,-6.4284,-6.4284,-6.4284,-6.4284,-6.4284,-6.4284,-6.4364,-6.4558,-6.4781,-6.4958,-6.5052,-6.5456,-6.5756,-6.5951,-6.6126,-6.6281,-6.6493,-6.6508,-6.6508,-6.6508,-6.6508,-6.6508,-6.6508,-6.6645,-6.6712,-6.6712,-6.6766,-6.6795,-6.6795,-6.6795,-6.6795,-6.6795,-6.6873,-6.6887,-5.1766,-5.3314,-5.4324,-5.396,-5.2459,-5.0553,-4.8381,-4.5264,-4.222,-4.0081,-3.8797,-3.8458,-3.9812,-4.0892,-4.2872,-4.6698,-4.8066,0.0,-5.2858,-5.6045,-5.8615,-6.0092,-6.3214,-6.5484,-6.6147,-6.6185,-6.6688,-6.7849,-6.7967,-6.8287,-6.8975,-6.909,-6.9366,-7.0033,-6.989,-6.9891,-7.0001,-7.0073,-7.0109,-7.0109,-7.0281,-7.0419,-7.0419,-7.0419,-7.0451,-7.0554,-7.0554,-7.0463,-7.0256,-7.0345,-7.0277,-7.0118,-6.9722,-6.9587,-6.9546,-6.9166,-6.8975,-6.8838,-6.8975,-6.8937,-6.8983,-6.9109,-6.8966,-6.8715,-6.8407,-6.7126,-6.5691,-6.5072,-6.4632,-6.4403,-6.4705,-6.4705,-6.4596,-6.4364,-6.4482,-6.4596,-6.4364,-6.4284,-6.4284,-6.4284,-6.4284,-6.4284,-6.4284,-6.4284,-6.4324,-6.4364,-6.4671,-6.4924,-6.4958,-6.5367,-6.5795,-6.5951,-6.6126,-6.6281,-6.6493,-6.6508,-6.6508,-6.6508,-6.6514,-6.6594,-6.6594,-6.6712,-6.6759,-6.6759,-6.6778,-6.6795,-6.6795,-6.6795,-6.6795,-6.68,-6.6836,-6.6856,-4.9633,-5.1691,-5.2632,-5.1952,-5.0585,-4.8901,-4.6996,-4.4272,-4.1697,-4.0139,-3.8977,-3.8583,-3.9606,-4.051,-4.2166,-4.5324,-4.6871,-4.8721,-5.1588,-5.5211,-5.8334,-6.0379,-6.3676,-6.576,-6.576,-6.6031,-6.6572,-6.7444,-6.7561,-6.7849,-6.8428,-6.841,-6.8636,-6.9184,-6.9427,-6.9733,-7.0038,-7.0144,-7.0213,-7.0213,-7.0315,-7.0419,-7.0419,-7.0451,-7.0522,-7.0585,-7.0647,-7.0708,0.0,-7.0815,-7.0843,-7.0843,-7.0342,-7.0033,-6.9889,-6.9378,-6.9109,-6.8975,-6.9027,-6.9072,-6.9116,-6.9336,-6.9542,-6.9512,-6.904,-6.7855,-6.6645,-6.6307,-6.5635,-6.4973,-6.5196,-6.4932,-6.4558,-6.4364,-6.4444,-6.4558,-6.4364,-6.4284,-6.4284,-6.4284,-6.4284,-6.4284,-6.4284,-6.4364,-6.4403,-6.4403,-6.4707,-6.4993,-6.4993,-6.5397,-6.5795,-6.5951,-6.6126,-6.6281,-6.6493,-6.6508,-6.6508,-6.6508,-6.6553,-6.6542,-6.6542,-6.6702,-6.6759,-6.6759,-6.6772,-6.6795,-6.6795,-6.6795,-6.6813,-6.6791,-6.6823,-6.6767,0.0,-5.0535,-5.2283,-5.084,-4.9327,-4.7603,-4.5422,-4.2881,0.0,-3.9971,-3.9184,-3.8866,-3.9779,-4.0244,-4.1089,-4.2946,-4.4712,-4.7005,-5.0389,-5.4037,-5.8149,-6.2834,-6.4398,-6.5102,-6.5102,-6.576,-6.6554,-6.7426,-6.7503,-6.7793,-6.8488,-6.8351,-6.8219,-6.8125,-6.874,-6.9419,-7.0228,-7.0304,-7.0304,-7.0342,-7.0381,-7.0419,-7.0419,-7.0554,-7.0585,-7.0616,-7.0767,-7.0787,-7.0815,-7.0871,-7.0952,-7.0979,-7.0631,-7.031,-6.9997,-6.9739,-6.9416,-6.9027,-6.9203,-6.9246,-6.9332,-6.9739,-7.0068,-7.0247,-6.9739,-6.8781,-6.7852,-6.7883,-6.7049,-6.6135,-6.6137,-6.5313,-6.4439,-6.4399,-6.4362,-6.4324,-6.4284,-6.4284,-6.4284,-6.4284,-6.4284,-6.4284,-6.4324,-6.4481,-6.4596,-6.4634,-6.492,-6.5085,-6.5085,-6.5456,-6.5782,-6.5974,-6.6147,-6.6299,-6.6493,-6.6508,-6.6508,-6.6508,-6.6524,-6.6524,-6.6524,-6.6618,-6.6722,-6.6722,-6.6766,-6.6795,-6.6795,-6.6795,-6.6789,-6.682,-6.6844,-6.6624,-4.3054,0.0,-4.69,-4.655,-4.5724,-4.4683,0.0,-4.1893,-4.042,-3.9868,-3.915,-3.9111,-4.0866,-4.1245,-4.2679,-4.6871,-4.9057,-5.1174,-5.3936,-5.7725,-6.1529,-6.5054,-6.574,-6.5915,-6.5915,-6.6108,-6.6322,-6.6574,-6.665,-6.6764,-6.6937,-6.6787,-6.6935,-6.7408,-6.7434,-6.7774,-6.847,-6.9158,-6.9464,-6.9502,-7.0216,-7.0554,-7.0554,-7.0647,-7.0708,-7.0729,-7.0787,-7.0815,-7.0871,-7.0952,-7.0979,-7.0952,-7.047,-7.0243,-7.0106,-6.9542,-6.9246,-6.9203,-6.9542,-6.9661,-6.9739,-7.0068,-7.0432,-7.0661,-7.0525,-6.9663,-6.8709,-6.8578,-6.7993,-6.7381,-6.7381,-6.6706,-6.5859,-6.5346,-6.4935,-6.4633,-6.4364,-6.4284,-6.4284,-6.4284,-6.4284,-6.4364,-6.452,-6.4558,-6.4634,-6.4781,-6.4989,-6.5085,-6.5085,-6.5597,-6.5928,-6.5974,-6.6244,-6.6439,-6.6508,-6.6508,-6.6508,-6.6508,-6.662,-6.6669,-6.6669,-6.6736,-6.6772,-6.6772,-6.679,-6.6795,-6.6795,-6.6795,-6.6789,-6.6781,-6.6511,-6.6295,-4.1156,-4.3175,-4.5048,-4.465,-4.4252,-4.371,-4.2989,-4.1397,-4.0045,-3.9836,-3.9258,-3.9254,-4.0762,-4.1646,-4.3162,-4.6307,-4.9206,-5.2554,-5.6842,-6.0456,-6.3472,-6.572,-6.6123,-6.6185,-6.6185,-6.6185,-6.6264,-6.634,-6.6376,-6.6411,-6.6422,-6.6225,-6.6278,-6.663,-6.6358,-6.6757,-6.7897,-6.8356,-6.8585,-6.8623,-6.9176,-6.9437,-6.9398,-6.9557,-6.9644,-6.9634,-6.9701,-6.9948,-7.0413,-7.0439,-7.0606,-7.0832,-7.0375,-7.0141,-6.9963,-6.9378,-6.9203,-6.9246,-6.9661,-6.9999,-7.0304,-7.0494,-7.0755,-7.1067,-7.1091,-7.0581,-6.9986,-6.9617,-6.8935,-6.8253,-6.799,-6.7275,-6.6445,-6.5683,-6.5308,-6.4973,-6.4399,-6.4284,-6.4324,-6.4403,-6.4443,-6.452,-6.4708,-6.4817,-6.485,-6.4955,-6.5123,-6.5252,-6.5252,-6.5513,-6.5782,-6.5974,-6.6147,-6.6338,-6.6493,-6.6508,-6.6508,-6.6508,-6.662,-6.663,-6.663,-6.6736,-6.6784,-6.6795,-6.6795,-6.6795,-6.6795,-6.6781,-6.6796,-6.679,-6.639,-6.6189,-4.1103,-4.3293,-4.5038,-4.4126,-4.4051,-4.3978,-4.3069,-4.1418,-4.0073,-4.0073,-3.9801,-3.9825,-4.0969,-4.2463,-4.3943,-4.5146,-4.8721,-5.3369,-5.9327,-6.2254,-6.4298,-6.5615,-6.6019,-6.6185,-6.6185,-6.6185,-6.6264,-6.6376,-6.6358,-6.6394,-6.6439,-6.6147,-6.6013,-6.5967,-6.5635,-6.6093,-6.7477,-6.763,-6.7706,-6.7737,-6.7914,-6.802,-6.805,-6.8234,-6.8328,-6.829,-6.8371,-6.8847,-6.9618,-6.9708,-7.0052,-7.0489,-7.0233,-6.9999,-6.9778,-6.9374,-6.9246,-6.9336,-6.9816,-7.0369,-7.0875,-7.0875,-7.1091,-7.1313,-7.1355,-7.1394,-7.1186,-7.0554,-6.9833,-6.9131,-6.8445,-6.7676,-6.6886,-6.609,-6.5714,-6.5298,-6.4702,-6.4399,-6.4364,-6.4596,-6.4634,-6.4671,-6.4888,-6.5023,-6.5085,-6.5117,-6.5283,-6.5413,-6.5413,-6.5444,-6.5608,-6.5951,-6.5997,-6.6147,-6.6493,-6.6508,-6.6508,-6.6508,-6.6555,-6.6606,-6.663,-6.675,-6.6805,-6.6795,-6.6795,-6.6795,-6.6795,-6.6796,-6.6777,-6.6689,-6.6905,-6.6972,-4.3645,-4.5228,-4.5509,-4.3755,-4.4234,-4.4744,-4.3453,-4.218,-4.1327,-4.1415,-4.1303,-4.1935,-4.4191,-4.5908,-4.7731,-5.0135,-5.3559,-5.7359,-6.1545,-6.2604,-6.3767,-6.5848,-6.6165,-6.6185,-6.6185,-6.6185,-6.6264,-6.6376,-6.6225,-6.6185,-6.6263,-6.6084,-6.5905,-6.5769,-6.569,-6.5695,-6.5796,-6.6522,-6.6896,-6.6957,-6.7774,-6.8206,-6.8262,-6.8345,-6.8371,-6.8371,-6.8398,-6.8501,-6.8706,-6.9173,-6.9462,-6.9616,-6.9801,-6.9853,-6.9778,-6.9374,-6.9457,-6.9778,-7.0432,-7.0902,-7.1208,-7.1208,-7.1291,-7.1394,-7.1415,-7.1435,-7.1355,-7.0821,-7.0594,-7.0392,-6.97,-6.8868,-6.8187,-6.7917,-6.6661,-6.553,-6.5766,-6.5011,-6.4403,-6.4781,-6.4708,-6.4708,-6.5023,-6.5085,-6.5188,-6.5314,-6.5413,-6.5413,-6.5413,-6.5552,-6.5731,-6.599,-6.6105,-6.6263,-6.6493,-6.6508,-6.6508,-6.6508,-6.6633,-6.6702,-6.6772,-6.6784,-6.679,-6.6795,-6.6795,-6.6795,-6.6795,-6.6796,-6.6618,-6.6346,-6.9214,-7.0499,-4.2087,-4.4009,-4.5361,-4.4554,-4.6074,-4.7608,-4.6955,-4.573,-4.4718,-4.4646,-4.459,-4.514,-4.7047,-4.903,-5.1525,-5.5025,-5.7454,-5.9736,-6.207,-6.339,-6.4594,-6.5812,-6.6063,-6.6185,-6.6185,-6.6041,-6.6019,-6.6205,-6.5997,-6.589,-6.6084,-6.5928,-6.582,-6.5717,-6.5608,-6.5494,-6.5435,-6.5856,-6.6077,-6.6106,-6.6643,-6.6918,-6.6946,-6.7025,-6.7051,-6.7051,-6.7051,-6.7256,-6.7614,-6.785,-6.8059,-6.8302,-6.8901,-6.9019,-6.8857,-6.935,-6.9852,-7.04,-7.07,-7.0902,-7.1004,-7.1004,-7.0979,-7.0953,-7.1004,-7.1091,-7.1067,-7.0643,-7.0643,-7.0584,-6.9963,-6.9436,-6.8943,-6.8527,-6.769,-6.6972,-6.6823,-6.5992,-6.5351,-6.5638,-6.5262,-6.5107,-6.583,-6.5938,-6.6122,-6.6674,-6.6751,-6.6598,-6.6178,-6.6192,-6.6162,-6.6029,-6.6063,-6.6206,-6.6493,-6.6508,-6.6538,-6.6581,-6.668,-6.672,-6.6795,-6.6795,-6.6795,-6.6795,-6.6795,-6.7732,-6.9606,-6.9605,-6.9399,-6.8999,-7.0557,-7.132,-4.1893,-4.3618,-4.5434,-4.6337,-4.7914,-4.9542,-5.038,-4.9214,-4.8112,-4.8475,-4.8532,-4.8829,-4.9799,-5.2302,-5.5361,-5.8902,-6.0716,-6.1881,-6.2766,-6.4336,-6.5493,-6.5755,-6.6063,-6.6185,-6.6144,-6.5951,-6.5866,-6.6058,-6.5769,-6.5692,-6.5905,-6.5769,-6.5635,-6.5635,-6.5465,-6.5405,-6.5494,-6.5523,-6.5523,-6.5552,-6.574,-6.5793,-6.582,-6.5872,-6.5872,-6.5755,-6.5781,-6.6008,-6.6404,-6.6536,-6.6745,-6.7087,-6.8035,-6.8409,-6.8549,-6.955,-7.0238,-7.07,-7.0755,-7.0728,-7.0671,-7.0766,-7.071,-7.0652,-7.0738,-7.086,-7.086,-7.0554,-7.0584,-7.0554,-6.9963,-6.97,-6.947,-6.9057,-6.8641,-6.8262,-6.7916,-6.7083,-6.6438,-6.6717,-6.6184,-6.5988,-6.6834,-6.698,-6.7171,-6.7821,-6.7897,-6.7668,-6.7056,-6.6827,-6.6586,-6.6314,-6.609,-6.6126,-6.6493,-6.6703,-6.6761,-6.6663,-6.6673,-6.672,-6.6795,-6.6795,-6.6795,-6.6795,-6.7615,-6.9338,-7.2002,-7.2014,-7.1745,-7.1312,-7.1275,-7.1296,-4.6683,-4.6568,-4.6337,-4.9529,-4.8884,-4.8377,-5.1825,-5.1091,-5.0323,-5.2439,-5.2806,-5.2714,-5.2632,-5.5958,-5.9288,-6.1002,-6.3126,-6.4617,-6.4845,-6.535,-6.5779,-6.6144,-6.6225,-6.6205,-6.6036,-6.6058,-6.6036,-6.5905,-6.5743,-6.5635,-6.5743,-6.5523,-6.5444,-6.5444,-6.5413,-6.5405,-6.5494,-6.5552,-6.5674,-6.5767,-6.5793,-6.582,-6.5897,-6.5897,-6.5728,-6.5329,-6.5456,-6.5405,-6.5194,-6.572,-6.6027,-6.6217,-6.7532,-6.8706,-6.9702,-7.0099,-7.0304,-7.04,-7.07,-7.0613,-7.0369,-7.0563,-7.0652,-7.0738,-7.0914,-7.0992,-7.0953,-7.0766,-7.071,-7.0554,-6.9963,-6.9816,-6.9816,-6.9961,-6.9245,-6.8677,-6.9022,-6.8133,-6.742,-6.7757,-6.7654,-6.7588,-6.7789,-6.7821,-6.7821,-6.7897,-6.7897,-6.7859,-6.7821,-6.7171,-6.6816,-6.7085,-6.6437,-6.6126,-6.6493,-6.7247,-6.7397,-6.6663,-6.6595,-6.6672,-6.679,-6.6795,-6.6795,-6.6795,-6.9996,-7.1733,-7.1988,-7.2014,-7.1745,-7.1315,-7.1292,-7.1319,-4.4509,-4.4893,-4.532,-4.7489,-4.8579,-5.0073,-5.3782,-5.4104,-5.4419,-5.7028,-5.7229,-5.6925,-5.6743,-5.9065,-6.1166,-6.177,-6.371,-6.5207,-6.5427,-6.5589,-6.573,-6.589,-6.6019,-6.5997,-6.5718,-6.564,-6.5613,-6.5717,-6.5456,-6.5337,-6.5494,-6.5435,-6.5413,-6.5413,-6.5413,-6.5435,-6.5552,-6.558,-6.558,-6.5494,-6.5494,-6.5485,-6.5513,-6.5513,-6.5367,-6.5079,-6.5367,-6.5245,-6.4813,-6.5046,-6.5087,-6.5123,-6.6657,-6.8291,-6.9853,-6.9963,-7.0103,-7.0337,-7.0463,-7.0271,-7.0035,-7.0209,-7.0209,-7.0209,-7.0375,-7.0501,-7.0593,-7.054,-7.0508,-7.0477,-7.0247,-7.0073,-7.0038,-7.0247,-6.9915,-6.9617,-6.9895,-6.9175,-6.8536,-6.8667,-6.8247,-6.8024,-6.8623,-6.8699,-6.889,-6.9387,-6.9464,-6.9273,-6.8776,-6.8432,-6.8195,-6.801,-6.7947,-6.7769,-6.7363,-6.7752,-6.7928,-6.7676,-6.7647,-6.7413,-6.6829,-6.679,-6.7805,-6.9996,-7.1324,-7.2006,-7.1989,-7.1939,-7.1799,-7.1633,-7.1412,-7.1299,-4.3547,-4.4278,-4.5455,-4.6827,-4.9114,-5.1988,-5.5758,-5.6501,-5.7277,-6.0411,-6.0295,-5.9628,-5.9474,-6.0868,-6.2029,-6.2029,-6.3778,-6.5238,-6.5465,-6.5575,-6.5654,-6.5743,-6.5881,-6.5856,-6.5559,-6.5446,-6.5456,-6.5523,-6.5345,-6.5252,-6.5413,-6.5413,-6.5413,-6.5413,-6.5444,-6.5435,-6.5465,-6.5456,-6.5367,-6.5105,-6.4976,-6.5009,-6.5105,-6.5175,-6.4976,-6.4701,-6.5117,-6.4951,-6.4521,-6.4558,-6.4632,-6.481,-6.6237,-6.7877,-6.9399,-6.9702,-6.9963,-7.0137,-7.0137,-6.9927,-6.9661,-6.9928,-6.9928,-6.9853,-7.0109,-7.0281,-7.0419,-7.0419,-7.0419,-7.0419,-7.0419,-7.0281,-7.0213,-7.0386,-7.0281,-7.0213,-7.0386,-6.996,-6.9578,-6.9578,-6.9082,-6.889,-6.9464,-6.9578,-6.9769,-7.0342,-7.0419,-7.019,-6.9655,-6.9349,-6.9,-6.855,-6.8781,-6.8713,-6.7985,-6.8396,-6.8458,-6.7759,-6.8728,-6.8583,-6.6868,-6.7844,-6.9567,-7.1948,-7.2002,-7.1981,-7.1992,-7.185,-7.1792,-7.1778,-7.1559,-7.1448,-4.497,-4.5547,-4.7204,-4.8541,-5.087,-5.3862,-5.7734,-5.7876,-5.8353,-6.2296,-6.1693,-6.0413,-6.0413,-6.1166,-6.1806,-6.1806,-6.3463,-6.4882,-6.5052,-6.5329,-6.5586,-6.5756,-6.5832,-6.5846,-6.5608,-6.5663,-6.5608,-6.5405,-6.5413,-6.5413,-6.5413,-6.5413,-6.5413,-6.5375,-6.5465,-6.5375,-6.5085,-6.5182,-6.5009,-6.4699,-6.4368,-6.4369,-6.4699,-6.4841,-6.4666,-6.4292,-6.4595,-6.4482,-6.4083,-6.4244,-6.4772,-6.5598,-6.6462,-6.75,-6.8603,-6.9475,-6.9778,-6.9778,-6.9778,-6.9542,-6.9246,-6.9661,-6.9816,-6.9853,-7.0281,-7.0419,-7.0419,-7.0419,-7.0419,-7.0419,-7.0419,-7.0419,-7.0419,-7.0419,-7.0419,-7.0419,-7.0419,-7.0419,-7.0419,-7.0419,-7.0419,-7.0419,-7.0419,-7.0419,-7.0419,-7.0419,-7.0419,-7.0419,-7.0419,-6.9693,-6.9038,-6.855,-6.8717,-6.8645,-6.8225,-6.9251,-6.8933,-6.6672,-6.9718,-7.0181,-6.6979,-7.0152,-7.1987,-7.1987,-7.1981,-7.1992,-7.202,-7.187,-7.1789,-7.1796,-7.1801,-7.1792,-4.3085,-4.4239,-4.6301,-4.7707,-5.1773,-5.6114,-5.8889,-5.9592,-6.0414,-6.3113,-6.2925,-6.2066,-6.1349,-6.2184,-6.2816,-6.2249,-6.3845,-6.5175,-6.5207,-6.5299,-6.5359,-6.5307,-6.5388,-6.5417,-6.5245,-6.5405,-6.5465,-6.5375,-6.5413,-6.5413,-6.5413,-6.5413,-6.5283,-6.4985,-6.5123,-6.4985,-6.463,-6.4701,-6.463,-6.4368,-6.4251,-6.4291,-6.4445,-6.4483,-6.4368,-6.4169,-6.4521,-6.4521,-6.4244,-6.4284,-6.4772,-6.5598,-6.6462,-6.7334,-6.8248,-6.9077,-6.9374,-6.9374,-6.9374,-6.9289,-6.9246,-6.9501,-6.9662,-6.9853,-7.0109,-7.0281,-7.0419,-7.0419,-7.0419,-7.0419,-7.0419,-7.0419,-7.0419,-7.0419,-7.0419,-7.0419,-7.0419,-7.0419,-7.0419,-7.0419,-7.0419,-7.0419,-7.0419,-7.0419,-7.0419,-7.0419,-7.0419,-7.0419,-7.0419,-7.031,-7.0018,-6.9461,-7.0109,-7.0235,-6.9445,-7.0432,-7.0805,-7.0146,-7.1026,-7.1263,-7.0504,-7.1468,-7.1987,-7.1987,-7.1981,-7.1953,-7.1864,-7.1831,-7.1807,-7.1794,-7.1809,-7.1654,-4.4085,-4.6163,-4.9029,-5.075,-5.4713,-5.8898,-6.1564,-6.2189,-6.2598,-6.3911,-6.3608,-6.3006,-6.2741,-6.305,-6.3311,-6.3122,-6.4095,-6.4985,-6.5117,-6.515,-6.515,-6.522,-6.5276,-6.5307,-6.5252,-6.5314,-6.5413,-6.5413,-6.5413,-6.5413,-6.5413,-6.5252,-6.5052,-6.481,-6.4775,-6.4595,-6.4214,-6.4331,-6.4291,-6.3963,-6.3963,-6.4004,-6.4091,-6.4131,-6.4128,-6.4121,-6.4405,-6.4444,-6.4284,-6.4284,-6.4585,-6.511,-6.5936,-6.68,-6.7626,-6.8452,-6.894,-6.9203,-6.9203,-6.9203,-6.9246,-6.9419,-6.9582,-6.9739,-7.0038,-7.0179,-7.0281,-7.0386,-7.0419,-7.0419,-7.0419,-7.0315,-7.0281,-7.0386,-7.0419,-7.0419,-7.0419,-7.0419,-7.0419,-7.0419,-7.0419,-7.0419,-7.0419,-7.0419,-7.0419,-7.0419,-7.0419,-7.0419,-7.0419,-7.0508,-7.0489,-7.031,-7.0815,-7.1028,-7.061,-7.1209,-7.1622,-7.1614,-7.1689,-7.1838,-7.201,-7.2008,-7.1987,-7.1987,-7.1988,-7.1912,-7.1786,-7.1813,-7.1789,-7.1817,-7.1794,-7.1692,-4.6663,-4.974,-5.3524,-5.5938,-5.8846,-6.1973,-6.496,-6.5105,-6.4666,-6.463,-6.3879,-6.3421,-6.4172,-6.3683,-6.3458,-6.4172,-6.4284,-6.4443,-6.4817,-6.4853,-6.4993,-6.5314,-6.5345,-6.5413,-6.5413,-6.5413,-6.5375,-6.5345,-6.5345,-6.5314,-6.5283,-6.4913,-6.4739,-6.4704,-6.4483,-6.4174,-6.3835,-6.4046,-6.3963,-6.3602,-6.3602,-6.3647,-6.378,-6.3873,-6.3958,-6.4162,-6.4244,-6.4284,-6.4284,-6.4284,-6.4284,-6.4359,-6.5185,-6.5974,-6.6762,-6.7664,-6.8452,-6.9128,-6.9203,-6.9203,-6.9203,-6.9419,-6.9501,-6.9582,-6.9965,-7.0073,-7.0144,-7.0315,-7.0386,-7.0419,-7.0419,-7.0247,-7.0144,-7.0315,-7.0386,-7.0386,-7.0419,-7.0419,-7.0419,-7.0419,-7.0419,-7.0419,-7.0419,-7.0419,-7.0419,-7.0419,-7.0419,-7.0419,-7.0419,-7.0419,-7.0563,-7.094,-7.1029,-7.1192,-7.1581,-7.1598,-7.1606,-7.1601,-7.186,-7.2004,-7.201,-7.2008,-7.1987,-7.1993,-7.1992,-7.1939,-7.1783,-7.1807,-7.1817,-7.1817,-7.1797,-7.1797,-4.4701,-4.7971,-5.2164,-5.5945,-6.0442,-6.427,-6.5635,-6.5531,-6.5079,-6.481,-6.437,-6.4096,-6.4247,-6.4134,-6.4096,-6.4247,-6.4284,-6.4364,-6.4634,-6.4671,-6.4817,-6.5117,-6.515,-6.522,-6.5375,-6.5413,-6.5283,-6.4951,-6.4951,-6.4775,-6.4407,-6.4331,-6.4134,-6.3925,-6.3967,-6.3835,-6.3519,-6.3654,-6.3691,-6.3602,-6.3602,-6.3647,-6.378,-6.3873,-6.4,-6.4244,-6.4284,-6.4284,-6.4284,-6.4284,-6.4284,-6.4359,-6.5185,-6.5598,-6.5974,-6.7438,-6.8114,-6.834,-6.8978,-6.9203,-6.9203,-6.9246,-6.9336,-6.9542,-6.9622,-6.9853,-7.0109,-7.0144,-7.0281,-7.0419,-7.0419,-7.0247,-7.0109,-7.0144,-7.0179,-7.0213,-7.0386,-7.0419,-7.0419,-7.0419,-7.0419,-7.0419,-7.0419,-7.0419,-7.0419,-7.0419,-7.0419,-7.0419,-7.0419,-7.054,-7.0738,-7.0965,-7.1147,-7.1319,-7.1581,-7.1598,-7.1583,-7.1599,-7.1844,-7.2014,-7.2015,-7.1982,-7.2002,-7.1984,-7.199,-7.1932,-7.1786,-7.1789,-7.1817,-7.1817,-7.1806,-7.1806,-4.4872,-4.8988,-5.3783,-5.883,-6.2789,-6.5495,-6.5779,-6.5597,-6.5207,-6.4882,-6.4521,-6.4284,-6.4284,-6.4364,-6.4443,-6.4443,-6.452,-6.4671,-6.4815,-6.485,-6.4955,-6.522,-6.5252,-6.5283,-6.5413,-6.522,-6.5052,-6.4882,-6.4631,-6.4407,-6.4214,-6.3971,-6.3718,-6.358,-6.3201,-6.3066,-6.3289,-6.314,-6.323,-6.3602,-6.3602,-6.3647,-6.378,-6.3953,-6.4042,-6.4203,-6.4284,-6.4284,-6.4284,-6.4284,-6.4284,-6.4322,-6.4772,-6.5148,-6.5598,-6.65,-6.7063,-6.7476,-6.7926,-6.8302,-6.864,-6.864,-6.8988,-6.9378,-6.946,-6.9739,-6.9965,-6.9965,-7.0038,-7.0109,-7.0001,-6.9663,-6.9388,-6.974,-6.9891,-7.0038,-7.0213,-7.0247,-7.0281,-7.0386,-7.0419,-7.0419,-7.0419,-7.0419,-7.0419,-7.0419,-7.0419,-7.0419,-7.0419,-7.0508,-7.0681,-7.094,-7.1062,-7.1278,-7.1581,-7.1598,-7.1598,-7.1611,-7.1778,-7.1945,-7.1987,-7.1987,-7.2006,-7.1989,-7.195,-7.1889,-7.1806,-7.178,-7.1817,-7.1817,-7.1817,-7.1782,-4.4713,-5.0103,-5.5924,-6.146,-6.42,-6.5566,-6.55,-6.5226,-6.4953,-6.4879,-6.4596,-6.4364,-6.4364,-6.452,-6.4634,-6.4634,-6.4781,-6.4958,-6.5052,-6.5085,-6.515,-6.5383,-6.5314,-6.5283,-6.5283,-6.4913,-6.4666,-6.4552,-6.4104,-6.3753,-6.3681,-6.3221,-6.3037,-6.3037,-6.2262,-6.217,-6.2835,-6.2584,-6.2747,-6.3416,-6.3527,-6.3647,-6.3817,-6.3995,-6.4079,-6.4121,-6.4244,-6.4284,-6.4284,-6.4284,-6.4284,-6.4284,-6.4284,-6.4697,-6.5298,-6.5448,-6.5974,-6.6575,-6.6725,-6.7213,-6.7776,-6.7776,-6.834,-6.9015,-6.911,-6.935,-6.9623,-6.9546,-6.9546,-6.9546,-6.9423,-6.8847,-6.8381,-6.8988,-6.9196,-6.9434,-6.9999,-7.0073,-7.0109,-7.0348,-7.0419,-7.0419,-7.0419,-7.0419,-7.0419,-7.0419,-7.0419,-7.0419,-7.0419,-7.0445,-7.0622,-7.094,-7.1038,-7.1236,-7.1581,-7.1598,-7.1598,-7.1611,-7.17,-7.1828,-7.1987,-7.1993,-7.2014,-7.1991,-7.1871,-7.1807,-7.1792,-7.1809,-7.1817,-7.1817,-7.1794,-7.1809,-4.0675,-4.7885,-5.5499,-5.9261,-6.1851,-6.3693,-6.4411,-6.4161,-6.3968,-6.4866,-6.4779,-6.4558,-6.4558,-6.4708,-6.4853,-6.4853,-6.4853,-6.4958,-6.5052,-6.5085,-6.515,-6.5383,-6.5085,-6.4882,-6.4882,-6.4483,-6.3794,-6.2748,-6.2582,-6.2109,-6.1172,-6.0997,-6.1089,-6.1308,-6.1196,-6.1278,-6.1478,-6.2072,-6.245,-6.2562,-6.3267,-6.3647,-6.378,-6.391,-6.4,-6.4121,-6.4244,-6.4284,-6.4284,-6.4284,-6.4284,-6.4284,-6.4284,-6.4359,-6.4547,-6.5223,-6.5561,-6.5786,-6.6537,-6.6838,-6.695,-6.695,-6.7476,-6.8109,-6.7763,-6.8302,-6.8922,-6.8605,-6.866,-6.8758,-6.8847,-6.8091,-6.7337,-6.7523,-6.7421,-6.7747,-6.9663,-6.9965,-6.9965,-7.0353,-7.0419,-7.0419,-7.0419,-7.0419,-7.0419,-7.0419,-7.0419,-7.0419,-7.0419,-7.071,-7.0915,-7.0965,-7.1299,-7.1525,-7.1598,-7.1598,-7.1598,-7.1611,-7.1622,-7.175,-7.1987,-7.2017,-7.1991,-7.1986,-7.1864,-7.1792,-7.1799,-7.1788,-7.1817,-7.1817,-7.1821,-7.1824,-4.2497,-4.8314,-5.3628,-5.8368,-6.065,-6.2029,-6.3131,-6.32,-6.309,-6.347,-6.3517,-6.3751,-6.463,-6.4886,-6.5023,-6.5023,-6.5128,-6.5123,-6.4951,-6.4951,-6.4845,-6.4666,-6.452,-6.4407,-6.4407,-6.3641,-6.2897,-6.2433,-6.1715,-6.1034,-6.0609,-6.0515,-6.0562,-6.0748,-6.0396,-6.0485,-6.11,-6.0728,-6.083,-6.1422,-6.2265,-6.2682,-6.2732,-6.3025,-6.3482,-6.4121,-6.4244,-6.4203,-6.3958,-6.3958,-6.3958,-6.3958,-6.3958,-6.4083,-6.4322,-6.4454,-6.4481,-6.4519,-6.4637,-6.5039,-6.5448,-6.5448,-6.6007,-6.6593,-6.6452,-6.6816,-6.7179,-6.6887,-6.685,-6.6823,-6.6764,-6.6247,-6.5735,-6.6038,-6.5975,-6.631,-6.8316,-6.9126,-6.9663,-7.0281,-7.0419,-7.0419,-7.0419,-7.0419,-7.0419,-7.0419,-7.0419,-7.0419,-7.0419,-7.057,-7.0766,-7.1004,-7.117,-7.1339,-7.1581,-7.1598,-7.1598,-7.1611,-7.1661,-7.1789,-7.1987,-7.1981,-7.1953,-7.1903,-7.1846,-7.1806,-7.1817,-7.1817,-7.1817,-7.1817,-7.1792,-7.1508,-4.216,-4.6568,-5.0103,-5.5472,-5.8404,-6.0214,-6.1429,-6.1964,-6.2249,-6.234,-6.2515,-6.2927,-6.4051,-6.441,-6.4508,-6.4405,-6.4502,-6.447,-6.406,-6.4024,-6.3991,-6.3798,-6.3716,-6.3634,-6.3634,-6.2687,-6.1982,-6.1663,-6.0702,-6.0063,-5.9983,-5.989,-5.989,-6.0075,-5.9439,-5.9448,-6.0211,-5.9318,-5.9406,-6.0392,-6.1172,-6.1625,-6.1661,-6.2266,-6.2977,-6.3749,-6.392,-6.3835,-6.3572,-6.3572,-6.3572,-6.3572,-6.3572,-6.3749,-6.3958,-6.3661,-6.3572,-6.349,-6.3178,-6.3527,-6.4044,-6.4044,-6.4598,-6.5263,-6.5164,-6.5374,-6.5631,-6.5359,-6.5271,-6.5184,-6.505,-6.4621,-6.4312,-6.4652,-6.4652,-6.5118,-6.7187,-6.8575,-6.9587,-7.0144,-7.0315,-7.0419,-7.0419,-7.0419,-7.0419,-7.0419,-7.0419,-7.0419,-7.0419,-7.0477,-7.0681,-7.0979,-7.1062,-7.1278,-7.1581,-7.1598,-7.1598,-7.1611,-7.1778,-7.1915,-7.2002,-7.1988,-7.1951,-7.1815,-7.1813,-7.1798,-7.1817,-7.1817,-7.1806,-7.1809,-7.1808,-7.13,-3.5637,-4.0018,-4.4193,-4.8682,-5.3809,-5.8016,-5.8977,-6.022,-6.1435,-6.2395,-6.2579,-6.2547,-6.2454,-6.2756,-6.2887,-6.2525,-6.2454,-6.2318,-6.1921,-6.1845,-6.2146,-6.2859,-6.2645,-6.2383,-6.2383,-6.1929,-6.1018,-5.9512,-5.9281,-5.8998,-5.8363,-5.8326,-5.8415,-5.8597,-5.8088,-5.7904,-5.8033,-5.825,-5.8761,-5.9559,-6.0392,-6.0844,-6.1002,-6.2062,-6.2595,-6.2794,-6.3036,-6.3131,-6.3131,-6.3131,-6.3131,-6.3131,-6.3131,-6.3131,-6.3131,-6.3131,-6.3131,-6.3131,-6.3084,-6.3121,-6.3158,-6.3158,-6.3748,-6.4402,-6.4002,-6.4412,-6.4981,-6.4584,-6.4452,-6.4472,-6.4584,-6.3984,-6.3292,-6.3457,-6.3403,-6.4074,-6.6834,-6.8819,-7.0038,-6.9891,-7.0144,-7.0419,-7.0419,-7.0419,-7.0419,-7.0419,-7.0419,-7.0419,-7.0419,-7.0738,-7.0965,-7.1029,-7.1339,-7.1581,-7.1598,-7.1598,-7.1598,-7.1611,-7.1856,-7.1971,-7.1988,-7.199,-7.1932,-7.1813,-7.1789,-7.1788,-7.1817,-7.1817,-7.1797,-7.1808,-7.1802,-7.1284,-3.3968,-3.7551,-4.1323,-4.5442,-4.9643,-5.3133,-5.4476,-5.7338,-5.9657,-5.9607,-6.022,-6.0785,-6.0714,-6.1685,-6.2373,-6.1991,-6.1919,-6.177,-6.1375,-6.1293,-6.1321,-6.1315,-6.1163,-6.1107,-6.1107,-6.0079,-5.9233,-5.8687,-5.784,-5.7237,-5.7,-5.7065,-5.7116,-5.7143,-5.708,-5.6927,-5.6685,-5.7299,-5.7616,-5.7654,-5.9005,-5.9609,-5.9704,-6.1013,-6.1656,-6.1712,-6.2202,-6.2515,-6.2768,-6.2768,-6.2768,-6.2768,-6.2768,-6.2929,-6.3084,-6.2831,-6.2768,-6.2768,-6.2464,-6.236,-6.236,-6.236,-6.2631,-6.2834,-6.2675,-6.2839,-6.3057,-6.293,-6.2875,-6.2875,-6.293,-6.2712,-6.244,-6.2495,-6.3653,-6.5,-6.6038,-6.8066,-6.9778,-6.9965,-7.0109,-7.0247,-7.0386,-7.0419,-7.0419,-7.0419,-7.0419,-7.0445,-7.0601,-7.0738,-7.0889,-7.1131,-7.1319,-7.1454,-7.1598,-7.1598,-7.1598,-7.1611,-7.1789,-7.1897,-7.1989,-7.19,-7.1864,-7.1806,-7.178,-7.1817,-7.1817,-7.1817,-7.1797,-7.1792,-7.118,-7.0618,-3.1737,-3.5204,-3.9221,-4.2631,-4.571,-4.8694,-5.1689,-5.4533,-5.6785,-5.7539,-5.8508,-5.9231,-5.9357,-6.0299,-6.098,-6.0714,-6.0675,-6.0516,-6.0129,-6.0041,-6.0018,-6.0026,-6.0015,-5.9931,-5.97,-5.8892,-5.8202,-5.7654,-5.6833,-5.633,-5.6276,-5.6438,-5.6438,-5.6295,-5.6403,-5.624,-5.583,-5.6303,-5.6411,-5.6245,-5.7579,-5.8351,-5.8632,-5.9927,-6.0725,-6.1152,-6.1615,-6.2024,-6.2397,-6.2397,-6.2397,-6.2397,-6.2397,-6.2515,-6.2682,-6.25,-6.2397,-6.2344,-6.2114,-6.2005,-6.2005,-6.2005,-6.2005,-6.2005,-6.2005,-6.2005,-6.2005,-6.2005,-6.2005,-6.2005,-6.2005,-6.2005,-6.2078,-6.2495,-6.4149,-6.5681,-6.6123,-6.7935,-6.9622,-6.9965,-7.0073,-7.0179,-7.0386,-7.0419,-7.0419,-7.0419,-7.0419,-7.0477,-7.0681,-7.0766,-7.0915,-7.1257,-7.1339,-7.1454,-7.1598,-7.1598,-7.1598,-7.1611,-7.1737,-7.1841,-7.1914,-7.1846,-7.1799,-7.1815,-7.1809,-7.1794,-7.1797,-7.1797,-7.1792,-7.1785,-7.083,-7.0228,0.0,0.0,0.0,-3.9915,-4.1883,-4.4827,-5.061,-5.179,-5.2718,-5.6336,-5.7469,-5.7941,-5.8446,-5.8512,-5.8508,-5.8545,-5.8586,-5.8455,-5.8042,-5.7997,-5.8244,-5.9014,-5.9124,-5.8896,-5.829,-5.8413,-5.7882,-5.6402,-5.6384,-5.6384,-5.6276,-5.6384,-5.6366,-5.607,-5.5964,-5.583,-5.5507,-5.5294,-5.5294,-5.5507,-5.6245,-5.7017,-5.779,-5.8931,-6.0012,-6.1058,-6.1372,-6.1692,-6.195,-6.2005,-6.2005,-6.2005,-6.2005,-6.2005,-6.2005,-6.2005,-6.2005,-6.2005,-6.2005,-6.2005,-6.2005,-6.2005,-6.2005,-6.2005,-6.2005,-6.2005,-6.2005,-6.2005,-6.2005,-6.2005,-6.2005,-6.2041,-6.2332,-6.3487,-6.4756,-6.5964,-6.7161,-6.8522,-6.9582,-6.9778,-6.9965,-7.0144,-7.0348,-7.0419,-7.0419,-7.0419,-7.0419,-7.0477,-7.0681,-7.0863,-7.1101,-7.1278,-7.1472,-7.1598,-7.1598,-7.1598,-7.1598,-7.1622,-7.1737,-7.1815,-7.1786,-7.1792,-7.1815,-7.1778,-7.1817,-7.1797,-7.1792,-7.1792,-7.1785,-7.1742,-7.0805,-7.0238,-2.9418,0.0,0.0,0.0,0.0,0.0,-4.2359,-4.4858,-4.7551,-5.0907,-5.2465,-5.3944,-5.6397,-5.6735,-5.6828,-5.7448,-5.7877,-5.7969,-5.7449,-5.7351,-5.7325,-5.7133,-5.7081,-5.7081,-5.6975,-5.6652,-5.6304,-5.6014,-5.5671,-5.5437,-5.5378,-5.5319,-5.5319,-5.5437,-5.5259,-5.5199,-5.5259,-5.5259,-5.5294,-5.5507,-5.6245,-5.6701,-5.6982,-5.8683,-5.9572,-5.9941,-6.1042,-6.1544,-6.1636,-6.1895,-6.2005,-6.2005,-6.2005,-6.2005,-6.2005,-6.2005,-6.2005,-6.2005,-6.2005,-6.2005,-6.2005,-6.2005,-6.2005,-6.2005,-6.2005,-6.2005,-6.2005,-6.2005,-6.2005,-6.2005,-6.2005,-6.244,-6.3021,-6.3633,-6.5198,-6.6667,-6.7272,-6.8428,-6.9416,-6.9739,-6.9816,-7.0001,-7.0315,-7.0419,-7.0419,-7.0419,-7.054,-7.071,-7.0863,-7.1085,-7.1299,-7.149,-7.1581,-7.1598,-7.1598,-7.1598,-7.1626,-7.1659,-7.1753,-7.1795,-7.1792,-7.1815,-7.1799,-7.1817,-7.1817,-7.1797,-7.1792,-7.1792,-7.1435,-7.0783,-7.0298,-6.9963,-3.1229,-3.2767,-3.4674,-3.4476,0.0,0.0,-3.9658,-4.1452,-4.3565,-4.7979,-4.9788,-5.1316,-5.3723,-5.4219,-5.4494,-5.5374,-5.6019,-5.649,-5.6701,-5.6757,-5.6652,-5.633,-5.6276,-5.6221,-5.6055,-5.5773,-5.5484,-5.5319,-5.5113,-5.5053,-5.5079,-5.4992,-5.5053,-5.5354,-5.5113,-5.5053,-5.5199,-5.5199,-5.5139,-5.5088,-5.5567,-5.5854,-5.6015,-5.7674,-5.8686,-5.9345,-6.0582,-6.135,-6.1692,-6.1748,-6.1895,-6.2005,-6.2005,-6.2005,-6.2005,-6.2005,-6.2005,-6.2005,-6.2005,-6.2005,-6.2005,-6.2005,-6.2005,-6.2005,-6.2005,-6.2005,-6.2005,-6.2005,-6.2005,-6.2005,-6.2005,-6.2694,-6.3619,-6.4383,-6.5854,-6.728,-6.7979,-6.8735,-6.9289,-6.9622,-6.9778,-6.9928,-7.0213,-7.0315,-7.0413,-7.0508,-7.0622,-7.0783,-7.1101,-7.1236,-7.1397,-7.1581,-7.1598,-7.1598,-7.1598,-7.163,-7.1667,-7.1682,-7.1741,-7.1756,-7.1813,-7.178,-7.1817,-7.1817,-7.1817,-7.1601,-7.1223,-7.1223,-7.0869,-7.0184,-6.9997,-6.9929,-3.3697,-3.4513,-3.5987,-3.6141,-3.4212,0.0,-3.9638,-3.9719,-4.0201,-4.5736,-4.7404,-4.837,-5.0017,-5.0746,-5.1321,-5.2028,-5.3024,-5.426,-5.5864,-5.6185,-5.6166,-5.5964,-5.5964,-5.5738,-5.5129,-5.5249,-5.5129,-5.4494,-5.4807,-5.4957,-5.5044,-5.4983,-5.5079,-5.5234,-5.5079,-5.4983,-5.4983,-5.5044,-5.4834,-5.4367,-5.4523,-5.4741,-5.4971,-5.6253,-5.7527,-5.8827,-5.9831,-6.0807,-6.1692,-6.143,-6.1544,-6.1895,-6.1895,-6.184,-6.1784,-6.1784,-6.184,-6.1895,-6.1895,-6.195,-6.2005,-6.2005,-6.2005,-6.2005,-6.2005,-6.2005,-6.2005,-6.2005,-6.2005,-6.2005,-6.2005,-6.2947,-6.4171,-6.5361,-6.6601,-6.7821,-6.8966,-6.9203,-6.9289,-6.946,-6.9661,-6.9891,-7.0109,-7.0281,-7.0508,-7.0681,-7.0766,-7.0889,-7.1257,-7.1319,-7.1417,-7.1581,-7.1598,-7.1614,-7.163,-7.1651,-7.1689,-7.1702,-7.1714,-7.1749,-7.1799,-7.1819,-7.1817,-7.1794,-7.1809,-7.1365,-7.0397,-7.0373,-7.0182,-6.9889,-6.9891,-6.9891,-3.6057,-3.6765,-3.7448,-3.5381,-3.5296,0.0,-3.4006,-3.4351,-3.5681,-3.8257,-3.8615,-3.9522,-4.3036,-4.4949,-4.5736,-4.4902,-4.8048,-5.158,-5.4472,-5.5305,-5.5189,-5.4102,-5.4008,-5.3713,-5.3112,-5.3647,-5.4038,-5.42,-5.4551,-5.4551,-5.42,-5.3747,-5.3549,-5.3713,-5.3615,-5.3549,-5.3647,-5.4008,-5.3943,-5.3549,-5.3912,-5.4045,-5.4151,-5.5069,-5.5956,-5.681,-5.7867,-5.8855,-5.9774,-5.9931,-6.0529,-6.1163,-6.1163,-6.0867,-6.0406,-6.0406,-6.0747,-6.1163,-6.1163,-6.1544,-6.2005,-6.2005,-6.2005,-6.2005,-6.2005,-6.2005,-6.2005,-6.2005,-6.2005,-6.2005,-6.2005,-6.3384,-6.4919,-6.5472,-6.7046,-6.8493,-6.9078,-6.9332,-6.946,-6.9501,-6.9661,-6.9928,-7.0281,-7.054,-7.0652,-7.071,-7.0965,-7.1214,-7.1299,-7.1454,-7.1564,-7.1598,-7.1598,-7.1622,-7.1692,-7.17,-7.1721,-7.1797,-7.1788,-7.1792,-7.1809,-7.1788,-7.1809,-7.1816,-7.1816,-7.1325,-7.0402,-7.0133,-6.9946,-6.9889,-6.9891,-6.989,-3.795,-3.7809,-3.795,-3.6784,-3.5892,0.0,0.0,-3.3495,-3.3669,-3.6798,-3.5854,-3.5544,-3.9363,-4.0146,-4.0591,-4.1733,-4.4507,-4.7251,-4.9516,-5.1434,-5.2466,-5.21,-5.1764,-5.153,-5.1289,-5.2135,-5.2876,-5.3281,-5.3482,-5.3515,-5.3281,-5.3044,-5.3044,-5.3315,-5.3247,-5.3213,-5.3213,-5.3649,-5.3482,-5.2803,-5.3315,-5.3382,-5.3179,-5.4262,-5.5213,-5.6133,-5.7124,-5.8185,-5.9279,-5.9447,-5.9609,-5.9867,-6.0344,-6.0282,-5.9966,-5.9966,-6.0219,-6.0529,-6.0867,-6.1257,-6.1579,-6.1895,-6.2005,-6.2005,-6.2005,-6.2005,-6.2005,-6.2005,-6.2005,-6.206,-6.2275,-6.3481,-6.477,-6.5245,-6.6545,-6.786,-6.8484,-6.8734,-6.9051,-6.9585,-6.9889,-7.0171,-7.0375,-7.0593,-7.0794,-7.0965,-7.1192,-7.1319,-7.1454,-7.1564,-7.1598,-7.1598,-7.1637,-7.168,-7.1711,-7.176,-7.1786,-7.1783,-7.1841,-7.1838,-7.1788,-7.1817,-7.1563,-7.1093,-7.1106,-7.0796,-7.0171,-6.998,-6.9889,-6.9891,-6.9891,-7.0835,-4.0081,-3.9294,-3.9121,-3.8567,-3.6819,-3.5292,0.0,0.0,0.0,-3.6002,-3.4303,-3.3125,-3.6161,-3.5779,-3.5857,-3.8302,-4.062,-4.22,-4.2665,-4.549,-4.7958,-4.9392,-4.9224,-4.9061,-4.9253,-4.9857,-5.0692,-5.1921,-5.1489,-5.1456,-5.2121,-5.2084,-5.2291,-5.2736,-5.2769,-5.2769,-5.2767,-5.3247,-5.3043,-5.2236,-5.2731,-5.2731,-5.2407,-5.3469,-5.4561,-5.5685,-5.6435,-5.7603,-5.8908,-5.8841,-5.8633,-5.846,-5.9447,-5.9709,-5.9578,-5.9578,-5.9644,-5.9838,-6.0441,-6.0686,-6.0927,-6.1579,-6.1895,-6.2005,-6.2005,-6.2005,-6.2005,-6.2005,-6.2005,-6.2114,-6.25,-6.3603,-6.4705,-6.4964,-6.6063,-6.7213,-6.7851,-6.8173,-6.8639,-6.9664,-7.0205,-7.0455,-7.0455,-7.0671,-7.0915,-7.1257,-7.1319,-7.1436,-7.1581,-7.1598,-7.1614,-7.1606,-7.168,-7.1731,-7.1745,-7.1822,-7.1873,-7.1841,-7.1845,-7.1837,-7.1743,-7.1693,-7.1241,-7.0388,-7.0362,-7.0187,-6.9934,-6.988,-6.9891,-6.9891,-6.9927,-7.169,-4.3038,-4.3159,-4.2881,-3.9105,-3.9118,-3.8451,-3.2212,0.0,-3.215,-3.0642,0.0,-2.9789,-3.0912,0.0,0.0,-3.0138,-3.441,-3.7113,-3.4554,-3.7187,-4.0869,-4.5016,-4.5995,-4.6309,-4.6311,-4.5403,-4.6419,-5.009,-4.7967,-4.7605,-5.0156,-4.9983,-5.0156,-5.0767,-5.08,-5.0951,-5.1327,-5.1802,-5.198,-5.1835,-5.2302,-5.2445,-5.2373,-5.2544,-5.3379,-5.4642,-5.4741,-5.5762,-5.7256,-5.7256,-5.7406,-5.7775,-5.8703,-5.8633,-5.8137,-5.8137,-5.8528,-5.9045,-5.9078,-5.9578,-6.0219,-6.0927,-6.1487,-6.2005,-6.2005,-6.2005,-6.2005,-6.2005,-6.2005,-6.2114,-6.25,-6.4007,-6.5408,-6.5076,-6.6475,-6.7889,-6.7964,-6.8294,-6.883,-6.9877,-7.0362,-7.0681,-7.0681,-7.0965,-7.1257,-7.1299,-7.1454,-7.1581,-7.1598,-7.1598,-7.1622,-7.1665,-7.1689,-7.1745,-7.1874,-7.1833,-7.185,-7.1885,-7.1848,-7.1704,-7.1474,-7.1291,-7.0889,-7.0244,-7.0222,-7.0106,-6.9885,-6.9891,-6.9891,-6.9891,-6.9901,-7.1719,-4.3022,-4.357,-4.3803,-3.9742,-3.9284,-3.8435,-3.3077,-3.1216,-3.0714,-3.112,0.0,0.0,0.0,0.0,0.0,0.0,-3.1854,-3.2944,-3.1929,-3.3161,-3.5875,-4.0543,-4.067,-4.1151,-4.3205,-4.2905,-4.3973,-4.7335,-4.5721,-4.5548,-4.7988,-4.8445,-4.8986,-4.9885,-4.9917,-5.0338,-5.1102,-5.154,-5.1794,-5.1762,-5.223,-5.2373,-5.2373,-5.2373,-5.3169,-5.4527,-5.4527,-5.5397,-5.6834,-5.7063,-5.7289,-5.7514,-5.7993,-5.7993,-5.7735,-5.7588,-5.7701,-5.8031,-5.853,-5.9212,-6.003,-6.1163,-6.1748,-6.2005,-6.2005,-6.2005,-6.2005,-6.2005,-6.2168,-6.2449,-6.2818,-6.4055,-6.5245,-6.5266,-6.6341,-6.7443,-6.8056,-6.849,-6.9078,-7.008,-7.0689,-7.1038,-7.1038,-7.1192,-7.1339,-7.1454,-7.1564,-7.1598,-7.1598,-7.1651,-7.168,-7.17,-7.1774,-7.183,-7.1831,-7.1836,-7.1862,-7.1838,-7.168,-7.1435,-7.1126,-7.0836,-7.0536,-7.0287,-7.0119,-7.0073,-7.0079,-6.9967,-6.9888,-6.9905,-6.991,-7.0995,-4.39,-4.4435,-4.4585,-3.9877,-3.8704,-3.7564,-3.3168,-3.1295,-3.0784,-3.1933,-3.0555,0.0,0.0,0.0,0.0,0.0,0.0,-3.002,-2.9484,-2.9886,-3.1805,-3.5931,-3.6209,-3.7118,-3.9846,-3.9438,-4.0379,-4.3733,-4.2354,-4.2799,-4.6107,-4.6768,-4.7782,-4.9285,-4.9469,-5.0048,-5.1102,-5.154,-5.1868,-5.1941,-5.223,-5.2373,-5.2373,-5.2373,-5.3169,-5.4527,-5.4527,-5.5355,-5.6757,-5.7063,-5.7214,-5.7214,-5.7364,-5.7439,-5.7439,-5.7364,-5.7289,-5.7439,-5.8069,-5.8943,-5.9931,-6.1104,-6.1692,-6.2005,-6.2005,-6.2005,-6.2005,-6.2005,-6.2291,-6.2741,-6.332,-6.4364,-6.544,-6.5778,-6.6541,-6.7416,-6.8222,-6.8707,-6.9305,-7.0354,-7.0951,-7.1319,-7.1359,-7.1359,-7.1436,-7.1581,-7.1598,-7.1614,-7.1622,-7.168,-7.1731,-7.1745,-7.1827,-7.1866,-7.1846,-7.1862,-7.1838,-7.1731,-7.1426,-7.1144,-7.0892,-7.0552,-7.0354,-7.0264,-7.0057,-6.9889,-6.9815,-6.985,-6.9905,-6.991,-6.9892,-6.993,-4.7079,-4.7119,-4.6134,-3.9032,-3.7546,-3.6388,-3.0767,-3.1843,-3.3454,-3.1394,-3.3273,-3.471,-3.2695,0.0,0.0,0.0,0.0,0.0,0.0,-2.6566,-2.8437,-3.1114,-3.3597,-3.5462,-3.632,-3.3905,-3.4242,-3.894,-3.6835,-3.8131,-4.4607,-4.4949,-4.6216,-4.8825,-4.9317,-5.0048,-5.1102,-5.154,-5.2013,-5.2373,-5.2373,-5.2373,-5.2373,-5.2373,-5.3169,-5.4527,-5.4527,-5.5355,-5.668,-5.6911,-5.6987,-5.6987,-5.6987,-5.6987,-5.7063,-5.7214,-5.7289,-5.7364,-5.7588,-5.8668,-5.9966,-6.003,-6.0927,-6.2005,-6.2005,-6.2005,-6.2005,-6.2005,-6.2291,-6.2888,-6.4021,-6.5301,-6.6254,-6.6641,-6.7529,-6.8297,-6.8525,-6.8908,-6.9548,-7.0758,-7.1137,-7.1339,-7.1564,-7.1598,-7.1598,-7.1598,-7.1598,-7.1622,-7.1677,-7.17,-7.1745,-7.1875,-7.1912,-7.1897,-7.1915,-7.1897,-7.1794,-7.1536,-7.107,-7.081,-7.0783,-7.0508,-7.0251,-7.022,-7.0076,-6.9625,-6.8828,-6.9573,-6.9864,-6.9917,-6.9892,-6.8509,-4.8781,-4.9468,-4.8884,-4.1842,-4.0567,-3.9339,-3.2871,-3.3332,-3.4415,-3.19,-3.3736,-3.5217,-3.3003,0.0,0.0,0.0,0.0,0.0,0.0,-2.4402,-2.5153,-2.7395,-3.0582,-3.2432,-3.1799,-3.2304,-3.3878,-3.6926,-3.6158,-3.7693,-4.2581,-4.3445,-4.483,-4.7011,-4.7403,-4.8544,-5.0691,-5.0876,-5.1434,-5.2373,-5.2373,-5.2373,-5.2373,-5.2373,-5.3169,-5.4527,-5.4527,-5.5355,-5.6757,-5.7063,-5.7139,-5.6987,-5.7139,-5.7139,-5.6987,-5.6911,-5.6911,-5.7063,-5.778,-5.8943,-6.0093,-6.0529,-6.1257,-6.2005,-6.2005,-6.2005,-6.2005,-6.2005,-6.2866,-6.3898,-6.4302,-6.5886,-6.7423,-6.7546,-6.8445,-6.936,-6.9538,-6.9988,-7.0541,-7.1098,-7.1359,-7.1508,-7.1598,-7.1651,-7.164,-7.1614,-7.1651,-7.1653,-7.17,-7.1767,-7.1866,-7.1912,-7.1889,-7.1884,-7.1906,-7.1731,-7.1465,-7.1047,-7.0889,-7.071,-7.0477,-7.0353,-7.0217,-7.0076,-6.9662,-6.919,-6.8622,-6.8409,-6.7912,-6.7177,-6.7158,-6.6717,-5.0335,-5.1123,-5.0823,-4.4179,-4.3079,-4.1922,-3.5217,-3.5745,-3.6865,-3.4107,-3.528,-3.6456,-3.5251,0.0,0.0,0.0,0.0,0.0,0.0,-2.3511,-2.3792,-2.4965,-2.7842,-2.9622,-2.9237,-2.9988,-3.1747,-3.4925,-3.4475,-3.611,-4.0965,-4.2101,-4.3594,-4.5789,-4.6469,-4.7824,-4.9994,-5.0493,-5.1102,-5.1908,-5.223,-5.2373,-5.2373,-5.2373,-5.3169,-5.4527,-5.4527,-5.5355,-5.6757,-5.7063,-5.7063,-5.6911,-5.7139,-5.7063,-5.6911,-5.6757,-5.6757,-5.7063,-5.7707,-5.8875,-6.0093,-6.0468,-6.1257,-6.2005,-6.2005,-6.2005,-6.2078,-6.2495,-6.3474,-6.4535,-6.5271,-6.6702,-6.8119,-6.8553,-6.9285,-7.0026,-7.0348,-7.0774,-7.1158,-7.1359,-7.1508,-7.1614,-7.1637,-7.1692,-7.1677,-7.1626,-7.1689,-7.1729,-7.1767,-7.1866,-7.1911,-7.1889,-7.1884,-7.1858,-7.1782,-7.1448,-7.1115,-7.081,-7.071,-7.057,-7.0286,-7.0289,-7.0111,-6.9701,-6.9385,-6.8765,-6.806,-6.7627,-6.6884,-6.5922,-6.5826,-6.5803]}]]